ECMWFNIL_850_spd_000.txt.gz
Wind_Speed
17 16 16 17 18 18 19 20 20 20 19 18 17 17 17 17 17 18 19 21 22 24 26 27 27 25 25 24 23 24 24 24 26 28 29 30 30 30 31 32 33 34
15 15 15 16 17 18 18 19 19 20 20 19 19 18 18 17 18 18 19 21 23 24 26 27 28 28 27 27 28 29 29 29 31 32 32 33 33 32 32 32 32 32
15 15 15 16 17 18 19 19 19 19 19 19 19 18 18 18 18 18 18 20 21 23 25 26 28 29 30 29 30 31 32 32 33 34 36 36 35 35 34 34 34 33
16 16 16 16 18 19 19 20 20 19 18 18 18 18 19 19 19 19 19 19 20 22 23 24 26 28 30 30 30 31 33 34 35 36 36 37 37 37 36 35 36 36
16 17 17 17 19 19 20 20 20 19 18 17 17 17 18 18 20 21 21 21 20 21 21 21 23 24 26 28 28 28 30 33 35 35 36 36 36 36 35 35 37 38
16 17 17 19 20 20 21 20 20 18 17 17 17 17 18 19 20 21 21 22 22 21 21 20 20 21 23 24 25 26 28 30 33 34 35 35 36 36 36 35 36 38
15 17 18 19 20 21 22 20 19 17 17 18 18 18 18 19 19 20 20 22 22 22 22 21 21 21 22 23 24 24 26 27 30 32 33 35 36 37 37 37 39 39
15 16 17 19 20 22 21 19 18 17 16 17 18 17 17 17 18 19 20 22 23 23 22 22 23 24 24 24 25 25 25 26 26 28 31 33 35 37 38 38 40 40
14 16 17 18 19 20 20 19 17 16 16 17 17 16 16 16 18 19 20 22 23 24 23 23 25 26 26 26 26 26 26 27 27 28 29 31 33 36 37 38 39 40
13 15 16 17 19 19 19 19 17 16 16 17 19 18 17 17 18 20 21 22 22 23 24 25 26 29 29 29 28 27 27 27 27 27 29 30 31 34 36 37 39 40
12 14 15 16 18 19 20 20 18 17 17 19 20 21 20 18 18 19 21 22 21 21 23 24 27 30 30 29 28 28 28 27 26 25 27 28 29 31 34 36 37 39
12 14 15 16 18 19 20 20 19 18 19 20 21 21 20 18 17 19 22 23 21 20 21 23 24 27 28 29 30 31 31 29 27 26 28 28 27 27 30 34 37 37
12 13 14 16 18 19 19 19 19 19 19 20 20 20 18 17 17 18 21 22 20 20 22 23 24 25 27 29 32 33 33 31 29 28 27 27 27 26 26 30 35 37
11 12 14 16 18 19 20 19 19 19 19 19 19 19 17 17 17 18 19 19 19 20 22 23 25 26 28 29 32 34 34 33 32 30 27 26 27 27 25 26 30 35
10 12 14 16 18 19 19 19 19 19 19 18 18 18 17 17 17 17 18 18 18 19 21 23 25 27 27 28 31 34 36 35 32 29 28 27 26 26 26 25 27 31
10 12 14 16 17 18 18 19 19 19 19 18 17 16 16 17 17 16 17 17 18 19 19 21 23 24 24 26 30 33 35 34 30 28 27 27 27 27 26 26 27 28
11 13 15 15 16 17 18 19 19 19 19 17 16 16 16 17 17 16 16 17 17 19 19 19 21 20 20 24 29 31 33 33 30 27 27 26 26 27 27 26 27 29
13 14 15 16 17 18 18 19 19 20 20 18 16 16 17 17 17 17 17 16 17 19 19 20 20 19 20 24 27 29 31 33 33 31 30 27 23 23 25 26 28 30
15 16 16 17 18 19 19 19 20 21 20 18 16 16 16 16 17 17 16 16 16 18 20 20 21 20 21 24 26 27 29 32 35 34 33 30 23 18 19 21 25 27
16 17 17 18 19 20 20 19 20 20 18 16 16 16 15 16 16 15 15 15 16 17 19 20 21 22 22 24 25 26 28 31 34 35 34 32 27 21 17 16 19 24
17 17 17 19 20 20 18 17 18 18 16 15 15 15 15 15 14 14 15 16 17 18 17 17 19 21 22 23 24 26 28 30 33 35 36 32 28 25 20 16 18 23
17 17 18 19 20 20 17 16 16 16 15 15 15 15 14 13 13 15 16 16 18 18 16 15 16 19 22 23 24 25 27 30 31 34 36 34 29 25 20 16 17 20
16 16 17 19 20 19 17 16 15 15 15 15 16 15 13 13 14 15 15 16 18 17 16 14 15 17 20 22 23 24 25 28 30 32 35 36 32 26 22 21 24 26
15 15 16 18 18 17 15 14 14 14 14 15 16 16 14 13 15 15 15 17 18 17 15 15 14 16 19 20 22 24 25 26 28 29 32 35 35 32 27 24 25 26
14 14 14 15 15 14 14 14 14 13 14 14 15 15 13 13 14 14 15 17 19 18 16 16 16 16 18 19 21 23 25 26 26 26 28 33 36 37 35 29 25 24
13 14 14 13 13 13 13 14 14 14 15 15 15 14 12 12 13 13 14 17 19 19 18 18 18 17 18 19 20 21 23 25 26 25 25 29 33 35 37 36 32 27

ECMWFNIL_850_spd_003.txt.gz
Wind_Speed
18 17 15 13 13 14 15 16 17 18 17 15 15 15 16 16 15 15 16 17 17 18 19 20 20 20 20 21 22 24 27 29 29 28 28 28 29 29 29 28 28 28
17 15 14 12 12 13 15 16 17 17 16 14 13 14 14 14 14 15 15 16 17 18 19 20 21 21 21 21 21 21 24 27 29 30 30 30 31 32 33 32 32 32
15 14 12 12 12 13 15 17 17 16 15 13 12 12 13 14 14 15 16 16 17 18 19 20 20 20 21 21 19 19 20 23 25 27 29 32 34 35 36 36 36 35
14 13 12 12 13 14 16 17 17 16 14 12 11 12 14 15 15 15 15 16 17 18 19 20 20 19 19 20 18 18 19 21 23 23 26 30 32 34 36 37 38 38
13 12 12 12 14 15 17 17 16 15 14 13 13 13 14 15 14 14 15 16 16 18 19 19 19 19 18 19 19 19 20 22 23 24 25 28 29 31 32 36 38 39
13 12 11 12 14 15 16 17 17 16 14 14 14 13 14 14 13 14 15 15 16 18 19 18 19 19 19 19 20 21 22 22 23 24 25 27 29 30 30 32 35 38
13 12 11 12 14 15 15 16 17 16 14 14 14 13 14 14 14 15 15 14 15 17 18 18 18 18 19 20 21 22 22 22 23 24 25 26 28 30 31 32 33 35
13 12 11 12 13 13 14 15 16 16 14 13 13 14 14 15 15 16 16 14 15 18 18 18 18 18 18 19 20 21 23 24 24 24 25 26 28 29 30 31 32 34
12 11 10 11 12 13 14 15 15 15 14 13 13 14 15 16 16 17 16 15 16 19 19 17 17 17 17 18 19 22 25 26 26 26 26 27 29 30 29 29 31 33
11 10 10 10 12 13 14 15 15 15 15 14 14 15 15 16 16 16 15 15 17 19 18 17 17 17 17 19 22 24 26 28 29 29 28 28 29 30 30 30 30 31
9 9 9 10 11 13 14 15 16 16 15 15 15 16 16 16 16 15 14 15 16 17 17 16 17 18 19 21 24 25 27 28 30 30 30 28 29 29 29 30 31 31
9 9 9 9 11 13 15 16 17 16 16 16 16 16 16 16 16 15 15 16 16 17 17 17 18 19 19 20 22 25 27 27 28 30 31 28 27 27 27 28 30 30
9 9 9 10 11 14 15 16 17 17 17 17 17 17 17 16 16 16 16 16 17 17 18 18 18 19 20 22 23 25 26 27 28 31 32 29 28 28 26 25 27 28
9 9 9 10 12 14 15 17 18 19 19 18 18 17 17 16 16 16 16 17 17 18 19 19 19 20 22 23 23 24 25 26 28 32 32 30 29 28 26 24 24 25
9 9 9 11 13 14 16 18 19 20 20 20 20 19 18 17 16 16 17 17 18 19 20 20 20 20 22 23 23 23 24 25 28 31 32 32 31 29 28 25 22 23
9 9 10 12 14 15 17 19 20 21 21 21 21 21 19 18 17 17 17 18 18 20 21 20 20 20 21 22 22 23 24 25 28 31 33 35 33 30 30 26 20 18
10 10 11 13 15 16 18 20 21 22 22 21 22 21 19 18 18 17 18 18 18 19 20 20 19 19 19 20 22 23 23 24 28 30 33 36 34 29 30 28 21 16
12 12 14 15 16 17 19 20 22 22 21 21 21 21 20 18 18 18 17 17 17 17 18 18 18 18 18 19 21 23 23 24 27 29 32 36 35 29 28 28 23 17
14 15 16 17 17 18 19 21 22 22 20 19 20 20 19 18 17 17 16 15 15 16 18 19 18 17 17 19 21 22 23 23 25 27 30 34 35 31 28 27 24 20
16 16 17 18 18 18 19 21 23 22 19 18 19 19 19 18 17 16 15 14 14 16 18 20 18 16 16 19 20 21 21 22 24 26 28 31 34 33 30 26 24 24
17 17 18 18 18 18 19 22 23 21 18 18 18 19 19 18 17 16 15 14 14 16 18 19 17 16 16 18 19 19 20 22 24 25 27 29 32 34 32 28 24 23
17 18 18 18 17 17 19 20 20 18 17 17 18 18 17 17 16 16 16 15 15 17 18 18 16 16 17 17 17 18 19 20 23 25 27 28 30 33 34 30 25 24
17 18 18 17 15 15 17 17 16 16 16 16 16 16 17 17 16 16 16 16 16 18 19 19 18 17 17 17 17 17 18 19 21 25 27 28 29 31 32 30 27 26
18 18 17 15 14 14 15 15 16 17 16 16 16 17 17 17 16 16 17 17 17 18 19 20 19 18 16 16 16 16 17 19 20 22 26 28 29 30 28 27 28 30
18 17 15 14 14 14 15 15 16 17 17 17 18 18 18 17 17 17 18 18 18 19 19 20 20 19 16 15 15 15 16 17 19 21 23 25 28 29 26 25 27 31
17 16 15 15 15 15 16 15 16 17 18 18 18 18 18 17 17 18 19 19 19 18 19 19 20 19 17 15 15 15 16 17 18 20 22 23 24 26 25 24 27 31

ECMWFNIL_850_spd_006.txt.gz
Wind_Speed
11 11 9 6 6 6 7 8 9 10 10 10 10 11 11 11 10 10 10 11 12 12 13 14 14 15 15 15 16 17 18 19 20 22 23 25 27 27 27 27 28 28
10 10 8 6 5 6 7 8 10 9 9 9 10 10 10 9 9 9 10 11 12 12 13 14 16 16 15 14 14 15 16 17 17 18 21 23 25 27 28 29 31 32
11 9 7 5 4 6 7 9 9 9 9 9 8 9 9 9 9 10 10 10 11 12 12 13 16 17 16 14 14 15 16 18 18 19 21 22 23 25 26 27 29 31
11 9 7 5 5 6 7 9 9 9 9 8 8 8 8 9 9 10 10 11 12 12 12 13 15 17 17 15 14 15 16 18 19 19 21 23 25 25 26 26 27 30
11 10 8 6 5 6 7 8 9 9 9 8 8 8 8 9 9 10 11 12 12 13 13 15 16 16 16 15 14 15 16 17 18 19 20 22 24 25 26 27 28 31
11 10 9 7 6 7 7 8 9 10 10 9 9 9 9 10 11 11 12 13 13 13 14 16 16 16 16 15 15 15 16 17 18 19 20 21 22 24 26 27 28 31
11 10 9 8 7 7 8 8 10 10 10 10 10 10 10 11 12 13 13 14 14 14 15 16 17 17 17 16 15 15 17 19 19 20 22 23 24 25 26 28 28 29
10 10 9 8 8 8 8 9 10 11 12 12 12 12 12 11 12 13 14 15 15 15 15 17 18 17 16 16 16 17 18 19 19 19 22 25 26 27 27 28 28 30
10 9 9 9 8 8 8 8 9 10 12 14 14 14 13 13 13 13 14 15 16 16 16 17 18 17 16 16 17 19 20 20 19 20 22 24 27 29 30 30 30 31
9 9 9 9 8 8 8 8 9 10 11 14 16 16 15 14 14 14 15 16 16 17 17 17 17 17 17 17 17 19 20 20 20 22 23 25 28 30 31 31 31 32
9 9 9 9 9 8 8 9 10 11 12 13 15 16 16 16 16 15 16 17 17 17 17 17 17 17 18 19 19 20 21 22 23 24 25 27 30 31 32 32 31 32
9 9 10 9 9 9 9 10 10 11 12 13 14 15 16 16 17 17 17 17 17 18 18 18 17 18 19 20 21 21 22 24 25 25 26 28 30 33 34 34 32 31
10 10 10 9 9 10 10 10 11 11 12 13 14 15 16 16 17 18 18 17 17 18 19 19 18 19 19 20 21 21 22 24 25 26 26 27 30 33 35 33 31 30
10 10 10 10 9 10 10 11 12 14 14 15 16 16 17 17 17 18 18 17 17 18 19 19 19 18 18 19 20 21 21 23 25 26 25 25 29 33 33 32 29 28
11 11 10 10 9 10 11 13 14 16 16 16 16 17 17 18 18 18 18 16 16 17 18 18 18 17 17 18 19 20 20 22 24 24 23 24 28 32 33 33 30 28
13 12 11 11 11 11 12 14 16 16 15 16 17 17 16 17 18 17 16 14 14 15 16 16 16 17 17 19 20 19 19 21 23 23 22 23 26 30 33 34 33 29
13 13 12 12 13 13 14 15 17 17 16 17 18 17 16 16 17 16 15 14 13 14 15 14 15 17 19 20 21 20 19 20 21 21 21 21 22 26 30 33 33 30
13 13 14 14 15 15 16 17 18 17 17 19 18 16 15 16 16 15 14 13 13 14 15 14 15 18 20 21 21 19 18 19 20 20 20 19 21 25 28 30 31 31
13 13 14 15 15 16 17 18 19 18 17 18 16 15 15 16 15 15 13 13 13 14 15 14 15 17 20 20 20 18 18 18 19 20 19 19 20 23 25 26 29 30
13 13 15 15 16 16 17 19 19 17 16 16 14 14 15 15 15 15 14 14 14 13 14 13 14 16 18 18 18 17 17 18 18 18 19 18 18 20 21 24 27 30
12 13 15 16 16 15 16 17 17 15 15 14 14 14 14 15 15 15 15 16 15 14 14 14 15 17 18 18 18 17 17 18 18 18 17 18 19 20 21 22 25 28
12 13 14 16 16 15 16 16 14 13 13 14 14 14 14 14 15 15 15 15 15 14 15 15 15 18 19 20 19 18 17 17 18 18 17 18 20 21 20 19 21 25
12 13 14 15 15 15 14 14 13 13 13 13 14 14 14 14 14 15 15 15 15 15 15 15 15 17 19 20 20 18 17 17 18 18 17 18 21 21 19 18 17 19
12 14 15 15 14 14 13 13 13 13 13 13 14 14 14 14 14 16 16 15 16 17 16 17 17 17 18 20 19 18 17 17 17 18 18 19 21 22 19 17 17 17
14 15 15 15 14 13 13 13 13 14 14 15 15 15 14 14 15 17 18 17 19 20 19 19 18 16 16 18 18 17 16 17 17 18 19 20 21 22 21 19 19 19
15 16 15 14 14 13 12 14 16 17 18 18 19 18 17 16 17 17 18 18 19 20 21 21 17 14 15 17 17 16 15 16 17 18 19 20 21 23 22 21 21 22

ECMWFNIL_850_spd_009.txt.gz
Wind_Speed
6 6 5 5 5 6 7 6 7 8 9 10 10 11 11 12 13 13 13 13 14 14 13 13 14 14 14 14 14 15 15 15 16 17 18 18 19 21 21 22 23 25
6 6 6 5 5 6 6 6 8 9 9 9 10 11 12 11 11 12 12 13 13 13 13 13 13 14 15 15 15 15 15 16 17 17 18 18 19 20 22 23 24 24
6 6 6 5 6 6 6 7 8 8 9 9 10 11 11 11 11 11 12 12 12 12 13 13 13 14 16 16 16 16 16 16 17 17 17 18 19 19 20 22 23 25
6 6 6 6 7 7 7 7 7 8 9 9 10 10 11 10 10 11 11 12 12 13 13 14 14 15 16 16 16 16 16 15 15 15 16 17 18 18 19 21 22 24
6 6 6 6 7 7 7 7 7 8 9 10 10 10 10 10 11 11 11 12 13 13 14 15 15 15 15 16 16 15 15 15 14 14 16 17 19 19 20 22 23 24
6 7 7 7 7 7 7 8 8 9 9 10 11 11 12 11 12 12 12 12 14 14 14 15 15 15 15 16 16 15 15 15 16 17 19 20 20 21 22 23 25 26
7 6 7 7 7 8 8 9 9 9 10 11 11 12 13 13 13 13 13 13 14 14 14 15 15 15 16 16 16 15 15 16 18 19 21 22 22 22 22 23 25 29
7 7 8 8 8 9 9 9 9 10 10 11 12 12 13 14 15 15 14 13 14 14 14 15 15 15 16 16 16 16 16 17 19 21 22 24 23 23 22 23 27 31
7 8 8 8 9 9 9 9 9 10 11 11 11 12 13 14 16 16 15 14 14 14 15 15 16 16 16 17 16 17 19 19 21 22 23 24 24 24 25 25 28 31
8 8 8 8 9 9 9 9 9 10 10 10 11 12 13 13 15 17 16 16 16 15 16 16 16 16 17 17 16 17 20 21 21 22 22 23 24 25 25 25 26 28
8 8 8 9 9 9 10 10 11 11 11 11 12 12 13 13 15 15 15 17 17 17 17 17 17 17 17 17 16 16 19 21 21 21 21 22 23 24 23 23 24 24
9 9 9 9 10 10 10 11 11 11 11 12 12 12 13 14 15 15 16 17 18 19 17 16 17 17 16 17 18 17 18 21 21 21 21 21 23 23 21 21 21 22
9 9 9 9 10 10 11 11 11 11 12 14 14 13 14 15 15 16 17 17 18 19 17 15 15 15 14 15 17 18 18 20 21 21 21 21 22 22 20 19 19 20
9 10 10 10 11 11 11 11 11 12 14 14 14 14 14 15 16 16 17 18 18 18 17 16 16 15 14 14 16 17 18 20 21 21 20 21 22 21 17 16 17 19
10 10 10 10 11 12 12 12 12 13 14 14 14 14 15 16 17 17 17 18 17 17 16 17 16 14 14 15 15 17 19 20 21 20 20 21 22 20 16 15 17 19
10 10 11 11 11 11 12 13 13 14 15 14 14 14 15 17 18 17 17 17 16 16 17 17 16 15 16 16 16 17 19 21 22 21 21 21 22 19 16 16 18 19
10 11 11 11 12 12 13 13 14 16 17 16 15 15 16 17 17 17 16 16 16 16 16 16 15 15 18 18 17 18 19 20 21 21 21 22 22 20 17 16 18 20
11 11 12 12 13 13 13 14 15 16 17 16 15 15 16 16 16 16 16 16 16 15 15 15 15 16 18 18 17 18 19 19 21 21 21 22 21 20 18 17 19 21
12 12 12 13 13 13 14 14 15 15 15 14 14 14 14 15 15 16 16 16 16 15 14 15 16 16 17 18 18 19 19 19 21 22 21 21 21 20 19 19 20 22
13 13 13 13 13 13 14 14 15 15 14 13 13 13 14 14 14 15 15 15 16 16 16 15 16 16 17 19 20 21 21 22 22 23 22 22 21 20 20 22 22 22
14 14 13 12 12 12 13 14 15 15 13 12 13 12 12 13 13 13 14 15 16 18 18 16 16 17 17 18 20 22 23 24 24 24 24 22 21 20 21 23 23 24
15 14 13 12 12 12 13 14 14 14 13 13 12 12 13 13 13 14 16 18 19 20 19 18 18 18 17 17 18 21 23 25 25 24 24 23 22 20 21 23 25 24
16 15 13 13 12 13 13 13 14 14 13 12 13 14 15 14 15 15 16 18 20 20 19 18 19 19 18 19 19 19 20 23 25 24 24 25 23 19 20 24 25 24
16 14 13 13 13 13 13 12 13 14 13 14 16 17 16 15 15 15 15 15 17 18 19 20 20 19 19 19 18 18 18 21 23 24 25 26 23 18 19 24 27 24
15 14 14 14 13 13 12 13 14 15 15 16 18 17 15 14 14 14 14 14 14 16 19 19 18 18 19 19 18 17 17 18 21 24 25 26 23 20 20 23 25 24
15 14 14 14 13 13 12 13 14 15 15 16 16 15 14 14 14 15 15 15 15 17 16 15 15 18 20 20 19 18 17 17 21 24 25 24 24 23 23 24 24 23

ECMWFNIL_850_spd_012.txt.gz
Wind_Speed
6 6 6 6 6 6 7 8 9 9 9 9 10 9 10 11 12 12 13 13 13 13 14 14 13 14 14 15 15 16 15 14 14 14 15 14 15 15 15 15 16 18
6 6 6 6 5 5 7 7 7 9 9 9 9 10 11 12 12 12 12 12 12 13 13 13 14 14 15 16 16 16 16 15 14 14 14 14 14 14 15 16 17 18
6 6 6 6 5 4 6 8 9 9 8 9 10 10 10 12 12 12 12 12 12 13 13 14 14 15 15 16 16 16 16 16 15 13 13 13 14 16 16 17 17 18
6 6 6 6 6 6 8 9 9 8 7 9 10 11 12 13 13 12 12 13 13 13 14 14 15 15 15 16 16 16 16 16 15 14 14 14 14 16 17 17 17 17
7 7 6 6 6 7 9 8 7 6 7 9 10 12 13 14 14 13 13 13 14 14 14 14 15 15 16 16 16 16 17 16 15 15 15 15 16 16 16 16 17 19
7 7 6 5 6 7 7 7 7 7 8 9 10 11 13 14 15 15 15 15 14 15 15 14 15 15 16 16 16 16 16 16 16 16 16 17 18 18 16 16 19 21
7 7 6 5 5 7 7 7 7 6 7 10 11 12 13 13 14 15 16 17 16 15 16 15 15 15 15 16 17 17 16 16 16 16 17 18 19 18 17 18 20 21
7 7 7 6 6 7 8 8 8 7 8 11 11 11 11 12 14 16 17 18 17 17 17 16 16 15 15 16 17 17 17 17 16 17 18 19 18 18 18 19 21 21
8 9 9 8 7 8 8 9 9 9 10 11 10 10 12 14 15 15 17 19 20 19 18 17 17 16 16 17 17 17 18 17 17 18 19 19 18 19 19 19 20 20
8 9 9 9 8 9 9 9 8 8 9 9 9 11 14 15 14 14 16 19 20 20 20 21 20 18 17 18 17 17 18 18 18 19 19 19 19 20 20 20 19 19
8 9 9 9 9 9 9 10 10 11 11 10 10 12 12 12 13 13 15 17 19 20 21 22 22 20 18 19 18 18 19 19 19 19 20 20 21 20 19 19 18 17
9 10 10 10 10 10 10 11 11 12 11 10 11 12 12 14 15 15 15 17 18 19 21 21 22 22 19 19 19 19 20 19 18 18 19 20 20 19 19 19 18 16
11 11 11 11 11 11 11 12 11 11 11 13 15 16 16 17 16 14 15 17 18 19 20 21 22 22 20 18 20 20 20 19 18 18 19 20 20 20 20 20 19 17
13 13 12 12 12 12 12 12 12 13 14 15 14 13 14 14 13 14 17 19 19 19 19 20 21 21 19 19 20 21 19 18 17 18 20 21 22 22 21 21 21 19
14 14 14 13 13 12 13 13 12 13 14 14 13 12 12 13 14 16 18 19 18 18 18 18 19 19 18 18 19 18 17 17 17 18 20 21 22 23 22 21 21 20
13 13 13 12 12 12 12 12 12 13 13 13 14 14 13 14 15 16 17 17 17 17 16 17 20 21 19 18 17 16 16 16 16 18 18 19 21 23 23 22 21 21
12 12 12 11 11 11 11 11 12 13 12 13 15 15 14 14 14 15 16 16 16 16 15 17 20 20 19 19 18 16 15 15 16 18 18 19 20 21 22 22 22 23
12 13 13 12 11 10 10 11 11 12 12 14 16 15 14 14 14 15 16 16 16 15 17 19 20 19 19 19 19 17 16 15 16 18 19 20 21 21 21 22 23 24
14 15 15 14 12 11 11 10 11 12 13 15 16 15 15 15 15 16 16 15 15 17 18 19 20 20 20 19 19 19 18 16 16 18 19 21 21 20 20 21 23 24
15 16 17 16 14 13 12 11 11 12 13 15 16 15 15 15 15 17 16 16 17 19 20 20 21 21 21 20 19 19 19 18 17 18 19 20 20 20 20 21 23 24
17 17 17 17 16 15 14 13 12 12 14 16 16 16 16 15 17 18 18 18 20 20 20 21 21 21 21 21 20 20 20 20 21 21 21 20 20 20 20 21 24 24
19 19 19 19 18 17 15 14 14 14 16 16 16 18 18 17 18 19 19 19 20 19 19 20 20 19 19 20 21 21 20 21 22 23 22 20 20 20 19 20 22 23
21 21 20 19 19 17 15 15 15 16 17 18 18 19 19 18 19 19 18 19 19 19 19 19 19 19 20 21 20 19 19 19 20 21 21 21 20 20 18 19 21 21
21 21 20 19 18 17 16 15 15 16 17 18 20 20 20 19 19 20 20 20 20 20 19 20 20 21 21 21 18 17 18 19 19 19 20 21 20 19 18 18 19 21
20 19 19 19 18 17 16 16 15 16 17 18 20 21 21 21 22 22 22 20 20 20 20 21 21 19 19 19 18 18 19 19 17 18 19 20 20 19 18 18 20 20
19 19 19 19 19 18 17 17 16 17 17 18 19 21 23 24 23 23 22 22 22 22 21 22 20 17 18 19 19 19 19 18 17 17 18 19 19 18 19 20 20 20

ECMWFNIL_850_spd_015.txt.gz
Wind_Speed
1 2 3 3 3 3 4 4 5 6 6 6 6 6 5 6 7 7 7 7 7 8 9 9 9 10 10 11 11 10 10 10 10 9 9 9 8 8 8 9 10 10
2 2 2 3 3 3 3 3 4 5 6 6 5 4 5 6 6 7 7 8 8 8 9 10 10 10 10 11 11 11 11 11 11 11 10 9 8 9 10 10 11 11
2 2 2 2 3 3 3 3 5 6 6 6 4 4 6 7 8 9 8 8 8 9 10 10 10 10 10 10 11 11 11 11 12 11 11 10 9 10 10 11 12 11
3 2 2 2 3 3 3 5 6 7 7 6 5 6 8 10 10 8 8 8 9 9 10 10 10 10 10 11 11 12 11 12 12 11 12 11 10 10 10 11 11 11
3 3 3 2 3 3 4 5 6 7 6 4 5 6 8 10 9 8 9 9 9 9 10 10 10 10 10 11 11 12 12 12 12 12 12 11 10 11 11 11 10 11
3 3 3 3 4 4 4 5 5 5 3 3 4 5 7 8 9 10 13 12 10 9 10 10 11 11 11 11 12 12 12 12 12 12 12 12 11 12 12 12 12 12
3 3 4 5 5 4 4 5 4 3 1 3 5 6 7 8 10 12 14 14 12 13 13 13 13 12 12 12 12 13 13 13 13 12 12 12 12 12 12 13 14 14
4 4 5 6 5 5 4 3 3 2 1 3 6 7 8 10 11 12 13 13 13 14 15 16 17 16 15 15 14 14 14 15 15 14 13 14 14 13 13 14 15 15
5 6 7 7 6 5 4 2 1 2 0 4 7 9 11 11 11 12 13 13 13 14 15 17 18 19 19 18 16 15 15 16 16 15 15 15 16 15 14 13 14 16
6 6 7 7 6 4 3 3 2 1 2 6 8 9 9 9 10 12 12 12 12 13 14 16 18 19 20 21 19 16 15 16 16 17 16 16 16 16 15 14 15 17
6 7 6 6 6 5 4 4 4 5 6 8 9 10 10 11 13 15 14 13 13 13 14 15 16 18 19 21 20 16 14 15 16 17 17 16 16 16 15 15 16 18
7 7 6 6 6 5 4 4 5 8 10 11 13 14 14 15 17 18 17 16 15 15 15 16 17 18 20 22 20 15 14 15 15 16 16 15 15 16 16 17 17 19
7 5 5 7 7 5 3 4 5 7 9 10 12 13 15 17 19 18 17 16 15 16 17 17 18 19 20 19 17 15 16 16 15 15 15 15 15 16 17 17 18 19
8 5 5 8 8 5 3 4 7 8 8 9 11 11 13 16 16 15 15 14 15 16 15 14 15 17 17 16 15 16 17 16 15 15 16 16 16 16 16 18 19 19
11 8 7 9 8 6 4 6 8 8 8 8 8 10 11 12 12 13 13 14 15 14 13 14 16 17 16 15 15 16 16 16 16 16 17 18 16 15 16 17 19 20
15 13 11 10 9 6 5 6 7 7 6 6 7 9 10 11 11 13 14 14 14 14 14 15 17 16 15 15 16 17 17 17 18 17 17 17 16 15 17 17 18 18
18 17 14 12 10 8 7 7 6 6 6 7 8 9 9 10 12 13 14 14 14 15 16 16 16 16 16 16 17 18 18 18 18 18 18 18 17 17 17 18 18 17
19 20 16 13 11 10 10 8 7 8 8 9 11 11 11 11 12 13 15 15 15 16 17 17 17 16 17 18 18 19 20 19 19 19 19 20 21 20 19 19 18 18
20 21 16 13 12 12 12 11 11 11 11 11 12 12 13 14 14 15 16 16 16 17 18 18 19 19 19 20 20 20 19 18 18 19 21 22 23 22 21 20 19 18
23 21 16 13 13 14 15 15 15 14 13 13 13 14 15 16 17 18 18 17 17 18 19 20 20 20 20 20 19 18 18 18 19 19 20 22 23 23 23 21 20 19
26 22 17 15 15 16 17 18 18 17 16 14 14 14 15 17 19 19 18 18 18 19 20 21 21 21 21 21 19 19 19 19 19 18 19 21 22 22 21 20 20 20
28 23 19 18 18 19 20 20 21 20 18 17 16 15 15 17 19 20 19 19 19 19 19 20 20 21 21 20 19 19 20 20 19 19 20 21 21 20 18 18 19 19
29 26 22 20 20 21 22 23 22 21 19 18 16 16 16 18 20 21 19 18 17 16 17 18 19 20 20 19 18 19 20 20 20 20 22 22 21 18 17 17 18 18
29 27 24 22 23 24 25 24 23 22 20 18 17 17 18 18 20 21 19 16 15 17 19 21 22 22 21 21 22 20 20 20 20 21 21 20 18 17 17 17 17 16
29 27 25 25 26 26 26 25 24 22 20 18 17 17 16 17 20 22 20 18 18 21 23 23 24 24 23 23 22 21 20 20 19 20 19 18 17 17 17 16 16 16
29 27 26 26 26 26 25 25 24 22 19 18 17 16 16 18 22 23 22 21 21 22 23 24 26 27 25 23 20 19 20 20 19 19 17 16 16 17 17 16 16 16

ECMWFNIL_850_spd_018.txt.gz
Wind_Speed
12 11 11 10 9 9 8 8 8 7 6 6 6 6 7 7 7 7 6 6 5 4 5 5 5 5 4 4 4 3 3 3 4 5 5 5 4 4 4 5 5 6
13 12 10 10 9 9 8 8 7 6 6 5 5 5 6 6 5 4 4 4 4 5 5 5 5 5 5 5 5 4 4 4 5 5 6 5 5 5 5 6 7 7
14 12 10 9 9 8 8 8 7 6 5 4 5 5 5 4 3 3 4 4 5 6 7 7 7 6 6 6 6 6 6 6 6 6 7 6 6 7 7 7 8 9
14 12 10 9 8 8 8 8 8 7 5 4 4 3 2 1 1 1 2 4 5 6 7 8 8 8 8 8 8 8 7 7 7 7 8 8 8 8 8 9 9 9
13 12 11 10 9 9 8 8 7 6 4 4 4 3 2 1 1 2 1 3 2 3 4 5 6 7 7 9 10 10 9 9 8 9 10 9 9 9 10 11 10 10
14 12 12 11 10 9 8 7 6 5 5 5 5 4 3 2 1 1 3 4 3 3 5 6 7 7 8 9 10 10 11 11 11 11 11 11 11 11 12 13 12 11
15 13 12 12 11 9 8 7 6 6 7 7 6 4 2 1 1 2 3 4 5 6 7 8 8 9 10 11 11 11 12 12 13 13 13 13 12 13 14 15 14 14
15 14 13 13 12 10 9 8 7 7 8 8 6 5 4 4 4 4 4 5 6 8 10 10 10 10 11 12 13 13 14 14 14 14 15 14 14 15 16 17 16 16
16 15 14 14 13 11 10 9 8 7 9 9 6 5 5 6 7 7 7 7 8 10 12 13 14 13 13 14 15 15 15 16 15 15 16 16 16 16 17 17 16 16
18 16 15 14 13 12 11 9 8 8 9 9 7 7 7 8 9 9 9 10 11 13 15 17 17 16 15 15 16 16 17 18 17 16 16 16 16 17 17 16 16 16
19 17 15 14 13 12 11 10 9 9 9 9 9 8 8 10 11 11 11 12 13 15 17 18 19 18 17 17 17 18 19 20 19 18 17 17 16 16 16 16 16 17
19 17 14 13 13 12 12 10 8 7 9 9 9 9 11 13 13 13 13 14 15 17 18 18 18 18 19 20 20 19 20 19 18 18 18 18 17 17 16 16 16 17
19 16 13 12 12 12 10 8 6 6 8 9 10 11 13 15 14 14 15 16 17 17 17 17 17 17 18 18 17 17 17 17 17 18 19 19 19 18 16 16 16 16
18 15 12 10 11 11 9 7 6 6 7 9 10 11 13 14 13 14 15 15 15 15 15 15 16 15 15 14 14 15 15 16 17 18 19 19 19 19 17 17 17 16
17 15 11 10 12 11 9 8 7 6 7 9 10 11 11 12 12 13 13 13 13 13 13 13 13 13 12 12 13 14 14 16 17 18 19 19 19 19 19 18 18 18
18 15 10 11 12 9 8 11 9 8 9 10 10 11 11 12 13 13 13 12 11 11 11 12 12 12 11 12 12 13 15 17 19 20 20 20 20 20 20 21 21 20
20 15 10 10 9 6 10 14 12 9 11 11 12 12 12 13 13 13 13 12 11 11 11 12 13 13 14 14 15 16 17 19 21 21 20 19 19 20 21 22 23 22
19 13 9 8 8 11 15 17 14 12 13 13 13 13 13 14 14 13 13 12 11 12 13 14 15 16 17 18 18 18 19 20 20 20 19 18 18 20 21 23 24 23
18 13 9 8 12 17 19 19 16 15 15 15 15 14 14 15 15 14 14 13 13 15 16 17 17 18 19 19 19 19 19 20 19 18 17 18 19 20 21 22 22 23
18 14 11 12 15 19 21 21 19 17 18 18 17 16 16 16 15 14 15 15 16 18 18 18 18 20 21 21 21 20 20 20 20 19 19 19 19 20 21 21 21 21
23 20 18 18 20 22 22 22 21 20 21 21 20 18 17 15 15 15 16 17 18 19 20 20 19 21 23 23 23 22 22 22 22 21 20 20 19 20 22 22 20 19
28 25 22 21 23 25 24 23 23 23 24 23 22 19 16 15 15 17 17 18 19 21 22 23 21 21 22 23 23 23 22 22 23 23 23 21 20 21 23 22 19 18
28 26 24 22 24 26 27 25 25 25 25 24 21 18 17 16 17 18 18 18 20 23 23 23 22 21 22 23 23 23 22 22 22 23 23 22 20 21 22 21 17 16
30 28 26 25 24 27 29 27 26 25 25 22 20 19 18 18 19 19 19 20 22 23 23 22 22 22 22 23 23 23 23 22 20 21 21 21 20 20 21 20 17 15
30 29 28 26 25 27 29 28 26 25 23 21 20 20 20 19 20 21 22 22 23 23 23 23 23 23 22 22 22 22 21 19 17 18 19 19 20 21 21 18 16 15
28 28 28 27 25 26 27 26 25 25 25 24 24 23 23 23 24 24 23 22 23 23 24 24 24 23 22 22 21 21 20 17 15 16 17 18 20 21 20 18 17 17

ECMWFNIL_850_spd_024.txt.gz
Wind_Speed
26 24 23 21 19 17 16 16 16 15 16 16 16 15 14 13 12 11 10 10 9 9 9 9 8 8 8 8 8 9 9 9 9 9 10 9 9 9 9 9 9 10
28 26 25 22 20 18 18 17 16 15 16 16 16 16 15 14 13 12 11 10 10 9 9 10 9 9 9 9 9 9 10 10 10 10 11 11 11 10 10 10 11 12
29 28 26 24 21 20 19 17 17 16 16 17 17 16 15 14 13 12 11 11 11 10 10 10 10 10 9 9 9 10 10 10 10 11 12 12 12 12 11 11 12 13
32 30 27 24 22 20 19 18 18 17 18 18 18 16 15 14 13 12 12 12 12 11 11 11 10 10 9 9 9 9 9 9 9 10 12 12 12 12 12 12 13 13
33 31 28 26 24 22 20 19 18 18 18 18 17 16 15 14 14 13 13 13 12 11 11 9 8 7 6 6 6 5 5 6 6 8 10 11 11 12 12 13 13 14
35 32 30 27 25 23 20 19 19 18 18 18 17 16 15 14 14 14 14 13 12 11 10 8 7 6 5 4 4 4 5 6 6 7 9 9 9 11 11 13 14 15
36 34 31 28 26 23 21 19 19 19 18 17 17 16 15 14 15 15 14 12 11 10 10 9 8 6 5 6 6 7 7 8 9 10 11 11 11 11 11 12 14 15
37 34 31 28 26 23 21 19 19 19 18 17 17 17 15 15 15 15 13 11 11 11 10 10 9 8 7 8 9 9 10 10 11 12 13 14 14 14 13 12 13 15
38 35 31 28 27 24 20 19 20 19 18 18 18 17 16 15 15 14 13 12 12 11 11 11 11 10 10 10 11 12 12 13 14 14 15 16 16 16 15 14 15 16
39 35 32 30 29 25 20 19 21 21 19 19 18 17 17 16 15 14 14 14 13 12 12 12 12 12 12 13 13 14 14 15 15 16 17 17 17 17 16 15 16 17
41 37 34 32 29 24 20 21 23 22 21 19 18 18 18 17 16 15 15 16 15 14 13 14 14 14 14 15 15 15 16 16 17 17 17 17 17 16 16 15 16 17
43 39 33 30 27 22 20 22 24 23 21 20 19 19 19 17 17 16 15 16 16 15 15 15 15 16 16 16 16 17 17 17 17 17 16 15 15 15 15 15 16 17
40 35 32 31 29 26 25 24 25 24 22 20 20 20 19 18 18 15 13 15 17 16 15 16 16 16 16 17 17 17 18 18 17 16 15 15 15 15 15 16 16 17
39 38 39 38 35 33 32 29 27 25 23 21 21 20 19 19 18 16 14 16 18 18 17 17 17 17 17 17 17 17 17 17 17 16 16 16 16 16 17 18 18 19
46 46 46 42 37 36 35 32 29 27 24 23 22 21 18 17 18 18 18 20 20 20 19 18 18 18 17 17 17 16 16 16 16 16 16 17 17 18 18 19 19 19
49 48 48 43 40 38 35 34 32 28 26 25 24 23 18 15 19 22 22 22 22 21 20 19 18 19 18 17 16 16 15 16 16 16 16 17 17 18 18 19 19 19
47 47 46 40 37 35 35 35 33 29 27 26 26 24 18 16 22 27 25 24 23 23 21 19 19 19 18 17 16 16 15 16 16 17 17 17 18 18 19 19 20 21
46 47 45 38 34 33 34 34 32 29 27 28 27 21 16 18 25 28 26 24 23 23 21 19 19 19 19 18 17 15 15 17 18 19 19 20 20 20 20 21 21 21
45 47 45 37 32 32 32 31 32 30 28 29 26 19 18 23 27 27 25 24 23 23 21 20 20 20 19 19 16 14 14 17 18 19 20 21 22 22 23 23 22 22
43 45 42 34 31 32 32 31 30 28 27 28 26 22 24 29 29 27 26 24 23 23 21 20 20 20 20 19 16 14 15 16 17 16 17 19 21 22 23 23 22 22
42 43 38 32 30 33 34 32 30 27 26 27 26 27 30 31 28 27 26 24 23 23 21 21 21 21 20 18 16 16 17 18 17 16 17 18 20 21 22 21 21 22
42 41 35 31 31 36 38 35 32 30 29 27 27 29 31 29 27 27 26 24 23 22 21 22 21 20 19 18 18 18 19 19 18 18 18 20 21 21 20 19 20 21
41 39 33 30 34 40 41 39 37 35 33 29 28 29 30 30 28 27 25 24 23 23 23 22 21 20 19 19 19 21 21 20 20 19 19 21 22 20 19 19 19 19
39 36 30 28 35 42 43 43 42 39 36 33 29 27 28 29 28 26 25 24 24 24 23 23 22 21 20 21 21 21 22 21 20 20 21 22 21 19 18 19 18 18
37 33 27 27 34 42 44 43 42 39 35 31 26 24 25 26 25 25 24 23 24 24 24 23 23 22 21 21 22 21 21 20 21 21 22 21 19 18 18 18 17 17
33 30 26 25 33 42 42 39 38 37 33 25 19 19 21 22 24 25 24 23 23 23 23 24 24 24 23 23 23 22 21 20 21 21 20 19 18 18 18 17 16 17

ECMWFNIL_850_spd_030.txt.gz
Wind_Speed
28 28 27 28 28 25 22 18 15 16 19 19 17 16 15 14 13 13 13 10 8 7 8 9 10 9 6 5 5 5 4 4 5 5 5 5 5 5 6 6 7 7
29 29 29 28 28 27 25 23 19 19 21 20 17 16 16 14 13 13 13 10 9 8 9 10 11 10 9 7 6 5 5 5 5 6 6 6 6 6 6 7 8 9
30 30 30 29 29 29 28 26 24 22 21 19 17 16 15 14 14 13 13 11 9 9 10 11 11 12 11 10 8 6 6 6 5 6 7 7 7 7 7 8 9 9
32 31 31 30 30 30 29 27 26 24 21 18 16 15 15 15 14 14 12 11 10 9 10 11 12 13 12 12 9 7 6 7 7 8 8 8 8 8 8 8 9 9
33 32 32 31 31 31 30 28 26 24 21 18 17 17 16 15 14 13 12 11 10 10 11 12 13 13 13 12 10 8 8 7 8 9 8 7 7 7 7 7 8 9
34 33 33 33 32 31 31 28 26 25 23 20 19 18 17 14 13 13 12 11 10 10 11 12 13 13 13 12 10 10 9 8 8 8 7 6 7 7 8 8 8 10
34 34 34 33 32 31 30 29 27 26 25 23 21 20 18 16 14 13 12 11 10 10 11 12 13 14 14 13 12 11 11 10 9 8 7 7 8 8 9 9 9 10
35 35 35 33 33 31 30 30 30 28 26 25 22 21 20 18 15 14 13 12 11 11 11 11 13 15 15 15 15 14 13 12 10 9 9 9 9 10 10 10 11 12
37 37 36 35 34 32 29 31 32 29 28 26 24 23 22 20 18 15 14 14 14 14 14 13 14 17 17 17 17 16 14 12 10 10 10 11 11 11 11 12 13 14
39 38 38 36 32 28 30 34 34 32 31 28 27 27 26 24 21 19 18 17 16 17 16 14 14 17 19 19 19 17 15 13 11 11 11 11 13 13 14 14 15 16
40 39 39 37 33 31 34 36 35 35 34 32 30 30 29 27 25 24 23 21 18 18 17 15 15 18 20 21 20 18 15 13 13 12 12 13 14 14 14 15 16 17
41 41 41 39 37 37 38 37 37 38 37 35 34 33 32 29 28 26 25 23 20 18 17 16 15 19 21 21 20 18 16 14 14 15 14 14 15 15 15 16 16 17
41 41 42 39 37 39 40 39 40 41 39 38 36 35 34 32 30 28 25 23 22 20 19 18 18 20 22 22 21 19 18 17 17 17 16 15 16 16 16 16 17 17
41 41 42 38 33 36 41 40 41 42 40 39 37 37 37 35 32 28 25 24 23 22 22 22 21 22 23 23 22 20 19 18 17 16 16 16 17 17 17 17 17 16
35 40 42 36 31 34 41 42 43 44 42 39 39 40 40 37 33 28 26 25 25 24 24 24 22 23 24 24 23 22 19 17 16 16 16 17 18 18 18 18 17 17
28 35 39 37 32 33 40 43 44 46 45 41 40 41 41 38 33 30 29 29 30 29 27 26 25 25 25 25 25 23 19 16 16 17 17 18 18 19 18 17 17 18
27 33 35 36 33 31 37 42 44 45 45 44 42 42 41 38 35 33 32 31 32 31 29 28 27 26 25 25 26 23 19 17 17 18 18 18 19 19 18 17 17 18
28 31 31 33 32 30 35 39 41 43 44 44 44 43 42 40 37 36 34 32 31 31 31 30 28 26 26 27 27 23 19 17 18 18 18 18 18 18 18 17 17 17
26 30 29 30 30 30 32 34 36 40 43 44 44 44 44 41 39 38 36 31 30 32 31 29 27 28 29 29 28 24 19 18 18 18 18 18 18 18 18 18 18 19
26 30 27 28 28 28 29 31 32 37 41 43 45 46 45 42 39 39 35 31 31 32 31 28 28 30 30 30 29 25 19 19 19 19 19 20 20 20 20 20 20 21
26 26 24 24 25 25 28 29 29 33 39 43 46 47 45 43 41 39 35 31 30 32 31 28 28 29 28 28 29 24 20 19 20 20 21 22 22 23 23 23 24 25
22 22 21 21 21 22 26 26 24 28 35 42 47 48 47 46 44 40 36 33 31 33 33 30 30 30 27 25 25 23 21 21 22 21 22 23 23 24 24 25 27 27
20 19 19 20 20 21 23 21 21 26 32 38 45 48 48 47 41 36 36 34 33 34 34 33 33 31 26 21 20 21 22 23 23 23 23 23 24 25 26 27 27 27
17 17 16 17 18 19 19 18 19 24 29 34 40 46 48 44 36 34 35 34 32 33 35 35 33 28 23 18 18 21 23 23 24 24 23 23 24 26 27 27 27 26
14 15 15 15 16 16 17 16 18 22 27 30 37 44 45 39 32 32 35 33 31 32 34 34 29 23 21 21 20 22 23 23 24 24 23 24 25 26 27 26 25 24
12 13 13 14 14 14 14 16 19 23 26 29 35 39 38 32 27 28 30 30 29 30 32 32 25 21 23 25 23 23 23 24 24 24 24 24 24 25 25 22 20 20

ECMWFNIL_850_spd_033.txt.gz
Wind_Speed
28 27 27 26 25 24 23 22 19 16 15 15 14 14 13 13 13 13 13 12 9 8 9 9 8 9 8 6 6 6 6 6 6 6 5 5 4 5 5 5 5 5
30 29 28 27 26 25 24 23 21 19 17 16 16 15 13 13 14 14 13 13 10 9 9 9 8 9 8 7 6 6 6 6 6 6 6 6 6 6 6 6 6 7
32 32 30 29 27 26 25 24 23 22 19 17 17 16 15 15 15 14 14 13 11 10 9 9 9 9 9 9 8 6 5 6 6 6 6 6 7 7 6 6 6 7
34 33 32 30 28 27 26 25 25 24 22 20 19 17 17 16 16 16 15 13 12 11 10 10 10 10 10 10 10 9 7 7 8 8 8 8 8 8 7 7 7 7
34 34 33 32 30 28 28 27 27 26 25 23 22 20 20 20 18 17 16 14 13 13 13 12 10 11 12 12 11 10 9 9 9 9 9 9 9 8 7 8 8 7
35 35 34 33 32 31 30 29 28 28 26 25 25 25 24 23 20 18 17 16 14 15 16 14 12 12 13 14 13 11 11 10 9 9 10 10 9 8 8 8 8 8
36 36 35 34 34 33 33 32 31 30 27 26 27 28 28 25 22 21 20 18 17 18 18 15 13 14 14 15 15 13 12 11 11 12 12 11 11 10 10 10 10 9
37 36 36 35 35 35 35 34 33 32 30 28 27 28 30 28 25 24 23 21 21 21 19 15 15 15 15 15 15 14 12 11 13 15 14 13 12 12 12 12 11 9
38 38 37 36 36 37 37 36 35 34 34 30 25 27 31 30 28 27 25 24 24 22 20 18 18 18 17 16 15 14 13 13 14 14 14 14 14 13 13 12 11 10
40 39 39 39 39 39 38 37 36 34 35 32 26 27 33 33 30 29 28 27 26 24 22 20 20 20 18 16 15 14 14 15 15 14 15 15 15 14 13 12 13 13
40 40 41 41 41 40 39 37 34 32 34 35 31 31 35 35 33 32 31 30 28 25 23 21 21 20 18 17 16 15 15 16 15 15 17 17 15 14 14 13 14 14
40 41 42 42 42 41 39 37 34 31 32 32 32 34 38 37 36 35 33 32 29 26 24 23 22 21 20 18 16 17 18 17 16 18 18 17 16 15 15 15 16 15
41 41 42 42 42 41 39 38 35 33 31 29 26 30 37 39 38 37 36 34 31 28 26 25 22 22 23 20 16 19 20 18 18 20 20 18 17 16 15 16 17 15
40 40 41 41 41 40 40 40 39 35 33 30 27 28 35 39 39 38 37 35 31 28 27 26 24 24 26 23 18 20 22 20 19 21 21 20 18 17 15 16 17 16
38 39 40 40 40 40 40 40 41 39 34 31 29 30 34 37 38 38 38 36 32 29 27 28 27 28 29 24 19 21 23 22 21 21 22 21 18 16 15 16 17 16
38 38 38 38 38 39 41 41 41 40 35 32 31 31 34 35 36 38 39 37 34 30 28 29 30 31 31 24 19 22 25 23 22 21 21 19 16 15 16 17 18 17
37 36 36 36 35 34 36 39 41 38 33 31 31 32 34 35 36 40 40 38 36 31 29 32 34 34 31 24 20 24 26 25 23 21 20 19 16 17 18 18 17 17
36 35 35 35 33 29 25 29 37 36 30 31 33 33 33 36 39 42 41 38 35 32 32 35 37 35 30 24 23 25 26 25 22 20 21 20 18 18 18 18 17 17
31 30 32 31 32 30 21 19 26 29 27 30 33 31 34 40 43 43 40 37 35 34 34 36 37 34 28 25 26 26 25 24 22 21 22 21 19 17 17 17 17 18
25 23 24 24 27 26 20 17 19 21 24 28 29 30 34 38 42 42 39 37 35 35 36 37 36 31 25 25 28 27 25 24 22 22 23 22 19 17 17 17 16 17
24 22 21 20 21 21 19 17 17 18 22 23 25 30 32 32 37 40 38 36 36 36 36 35 33 28 23 25 29 29 28 26 23 24 24 23 21 19 18 19 19 20
25 22 18 17 17 17 17 17 16 19 23 22 23 29 30 28 33 39 39 38 37 36 35 34 31 27 24 26 28 28 28 26 25 26 25 24 23 21 20 20 21 23
25 21 17 15 16 17 18 17 17 19 21 21 22 26 29 27 26 33 40 40 38 38 37 32 28 26 25 26 27 27 26 23 25 27 27 25 25 23 21 21 23 25
23 21 16 14 15 17 17 15 16 17 19 20 21 23 25 23 20 27 37 38 36 37 36 30 25 25 25 25 26 27 24 21 23 26 27 26 25 23 22 22 25 25
21 20 16 14 14 15 16 15 16 17 18 20 20 20 21 20 20 27 36 37 35 35 34 31 26 25 26 27 27 27 23 21 22 25 27 27 24 21 21 24 26 25
20 19 17 15 14 15 16 17 17 18 19 19 20 21 23 23 25 30 35 38 37 35 33 30 26 25 26 27 26 25 22 21 24 25 26 26 23 20 19 21 23 22

ECMWFNIL_850_spd_036.txt.gz
Wind_Speed
31 30 29 28 27 25 24 24 23 23 22 21 20 20 20 19 18 16 17 16 13 12 12 11 10 13 15 17 20 19 13 12 12 9 9 10 8 7 7 7 6 8
31 30 30 29 28 27 26 25 25 25 23 21 20 20 19 19 19 19 19 18 14 12 12 11 11 13 15 15 17 18 15 15 16 13 11 11 10 9 10 8 6 7
32 31 31 30 30 29 28 27 26 25 23 22 21 20 19 19 19 20 20 19 17 13 12 11 11 13 15 14 13 14 15 15 16 14 11 10 11 11 10 8 6 6
34 33 32 31 30 30 29 29 28 27 25 24 23 22 21 20 20 20 20 20 18 15 13 12 12 13 14 16 15 12 13 13 13 14 12 10 11 10 9 9 10 9
35 34 33 32 31 30 30 31 30 29 28 26 25 25 24 23 22 22 21 21 19 17 15 13 13 14 14 17 17 14 12 12 13 13 12 11 11 10 7 8 10 11
37 36 35 33 32 31 31 31 31 30 30 29 27 27 26 25 24 24 23 22 20 18 16 15 15 16 15 15 18 17 15 14 14 14 13 12 11 10 8 8 9 10
39 38 37 35 34 33 32 32 31 31 31 30 29 29 28 27 27 27 25 24 22 20 18 17 17 18 17 15 17 18 17 16 16 15 14 13 12 11 10 10 10 10
40 39 38 37 36 34 33 32 32 32 32 31 31 31 30 30 30 29 28 27 25 22 20 20 20 20 19 17 17 18 17 17 17 16 16 14 13 13 13 12 12 13
41 40 39 38 38 36 35 34 33 33 33 33 32 32 32 32 32 32 31 30 28 26 24 23 22 22 21 19 18 17 16 17 18 18 19 17 14 14 14 13 14 15
41 41 40 39 39 38 37 36 36 35 34 34 33 33 33 34 34 33 32 32 31 30 28 27 25 24 23 21 18 15 15 17 19 20 21 19 15 14 15 14 15 15
42 42 41 40 40 39 38 38 37 36 35 35 35 35 34 35 35 35 34 34 34 33 32 31 28 26 25 23 20 17 15 17 20 21 21 20 17 16 16 16 15 15
44 43 42 41 40 39 39 38 37 36 34 32 33 36 36 35 36 36 35 36 36 36 35 34 30 29 28 25 22 20 17 17 20 22 20 20 19 18 18 17 15 15
44 44 43 42 41 40 39 37 36 36 33 30 30 33 35 36 37 36 35 35 36 38 38 36 33 31 29 26 24 21 18 18 22 23 22 22 21 20 19 18 16 15
44 43 42 42 41 40 39 38 36 36 34 32 31 31 31 34 36 37 35 34 36 39 40 38 35 33 30 27 24 21 20 21 22 24 24 24 23 22 21 19 17 16
42 42 41 41 40 40 40 39 38 36 34 34 34 32 31 31 33 35 35 34 35 39 41 40 37 34 32 29 24 23 24 23 23 24 26 26 25 24 21 19 18 17
41 41 40 40 40 40 40 40 39 37 35 35 36 35 33 31 31 34 36 35 36 39 41 41 39 36 34 31 26 25 26 26 24 25 27 27 26 24 21 19 19 18
40 40 39 40 40 40 40 40 39 37 36 35 36 35 34 32 33 36 37 37 37 38 39 40 40 38 36 34 27 24 27 27 25 26 29 28 26 23 21 20 20 18
40 39 39 39 39 39 39 38 37 36 35 35 34 34 34 34 35 37 39 38 37 36 35 37 40 39 38 35 27 23 27 29 27 29 30 28 25 23 23 22 21 18
39 39 38 38 37 37 36 35 35 36 35 34 33 33 34 36 37 38 40 40 38 35 32 33 37 40 39 35 27 23 28 31 30 30 30 27 25 23 23 23 21 19
38 38 37 36 35 34 33 33 34 34 34 32 31 32 34 36 37 38 38 40 40 37 32 32 36 40 40 36 28 24 30 33 31 31 30 27 24 21 21 22 21 19
38 37 35 33 32 30 30 32 33 32 31 27 26 29 33 35 37 38 38 39 39 37 35 34 36 39 41 38 29 27 32 34 32 30 29 28 24 20 19 20 21 19
37 36 34 32 29 27 27 30 31 30 27 25 26 29 32 33 35 38 39 38 38 37 36 35 36 39 42 39 30 28 33 35 32 30 28 28 26 21 18 21 22 21
35 33 31 30 28 26 24 25 28 27 25 25 27 29 29 31 34 36 38 38 38 37 35 35 36 39 41 37 29 29 34 34 32 30 30 30 28 22 19 22 23 23
31 29 29 28 26 24 21 21 23 24 22 24 26 26 26 28 32 34 36 37 36 34 34 35 37 38 38 34 29 31 33 33 31 31 31 32 29 24 22 23 23 24
27 26 27 27 24 21 19 19 20 20 20 21 24 24 24 25 29 31 32 33 31 29 32 35 37 38 37 32 30 31 32 32 32 32 31 30 27 25 25 25 25 25
26 25 25 24 22 19 18 19 19 19 19 20 21 22 23 24 25 26 28 28 27 27 31 35 36 38 35 30 29 31 31 31 31 30 29 27 25 25 26 25 25 25

ECMWFNIL_850_spd_039.txt.gz
Wind_Speed
33 33 33 32 32 31 30 29 28 28 28 27 25 24 23 21 20 20 20 20 18 17 15 12 12 14 15 16 15 14 11 9 10 12 12 13 14 14 15 15 15 14
34 33 34 34 34 33 32 31 30 29 28 26 25 24 23 22 22 22 21 21 20 17 15 13 13 15 17 17 16 14 13 11 11 12 12 13 14 14 14 14 14 14
35 34 35 35 35 34 33 33 32 30 28 26 25 24 24 24 24 23 22 23 21 19 17 14 14 16 17 18 17 16 15 14 13 12 12 12 14 14 14 14 13 12
37 35 36 36 36 35 33 33 33 31 29 27 26 25 25 25 24 24 23 24 22 20 18 15 15 16 17 18 19 18 17 16 15 14 13 13 14 15 15 15 14 12
38 36 37 37 36 35 34 34 34 33 30 29 28 27 26 26 25 25 25 24 22 20 18 16 16 18 18 18 19 19 18 18 18 17 15 14 15 16 16 16 16 15
40 38 37 37 37 36 36 36 35 34 32 30 29 29 28 28 27 26 26 24 22 20 19 17 18 19 19 18 18 18 18 19 19 18 17 15 14 16 17 17 18 18
42 40 39 38 37 36 36 36 36 35 34 32 31 31 30 30 29 28 27 25 23 22 20 19 19 20 20 20 19 18 18 19 19 18 17 15 13 15 17 17 18 20
43 41 39 39 38 37 36 36 36 36 35 34 34 33 32 32 31 30 28 27 25 24 22 20 21 21 22 22 21 19 19 20 19 17 16 15 14 15 17 19 19 19
44 42 41 40 39 39 38 37 37 37 36 36 35 35 34 34 33 32 31 29 28 27 25 23 24 24 24 24 23 21 20 20 19 16 15 16 15 14 17 20 20 17
46 43 42 42 41 40 39 38 37 37 37 37 37 36 36 36 35 34 33 32 31 30 29 27 27 27 26 26 25 24 21 20 19 16 16 17 17 16 17 19 20 18
47 45 44 43 42 42 41 39 38 37 38 38 38 38 38 37 37 36 36 35 35 34 32 31 30 30 29 28 27 25 22 21 20 17 16 17 18 18 18 19 20 20
48 47 46 45 44 43 42 41 39 39 39 39 39 39 39 38 38 38 38 38 37 36 35 34 32 32 31 29 26 24 23 23 22 20 18 19 20 20 20 20 21 21
50 49 47 46 45 44 43 42 41 41 40 40 40 39 39 39 40 40 40 39 38 38 37 36 34 33 32 30 27 25 26 26 25 23 21 22 22 22 22 22 22 22
51 49 48 47 45 45 44 43 43 42 42 41 40 40 40 40 40 40 39 39 39 38 38 37 36 35 34 33 32 30 28 27 27 26 24 24 25 25 24 23 23 23
51 50 49 47 46 45 45 44 44 44 43 43 42 42 41 40 40 39 39 39 39 39 38 38 38 37 37 37 36 33 29 29 30 28 25 25 26 27 27 26 24 23
50 50 49 48 47 47 45 45 45 45 45 44 44 42 41 40 39 39 39 39 39 39 39 40 40 39 39 39 37 34 32 31 31 29 26 27 29 29 29 27 25 24
49 50 50 49 48 47 46 46 45 45 45 44 44 42 40 39 39 39 39 39 39 39 39 41 42 41 40 38 35 34 34 32 32 30 28 29 31 31 29 27 25 24
50 49 50 50 49 48 47 46 46 45 44 43 43 42 40 38 38 38 38 38 37 38 39 41 42 42 40 36 32 32 35 34 32 31 30 31 33 32 29 27 25 23
50 49 49 49 49 49 47 46 46 45 44 43 43 41 40 39 39 38 38 38 38 38 39 40 42 42 39 33 29 30 34 36 33 31 31 33 34 32 30 29 25 22
50 50 49 48 48 48 48 47 46 45 44 44 42 41 40 40 40 40 40 40 40 40 40 40 42 42 38 32 27 27 31 36 35 31 30 33 35 33 31 29 26 22
51 50 49 48 47 47 47 46 45 44 44 44 43 42 42 41 40 41 41 41 41 41 41 42 42 41 37 32 28 27 29 34 36 31 29 32 36 35 32 29 26 22
52 50 48 47 46 46 46 45 45 44 44 43 43 42 41 40 40 41 41 41 42 42 42 42 42 40 36 32 29 28 29 33 36 32 31 33 36 36 33 29 26 23
51 49 47 46 45 45 45 44 44 44 43 42 42 41 41 41 40 40 40 40 41 42 42 42 41 40 36 32 31 30 30 32 36 35 34 34 36 37 33 28 27 26
50 49 47 47 46 45 45 44 43 42 41 40 40 41 41 41 40 39 39 39 39 40 40 41 41 39 35 33 32 31 30 31 35 38 37 35 36 38 35 29 28 28
49 48 47 47 46 44 43 42 40 38 37 36 38 39 39 39 39 39 39 38 38 38 38 39 39 37 35 34 32 30 29 30 34 37 36 35 37 38 36 30 28 28
48 47 47 46 44 42 40 38 36 35 34 35 36 37 37 37 37 37 36 36 35 35 36 36 36 35 33 32 30 28 28 30 34 37 37 38 39 39 36 32 30 29

ECMWFNIL_850_spd_042.txt.gz
Wind_Speed
41 40 39 38 37 35 34 33 32 31 31 30 29 29 27 25 24 23 22 20 19 18 16 15 14 15 16 16 17 16 14 13 13 15 17 16 17 18 18 19 19 18
42 41 41 40 39 37 36 35 33 32 31 31 30 29 28 26 24 23 22 21 20 19 17 16 15 17 18 18 18 17 15 15 14 16 18 17 17 18 19 20 20 20
43 42 42 42 40 38 36 35 34 33 32 31 31 30 29 27 26 25 24 23 22 21 19 17 17 19 20 19 19 17 16 16 15 15 17 18 18 19 20 21 21 21
44 43 43 42 41 39 37 36 36 35 33 33 32 31 30 29 28 27 26 25 25 23 20 18 19 22 22 21 20 18 17 17 16 16 16 18 19 19 20 21 21 21
44 44 43 42 41 40 39 38 37 36 35 34 33 31 31 31 31 30 29 28 27 24 22 21 22 24 24 22 21 20 18 18 18 19 18 18 19 19 20 21 22 22
43 44 44 43 41 40 40 40 38 37 36 35 34 33 33 33 32 32 31 30 28 26 24 22 23 26 26 25 23 22 21 20 20 21 20 20 20 20 20 21 21 21
43 44 44 44 42 41 41 40 39 39 38 37 36 35 34 34 34 34 32 31 29 27 25 24 24 27 28 27 25 24 23 22 22 22 22 22 22 21 20 21 21 21
43 43 44 44 43 43 42 41 41 40 39 38 38 37 36 36 35 35 34 32 31 29 27 25 25 27 29 29 27 26 25 24 24 24 24 23 23 22 21 21 22 22
42 43 44 44 44 44 43 42 42 41 40 40 39 38 38 37 37 36 34 34 33 31 29 27 27 28 29 30 29 27 27 26 25 26 25 24 24 23 22 22 23 23
43 43 43 44 45 45 45 43 42 42 42 41 41 40 39 39 38 37 36 35 34 34 32 30 29 29 30 30 30 28 28 27 27 27 27 26 24 23 23 23 23 23
44 43 44 45 45 45 46 45 43 43 42 42 42 41 41 40 39 38 38 37 37 36 35 33 31 30 30 30 30 29 29 28 28 28 29 27 24 23 24 24 23 24
45 44 44 45 45 46 46 46 45 44 44 43 43 42 42 41 41 40 40 39 38 38 37 35 34 32 32 31 30 30 30 29 29 29 30 29 25 24 25 25 23 24
47 46 44 44 45 45 46 47 47 46 45 44 43 43 42 42 42 42 41 40 39 39 38 37 36 35 34 33 32 32 31 31 30 29 30 29 26 26 26 25 24 24
48 46 44 44 44 45 47 48 48 47 46 45 44 44 43 42 42 42 42 41 41 40 39 39 38 38 37 36 35 34 32 32 30 30 29 27 27 29 29 27 26 25
49 47 45 44 44 46 48 49 49 49 47 46 46 45 44 43 42 42 42 42 41 41 41 41 41 41 40 39 37 35 33 32 31 31 31 27 27 31 32 29 27 27
49 48 47 46 46 47 48 49 50 49 49 48 47 46 45 44 44 43 43 43 42 42 42 42 42 42 42 41 39 35 33 32 31 33 34 30 27 32 34 30 28 29
50 49 48 47 47 48 48 49 50 50 50 49 48 47 46 45 45 45 44 43 43 42 42 42 42 42 42 42 40 35 32 32 32 34 36 33 29 31 34 31 29 30
51 50 49 49 48 48 49 49 50 50 50 50 49 48 47 46 46 45 45 44 43 43 42 42 42 42 42 42 41 36 31 31 33 34 36 36 33 32 33 33 31 31
51 51 50 50 49 49 49 49 50 51 51 50 50 48 47 47 47 46 45 44 44 43 43 42 42 42 42 43 41 36 30 30 33 34 35 36 35 33 33 34 33 32
51 51 51 50 49 49 49 50 51 51 51 50 49 49 48 48 47 46 46 45 44 43 43 42 43 43 43 43 41 35 29 30 34 35 34 34 35 35 33 34 34 33
52 52 51 51 50 49 49 50 51 51 51 51 50 50 49 49 48 47 46 45 44 44 43 43 43 43 42 42 40 34 29 30 34 36 34 33 34 35 35 35 34 32
52 52 52 51 50 50 50 50 52 52 52 51 50 50 50 49 48 48 46 45 44 44 44 44 43 43 42 42 39 33 29 31 34 36 36 34 33 34 35 36 34 31
53 52 52 51 50 51 51 51 52 52 52 51 50 50 50 50 49 48 46 46 45 44 44 44 43 43 42 42 38 33 30 31 34 36 37 36 34 34 36 36 35 32
54 53 52 52 51 52 52 52 51 51 51 50 50 51 51 50 49 47 46 46 45 45 44 43 42 42 42 41 37 33 32 32 34 37 38 37 35 35 36 36 36 33
55 54 53 52 53 52 52 52 51 50 49 48 49 50 50 49 48 47 47 46 45 44 43 42 42 42 42 41 37 34 33 33 35 37 38 36 36 36 36 37 37 35
55 55 55 54 54 53 52 52 51 49 47 47 48 49 49 48 47 46 46 45 44 43 42 42 42 42 42 39 36 35 34 33 34 36 36 36 35 34 34 36 38 36

ECMWFNIL_850_spd_045.txt.gz
Wind_Speed
39 38 38 39 38 37 36 37 36 35 34 33 31 29 28 27 27 27 27 26 24 24 23 22 21 20 19 18 16 15 14 14 14 13 15 15 16 16 17 17 17 18
42 39 38 39 39 38 37 37 37 35 35 33 31 29 28 28 27 27 27 25 24 23 23 23 21 20 19 18 17 16 15 15 15 15 15 16 16 16 17 17 18 19
44 42 39 38 39 39 39 38 37 36 35 34 32 30 29 29 29 28 27 26 25 23 23 23 22 21 19 18 18 17 16 16 16 16 16 17 17 17 17 17 18 19
46 44 41 38 37 39 40 40 40 38 37 36 34 31 30 29 29 29 28 27 26 25 24 24 23 21 19 19 20 19 18 18 17 18 18 18 18 19 18 18 19 19
46 44 42 39 37 38 40 41 42 40 39 38 36 33 32 31 30 30 29 29 28 26 25 25 24 22 21 21 22 21 20 19 19 20 20 19 19 20 20 20 20 20
47 45 43 41 38 38 40 42 42 42 41 39 38 36 34 33 32 31 31 30 29 28 27 26 25 24 23 23 23 23 22 21 21 22 22 21 20 21 22 22 21 21
49 47 44 42 40 39 39 41 42 42 42 41 40 39 37 35 34 33 32 31 31 30 29 28 27 26 25 25 25 25 24 23 24 24 24 23 22 23 24 24 23 22
50 48 45 43 41 40 39 40 42 42 42 42 41 40 39 38 36 34 33 33 32 32 31 29 28 27 27 27 26 26 25 25 25 26 26 25 25 25 25 24 24 23
50 48 46 44 42 41 39 39 41 42 42 42 41 40 40 39 38 36 35 34 33 33 32 31 30 29 28 28 28 27 27 27 27 27 27 27 27 26 26 25 25 24
51 49 47 45 43 41 40 39 40 41 41 41 41 40 40 40 39 38 37 36 35 34 34 33 33 32 30 30 29 28 28 28 28 28 28 29 28 28 27 26 26 25
52 50 48 46 43 41 40 39 39 40 41 41 40 40 40 40 40 39 39 38 37 36 35 35 34 34 32 31 29 29 29 29 29 29 29 29 29 29 28 27 27 26
52 51 50 47 44 42 40 38 38 39 40 41 41 40 40 40 40 40 40 39 39 38 37 36 36 35 34 32 31 30 30 30 30 30 30 31 30 30 30 29 28 27
53 52 50 48 45 42 40 39 39 39 39 40 40 40 40 40 40 41 41 41 40 40 39 38 37 36 36 35 34 32 32 31 31 31 31 31 31 31 31 31 29 27
53 51 50 48 45 43 41 40 39 39 39 39 40 40 40 40 40 41 41 41 41 41 41 40 39 38 38 37 36 35 34 34 32 32 31 31 31 32 32 32 30 28
52 50 49 47 46 44 43 42 41 40 39 39 40 40 40 39 40 40 41 42 42 42 42 42 41 41 40 39 38 37 37 36 34 33 32 31 31 32 33 32 31 30
52 51 49 48 47 46 45 43 42 41 40 40 40 40 40 40 40 41 42 42 42 42 42 43 43 42 41 41 40 39 38 37 35 35 34 32 32 33 33 33 32 30
52 51 49 48 48 47 46 45 43 42 42 41 41 41 41 41 41 42 43 42 43 43 43 43 43 42 42 41 41 40 38 37 36 35 35 34 34 33 33 33 33 31
52 51 50 49 48 48 47 46 44 43 43 42 42 42 42 42 43 43 43 43 43 44 44 44 43 42 42 42 41 40 39 37 36 36 36 35 35 35 34 33 33 33
52 51 50 49 49 49 48 47 45 44 44 44 43 43 43 43 44 44 44 43 44 44 44 44 43 43 43 42 41 41 39 36 35 35 35 35 35 36 35 34 33 35
52 52 51 50 49 49 48 48 47 46 45 45 44 44 45 45 45 45 44 44 44 44 44 44 44 43 43 42 41 40 38 35 34 34 35 35 36 37 36 35 34 34
52 52 52 50 50 50 50 49 48 48 47 47 46 46 46 46 46 46 45 44 44 44 44 44 44 44 43 42 41 40 38 35 33 34 35 36 38 39 38 38 35 32
53 53 52 51 50 51 51 50 50 49 49 48 48 48 47 47 47 46 45 45 44 44 45 45 44 43 42 41 41 40 38 35 34 35 36 38 38 39 41 39 36 33
54 53 52 51 51 52 52 52 51 50 50 50 50 49 49 48 48 47 46 45 44 44 44 44 44 42 41 40 41 40 38 36 35 35 38 39 37 39 43 41 36 33
54 54 53 52 52 53 53 53 51 51 51 51 51 51 49 48 48 47 46 45 44 43 43 43 43 41 40 40 40 40 39 37 34 35 39 40 37 38 41 39 36 34
53 53 53 53 53 53 53 52 51 51 51 51 51 51 50 48 47 48 47 46 45 44 44 43 42 40 40 40 40 40 38 36 34 36 40 40 36 37 38 35 35 34
52 53 54 54 54 54 53 52 51 50 50 51 51 51 50 49 49 48 48 47 47 45 45 43 42 41 40 40 40 39 36 35 35 36 40 38 34 35 36 34 33 32

ECMWFNIL_850_spd_048.txt.gz
Wind_Speed
38 36 36 36 36 35 35 34 33 32 32 32 32 31 29 28 27 27 27 27 26 25 23 22 21 20 20 19 19 19 18 18 17 15 15 15 15 15 16 16 16 15
40 38 37 36 35 34 34 34 33 32 32 32 32 31 30 30 29 28 27 27 27 26 24 22 21 21 21 20 20 20 19 18 18 16 16 16 15 15 16 16 16 16
43 41 39 38 36 34 33 33 33 32 31 31 31 31 31 30 30 29 28 27 27 26 25 23 21 21 22 21 21 21 20 20 18 17 17 16 16 16 16 16 16 16
45 43 41 39 37 35 34 33 33 33 32 32 31 31 31 31 30 30 29 28 27 27 26 24 22 22 22 22 22 23 22 21 20 19 19 18 17 17 17 16 16 16
45 44 43 41 39 37 36 35 34 33 33 33 32 32 31 31 31 30 30 29 28 27 27 25 23 22 23 23 23 23 23 23 22 21 21 20 19 19 18 17 17 18
47 46 44 43 41 39 38 37 35 34 33 33 33 33 32 32 31 31 31 30 29 28 28 26 24 24 24 24 24 25 24 24 23 23 22 22 21 20 20 19 19 19
49 47 46 45 43 42 41 38 36 35 33 33 34 35 34 33 33 32 32 31 30 29 29 27 26 25 25 25 25 26 26 26 25 24 24 23 22 22 22 22 21 20
49 48 47 46 45 44 43 40 38 36 34 33 34 36 36 35 34 33 33 32 31 30 30 29 28 27 26 26 26 27 27 27 27 26 25 25 24 24 24 23 22 22
50 49 48 48 47 46 45 42 40 37 35 35 34 35 36 36 36 35 34 34 33 32 31 30 30 29 28 28 28 28 28 28 28 28 27 26 25 24 24 24 24 23
52 51 50 49 48 47 46 44 41 39 37 36 35 35 37 37 37 36 36 36 36 35 34 33 32 31 30 30 30 30 29 29 29 29 28 27 26 25 24 25 25 25
53 52 51 51 50 49 47 45 42 40 39 38 37 36 37 37 38 38 38 38 38 37 36 35 34 33 32 32 31 31 31 30 30 30 29 28 27 26 25 25 26 26
53 53 52 51 50 49 47 45 43 42 41 40 38 37 37 38 39 40 40 40 39 38 37 37 36 35 34 33 32 32 32 31 31 30 30 29 28 27 26 26 26 26
54 53 52 51 50 49 47 45 44 43 42 41 39 38 38 39 40 41 41 40 40 39 39 38 37 36 35 34 34 33 33 32 32 31 31 30 29 28 27 27 27 27
54 53 52 51 50 48 47 45 44 43 43 42 40 40 40 40 41 42 41 41 41 40 39 39 38 38 37 36 35 34 34 34 33 33 32 31 30 29 28 27 27 28
54 53 52 51 50 49 47 46 44 43 43 42 41 41 40 40 41 41 42 42 42 41 40 40 40 40 39 37 36 35 35 35 34 33 33 33 32 30 29 28 28 28
54 53 53 52 51 49 48 46 44 43 43 42 41 41 41 41 41 42 43 43 43 42 41 41 41 41 39 37 36 36 36 36 35 34 33 33 33 32 31 29 28 28
54 54 53 52 51 49 48 47 45 44 43 42 42 41 41 41 42 43 44 44 44 43 42 42 42 41 39 37 36 36 36 36 35 35 34 33 33 32 31 29 29 29
53 53 53 53 51 50 48 47 46 45 44 43 43 43 42 42 43 44 44 44 44 44 44 43 42 40 38 37 37 36 35 35 35 34 34 34 33 31 31 31 31 29
53 53 53 53 52 50 49 49 48 48 47 45 45 44 43 43 44 44 45 45 45 45 45 44 43 40 38 38 37 36 35 34 34 34 34 33 31 31 32 32 28 27
52 52 53 53 52 51 50 50 50 50 48 47 47 46 46 46 45 45 45 46 46 46 46 45 43 40 39 38 37 36 34 33 33 34 33 32 32 34 34 29 25 24
52 52 53 53 52 51 51 51 51 50 49 49 49 49 48 48 46 45 46 47 47 46 46 46 43 41 40 39 38 36 34 33 34 34 34 33 34 35 31 26 24 24
52 52 52 52 52 51 51 52 52 51 50 50 50 50 50 50 49 48 47 48 47 47 47 46 44 42 41 40 38 36 35 35 35 35 35 34 34 33 29 26 27 27
51 52 52 52 51 52 52 52 51 51 51 50 51 51 52 52 51 50 49 49 48 48 48 47 45 44 42 41 38 37 36 36 36 36 35 34 33 31 29 28 29 29
50 50 51 51 51 51 51 51 50 50 50 51 51 51 52 52 51 51 51 51 50 49 48 47 46 44 43 41 39 38 38 37 37 36 35 33 31 30 29 29 30 29
48 49 50 51 51 51 51 50 50 50 50 50 51 51 51 51 50 51 52 52 51 50 49 48 47 45 44 42 41 40 39 38 38 37 36 33 30 28 29 31 32 30
47 48 49 49 49 49 49 49 49 49 49 50 51 51 51 51 50 51 51 51 51 51 50 49 48 47 45 44 42 41 39 39 38 37 36 33 28 26 28 30 30 30

ECMWFNIL_850_spd_051.txt.gz
Wind_Speed
36 35 34 34 35 35 36 35 34 33 31 30 29 28 27 26 25 25 25 24 24 24 24 24 23 21 20 19 18 18 18 18 17 16 15 15 14 14 14 13 13 12
38 36 35 34 34 33 34 35 34 34 33 31 30 29 28 27 26 26 25 25 25 25 25 25 24 22 21 20 19 19 19 19 18 17 16 16 15 15 15 13 13 13
39 38 37 36 35 33 32 33 34 34 33 32 31 30 29 28 28 27 27 26 26 26 26 26 25 24 23 22 20 20 20 19 19 18 16 16 16 16 15 13 13 13
41 40 39 38 37 35 33 32 32 32 32 32 32 31 30 29 28 28 27 27 27 27 27 27 26 25 24 23 21 21 21 20 20 19 18 18 17 17 16 14 13 13
42 41 40 39 38 37 36 34 32 31 31 31 32 32 31 30 29 28 28 28 28 28 28 27 26 26 25 23 22 21 21 21 21 20 19 19 18 18 17 16 15 14
44 43 42 41 40 39 38 36 35 33 31 30 31 32 32 31 30 29 29 29 28 28 28 28 27 26 26 24 23 22 22 22 22 21 20 20 19 19 18 17 16 15
45 44 43 43 42 41 40 39 37 36 33 31 31 31 32 32 32 31 30 29 30 30 29 29 28 27 26 25 24 23 22 22 22 21 21 21 20 20 20 19 17 16
45 44 44 44 44 43 42 41 39 37 35 33 33 32 31 32 33 32 32 31 31 31 31 30 29 28 27 27 26 25 24 24 23 22 22 21 21 20 20 20 18 17
44 44 44 44 44 44 43 42 40 38 36 35 34 33 33 33 33 34 34 33 33 33 32 32 31 29 29 29 28 27 26 25 24 23 22 22 21 21 20 19 18 17
45 44 44 44 45 45 44 43 42 40 38 37 35 35 35 34 33 34 35 35 35 35 34 34 33 32 31 31 29 28 27 26 25 24 22 22 21 21 20 19 18 17
46 45 45 45 45 45 44 43 42 41 40 38 37 37 36 35 35 35 36 37 37 37 36 35 34 34 33 32 31 30 29 28 27 25 24 23 22 21 20 18 17 16
48 47 46 46 45 45 44 43 43 43 42 40 39 38 38 37 36 36 37 38 38 38 37 36 36 35 35 34 33 32 31 30 29 27 25 24 23 21 20 19 18 17
50 48 47 46 46 45 45 44 44 43 43 41 40 40 40 39 38 38 38 38 39 39 39 38 37 36 37 36 35 35 33 32 30 29 27 26 24 22 21 20 19 19
50 48 47 47 47 46 45 45 44 44 43 42 42 42 42 41 40 40 39 39 39 39 40 40 39 39 39 38 38 37 35 34 32 31 29 28 26 24 23 22 21 21
50 49 49 48 48 47 46 46 45 45 45 44 44 43 42 41 41 41 40 40 40 40 40 41 41 41 41 40 40 38 37 36 34 33 31 30 28 26 25 25 24 23
50 50 50 49 49 48 47 47 46 46 46 45 45 44 43 42 42 42 42 42 41 41 41 43 44 44 42 41 41 39 38 37 36 34 33 31 29 28 28 27 26 25
50 51 50 50 49 48 48 47 46 46 46 45 45 44 44 43 43 43 43 43 42 42 42 44 46 45 43 42 41 39 38 38 37 35 34 33 32 30 30 29 27 26
51 51 50 50 49 49 48 47 46 46 46 46 46 45 44 45 44 44 43 43 44 44 44 45 47 46 44 43 42 40 39 38 37 36 35 35 33 32 32 31 29 27
51 51 50 50 49 48 48 47 47 47 47 47 46 46 46 46 45 44 44 44 45 45 45 45 46 46 45 44 43 41 39 38 38 37 36 36 34 34 35 33 30 28
51 50 50 49 49 49 49 48 48 48 47 47 47 47 48 48 47 46 46 45 46 46 45 45 46 47 46 45 43 42 40 39 38 38 37 36 35 36 36 34 30 28
50 50 49 50 50 49 49 49 49 49 48 48 49 49 48 48 47 46 46 47 47 46 45 45 46 46 46 45 43 42 41 39 39 39 38 37 36 37 36 33 30 28
49 48 49 49 49 49 50 50 49 49 49 49 50 49 49 50 49 47 47 48 47 47 47 47 46 46 47 46 44 42 41 40 40 40 40 38 38 38 36 32 30 29
48 48 48 49 49 49 50 49 49 49 49 49 50 50 51 52 51 49 49 48 48 47 48 47 47 47 47 45 44 42 42 41 41 41 41 40 39 38 36 32 31 30
46 47 47 48 48 48 49 49 48 48 48 48 48 49 50 51 51 50 50 50 49 49 48 47 47 48 46 45 45 43 43 43 42 41 42 41 40 39 36 33 31 30
43 44 45 46 46 47 48 48 47 47 47 46 47 48 49 50 51 51 51 50 50 50 50 48 48 47 46 46 45 44 44 43 43 42 42 42 42 40 37 34 32 31
41 42 42 43 43 44 46 46 46 46 46 46 46 46 47 49 51 53 53 52 50 50 49 49 49 48 47 47 46 45 45 43 43 43 43 43 43 41 38 35 33 32

ECMWFNIL_850_spd_054.txt.gz
Wind_Speed
40 40 39 38 37 36 35 34 33 32 31 30 29 28 27 26 26 25 25 24 23 22 21 20 20 19 17 16 15 15 14 13 13 12 10 10 11 12 12 12 11 12
41 41 40 39 39 38 36 35 34 33 32 30 29 29 28 27 27 27 26 25 24 22 21 21 20 19 19 18 16 16 16 15 15 14 11 11 12 13 13 13 13 14
42 42 41 41 40 38 37 36 35 34 32 31 30 30 29 28 28 28 27 27 25 24 23 22 21 20 20 19 18 18 17 17 16 15 12 11 12 13 14 14 14 14
43 42 41 40 39 38 37 36 35 34 33 32 32 31 30 30 29 29 28 28 27 26 25 23 22 22 21 20 20 20 19 19 18 16 14 13 13 13 15 15 15 15
44 43 42 40 39 38 37 36 35 34 32 31 31 31 32 32 31 30 30 29 29 29 28 26 24 23 23 22 22 22 21 19 17 17 16 14 13 14 15 17 17 17
46 44 43 42 41 40 39 38 36 35 33 31 30 31 32 32 32 32 31 31 30 30 30 29 27 25 24 24 23 23 23 19 16 18 17 15 14 14 16 19 19 19
47 45 44 43 42 41 41 40 38 37 35 33 32 31 31 32 33 33 32 32 31 30 30 30 28 27 26 25 25 24 24 22 18 18 18 16 14 14 16 20 21 21
47 46 44 43 43 43 42 41 40 39 37 36 35 33 32 32 32 33 33 33 32 32 31 31 29 28 27 27 27 25 25 25 22 20 20 18 15 15 17 20 22 22
48 47 46 45 44 44 43 42 41 40 39 38 37 35 34 33 33 32 33 33 34 33 32 32 31 29 28 28 28 26 26 26 25 24 23 21 19 19 20 21 22 23
49 48 47 46 46 45 44 43 42 41 40 39 38 37 37 36 34 33 33 34 34 34 34 34 33 31 30 30 30 29 27 27 27 26 25 23 22 23 23 23 22 22
48 48 48 48 47 46 45 44 43 42 42 40 39 39 39 39 36 35 35 35 35 35 35 35 35 34 32 32 31 30 29 29 29 28 27 25 24 25 25 24 23 23
48 48 48 47 47 47 46 45 44 44 43 42 40 39 39 40 39 38 38 37 36 36 36 36 36 36 35 34 33 32 31 31 31 30 29 27 26 27 27 26 25 24
47 46 45 45 45 45 45 45 44 44 44 43 41 40 39 40 40 40 39 38 38 37 36 36 36 36 36 36 35 34 34 33 33 32 30 29 29 29 29 29 27 26
47 45 44 44 43 43 43 43 43 43 43 43 42 40 40 40 40 41 40 39 38 38 37 37 37 37 37 38 37 37 36 36 35 35 33 31 31 31 31 31 30 28
48 47 45 44 45 44 43 43 43 43 42 43 43 42 41 41 41 41 41 41 39 39 38 38 38 39 39 39 39 39 39 38 37 37 36 34 33 33 33 33 33 31
49 47 46 46 47 46 45 44 43 44 44 44 44 43 42 42 42 42 43 42 42 41 40 40 40 40 40 40 40 40 40 40 39 39 38 37 36 35 35 35 35 34
48 47 47 48 48 47 47 46 45 45 45 46 46 45 44 43 43 43 43 44 44 43 42 42 42 42 41 40 40 40 39 40 41 41 40 39 38 37 37 37 37 36
47 47 48 48 48 48 48 47 46 46 47 47 47 46 45 44 44 43 43 44 44 45 44 43 43 43 42 41 41 40 40 39 40 42 42 41 40 39 38 38 39 38
46 46 47 47 48 48 48 47 47 47 48 48 47 46 45 45 44 44 43 43 44 45 45 44 44 44 43 42 42 41 40 39 39 41 43 42 42 41 40 40 41 41
46 46 47 47 47 48 48 47 47 47 47 47 47 47 46 46 46 45 44 44 44 45 46 45 45 45 44 43 43 42 41 39 39 41 42 43 43 43 42 42 43 43
45 46 47 47 48 48 47 46 46 46 46 47 47 47 47 47 46 45 45 45 45 46 46 46 46 46 46 45 43 43 42 40 39 40 42 43 43 44 43 42 43 44
44 45 47 47 47 47 47 46 46 46 46 46 47 47 47 47 46 46 46 46 46 46 46 46 46 46 47 47 45 44 42 41 41 41 41 42 43 44 44 42 40 41
43 44 45 45 46 46 46 45 45 45 45 46 46 46 47 47 47 46 46 46 46 46 46 47 46 44 46 48 47 45 44 43 43 42 43 42 42 42 44 44 43 42
42 42 42 43 44 45 44 43 43 44 44 45 45 45 46 46 46 46 46 46 46 46 45 46 46 43 44 47 48 47 46 45 44 44 44 43 42 42 42 42 43 43
39 39 39 41 42 42 42 42 43 43 44 44 44 44 45 45 44 44 45 45 46 45 45 45 45 41 39 42 46 47 46 46 45 45 46 46 44 41 36 34 34 36
36 36 37 37 38 39 40 41 42 43 43 43 43 43 43 42 42 42 42 43 44 43 42 43 45 43 39 39 43 46 45 44 44 46 47 46 42 35 30 30 30 32

ECMWFNIL_850_spd_057.txt.gz
Wind_Speed
39 38 38 37 37 36 35 34 33 31 30 29 28 27 27 27 25 23 23 23 21 19 19 19 19 18 17 16 16 15 15 15 14 14 14 13 13 13 14 16 14 15
40 40 39 39 38 38 37 36 34 33 32 31 29 28 27 27 27 26 26 26 24 20 19 19 19 19 19 18 18 17 18 17 16 16 16 15 15 14 15 17 16 17
42 42 41 41 40 39 38 36 36 35 33 32 31 29 28 27 27 28 27 26 26 23 21 20 20 19 19 19 19 18 18 19 18 18 17 17 17 16 16 17 17 17
44 43 42 42 41 40 39 38 37 37 35 34 33 31 30 28 27 28 28 27 27 26 24 22 21 20 19 20 20 19 18 19 19 20 20 19 20 18 16 17 18 17
45 45 44 43 42 41 40 39 39 38 37 36 35 33 32 31 29 28 28 28 27 27 26 25 24 22 21 21 21 20 20 19 20 21 22 22 22 21 19 18 19 19
47 46 45 44 44 43 42 42 40 39 39 37 36 34 33 33 32 31 30 30 29 28 27 27 26 25 23 23 22 22 21 21 21 22 24 24 23 22 20 20 21 21
48 47 46 45 45 44 44 43 42 41 40 38 36 35 35 34 33 33 32 31 30 30 29 28 28 27 26 26 25 24 23 23 23 23 24 26 26 25 23 21 22 22
50 49 48 47 46 46 45 44 43 42 41 39 37 36 35 35 34 33 32 32 31 31 30 29 30 29 29 29 28 27 26 25 25 26 25 26 28 28 26 24 23 23
51 50 49 48 48 47 47 45 44 43 42 40 38 37 36 35 34 34 33 32 32 32 32 31 31 31 31 31 30 29 28 27 27 27 27 27 28 27 25 24 25 25
52 52 51 50 50 49 48 46 44 42 42 42 40 38 36 36 36 35 34 33 32 31 32 33 33 33 32 32 32 31 30 29 29 29 29 29 29 27 26 25 26 27
52 52 52 52 51 49 48 46 43 39 39 42 42 40 37 36 37 37 36 36 34 33 32 34 34 34 34 34 33 32 31 30 30 31 30 30 30 29 27 27 27 28
50 51 52 51 51 49 47 45 42 39 36 38 41 42 40 37 36 38 39 38 36 35 34 34 35 35 36 35 34 34 33 32 32 32 32 31 31 30 29 29 29 28
48 48 49 49 49 49 47 44 42 39 36 35 37 40 41 38 36 37 40 40 38 37 36 35 35 35 36 36 36 35 34 34 34 34 34 34 33 32 31 31 30 30
47 46 46 46 46 47 47 45 42 40 38 36 34 35 38 39 37 36 39 40 39 38 38 37 36 36 37 37 37 36 36 36 36 35 35 35 35 34 33 33 32 32
47 46 45 44 44 45 45 45 44 42 40 38 36 35 36 37 36 35 35 39 41 39 39 39 39 39 39 39 39 38 37 37 37 37 37 37 37 37 36 35 34 33
47 47 46 46 45 45 45 44 44 45 43 41 39 38 37 37 36 35 34 35 39 41 40 40 41 41 41 41 40 39 39 38 38 39 39 39 39 40 39 38 36 35
47 48 47 47 47 46 46 44 43 45 45 43 42 41 40 38 38 38 36 34 35 39 41 41 41 42 42 41 40 40 40 39 39 40 40 41 42 43 42 41 40 38
47 47 47 47 47 46 46 45 44 45 46 45 44 45 44 42 41 42 42 38 34 36 40 42 42 42 42 41 40 40 39 40 40 41 41 42 43 44 44 43 42 41
46 46 46 46 47 46 45 45 45 45 46 46 46 46 45 46 46 45 45 43 39 36 38 42 44 44 43 42 41 40 40 40 41 42 43 43 44 44 44 44 44 43
44 45 45 45 45 45 44 44 45 45 45 45 45 45 46 46 46 46 45 46 44 41 40 41 43 44 45 44 43 42 42 41 42 43 44 44 45 44 44 44 45 45
44 43 43 43 44 44 44 43 44 44 44 44 43 43 45 45 45 46 46 46 46 45 44 43 42 42 44 45 43 42 42 42 43 44 45 46 46 46 45 45 45 44
42 42 41 42 42 42 42 42 42 43 43 42 41 40 40 41 43 44 44 44 45 45 46 45 43 41 43 45 44 42 41 41 42 43 45 46 46 46 46 46 47 46
40 40 40 40 41 41 41 41 41 41 41 41 41 40 37 37 39 40 41 42 43 44 44 45 44 43 43 44 45 43 42 41 42 43 44 45 47 47 43 40 42 46
38 38 39 39 40 40 40 39 39 39 39 39 40 39 37 35 33 33 36 39 40 41 41 42 43 43 43 43 44 43 43 42 42 43 45 46 47 49 44 36 33 40
36 36 37 37 38 38 37 37 37 37 37 37 37 37 36 34 31 30 32 34 36 37 37 38 39 40 40 41 42 42 42 43 43 43 45 47 48 50 48 42 36 36
35 35 34 34 35 35 34 35 35 34 33 34 33 33 32 31 30 30 30 30 31 32 33 35 37 37 37 39 40 40 41 42 42 44 46 47 47 47 45 44 43 40

ECMWFNIL_850_spd_060.txt.gz
Wind_Speed
37 36 35 34 33 32 31 30 29 27 27 27 26 26 25 24 23 22 21 21 20 20 20 19 19 17 16 16 16 17 18 17 15 14 14 14 13 13 13 13 12 12
38 37 36 36 35 34 34 32 30 29 28 27 26 25 24 24 24 23 22 22 22 20 20 20 19 18 18 18 18 18 18 18 17 17 16 16 16 15 15 15 14 14
39 39 38 37 37 36 36 34 33 31 30 28 27 26 24 24 24 24 24 23 23 22 21 20 19 19 19 19 20 20 20 19 19 19 19 18 18 17 17 16 16 16
41 40 40 39 38 38 37 36 35 34 32 31 29 28 26 25 24 24 25 25 25 25 23 22 20 20 20 20 21 21 21 21 20 21 21 20 20 19 19 18 17 17
42 41 41 40 39 39 38 37 37 36 35 33 31 30 29 27 26 25 25 26 26 26 26 24 22 22 22 21 22 22 23 22 21 22 23 23 22 21 21 20 20 19
43 42 42 41 41 40 40 39 39 37 36 35 33 31 30 29 28 27 26 26 26 27 27 26 25 24 24 23 23 23 23 24 23 23 24 24 23 23 23 23 22 21
44 44 43 43 42 42 41 41 40 39 37 36 34 33 32 30 30 29 28 27 27 27 27 27 27 26 26 26 25 25 25 24 24 24 25 25 25 24 24 25 25 24
45 45 44 44 44 43 43 42 41 40 38 36 34 34 33 32 31 30 30 29 28 28 28 27 27 27 26 27 27 27 27 26 26 26 26 26 26 26 25 26 27 26
47 46 46 46 45 45 44 43 42 41 39 38 36 34 33 33 32 31 31 31 30 30 29 28 28 28 28 29 28 28 28 28 28 28 28 28 28 27 27 27 28 28
48 48 47 47 47 47 45 45 44 43 41 40 38 35 34 34 33 32 31 32 32 31 31 30 31 31 31 31 31 31 30 29 29 29 30 30 30 29 28 28 29 30
49 49 49 48 48 47 47 46 45 44 42 41 40 39 36 35 34 34 33 33 33 33 33 33 32 33 33 33 33 33 32 31 31 31 32 32 32 31 30 30 30 30
49 50 50 49 48 48 47 46 45 44 42 42 41 41 39 36 35 35 35 35 35 34 34 34 33 33 34 34 34 34 34 33 33 33 33 33 33 33 32 32 31 30
49 50 49 49 48 47 45 45 44 43 41 40 40 40 39 38 38 37 37 36 36 36 35 35 34 34 34 35 35 34 34 34 34 34 34 33 33 34 33 33 33 32
47 47 48 48 48 47 45 43 42 42 40 38 37 37 37 37 37 37 38 37 37 37 37 36 35 35 35 35 35 35 34 34 34 34 35 34 34 34 34 34 34 34
44 45 46 47 47 46 46 45 42 41 40 38 37 36 35 35 35 35 36 37 37 37 37 36 36 36 36 36 35 35 35 35 36 36 36 36 35 35 35 35 34 34
42 43 43 45 46 46 45 45 43 41 39 39 39 38 36 34 33 33 34 35 36 36 36 37 37 37 37 37 36 36 36 36 37 38 37 37 37 36 36 36 35 35
42 43 42 43 44 45 44 44 43 42 41 40 39 40 39 37 34 33 34 34 35 36 37 38 38 38 37 37 36 36 37 37 38 39 39 38 38 38 38 37 37 36
42 42 43 42 42 43 43 43 42 42 42 42 41 41 40 39 37 36 35 35 34 36 37 38 39 39 38 37 37 37 37 37 38 39 40 40 40 39 39 39 39 38
43 42 43 43 43 42 42 42 42 42 43 43 42 42 41 41 40 39 38 37 36 36 37 38 39 39 39 39 37 37 36 37 38 39 40 41 42 41 41 41 41 41
43 43 43 43 42 42 42 42 42 42 42 43 42 42 42 42 42 42 40 39 38 38 38 38 39 39 39 40 39 37 36 36 37 39 41 42 42 42 42 42 43 42
42 42 42 42 42 42 42 42 43 43 42 42 42 42 43 43 43 43 42 41 41 40 41 40 40 40 41 41 41 39 38 37 38 39 41 43 44 44 44 44 43 43
42 41 41 42 42 42 42 42 42 43 43 42 42 41 42 42 43 43 43 43 43 42 42 43 42 42 42 43 43 42 40 39 39 40 41 43 45 45 45 44 44 44
41 41 41 41 41 41 42 42 42 41 41 41 41 40 40 40 42 43 43 43 43 43 44 44 44 43 43 43 43 42 41 41 41 41 41 43 45 46 46 45 44 45
41 40 41 41 41 41 41 41 41 40 40 39 39 40 39 37 38 40 41 43 43 44 44 45 45 44 44 44 44 43 42 42 42 41 42 44 45 45 46 46 45 45
40 40 40 40 40 40 40 39 39 39 38 38 38 39 39 36 35 35 37 39 41 42 43 43 43 43 43 44 44 44 43 43 42 41 43 45 45 45 46 46 46 46
38 39 39 39 39 39 38 37 37 36 36 36 36 37 37 36 35 34 34 35 36 37 38 38 39 39 39 40 40 40 40 41 41 43 44 44 43 44 45 45 46 47

ECMWFNIL_850_spd_063.txt.gz
Wind_Speed
37 37 36 35 34 34 33 32 31 31 31 29 27 25 23 21 20 19 18 17 17 17 18 18 18 17 17 17 17 16 16 15 14 13 12 11 10 10 10 10 10 10
39 38 38 36 35 34 33 33 31 31 31 31 29 27 25 23 22 21 19 18 18 18 18 18 18 18 17 18 19 19 18 17 16 15 14 13 12 12 12 11 11 10
41 40 39 38 37 35 35 34 32 32 32 31 31 29 27 25 24 22 20 19 19 18 18 19 19 19 18 18 19 20 19 18 17 17 16 15 15 14 13 13 13 12
42 41 40 39 38 37 36 35 34 33 32 32 31 30 29 27 25 24 22 21 20 19 19 19 19 20 20 19 20 21 21 20 19 18 18 17 17 16 16 15 15 15
43 42 41 40 39 38 37 37 36 35 34 33 31 30 29 28 27 25 24 22 22 21 20 20 20 20 20 20 21 22 22 23 22 21 20 19 19 18 18 18 18 17
44 43 42 41 41 40 39 38 37 36 35 34 33 31 29 28 27 26 25 24 23 22 22 21 21 21 21 21 21 22 23 24 24 24 24 23 21 21 20 20 20 20
46 44 43 43 42 42 41 39 38 38 37 36 34 33 31 29 28 27 26 25 24 24 24 23 23 23 22 22 22 23 23 24 25 25 26 25 24 23 22 22 22 22
47 45 44 44 43 43 42 40 40 39 38 37 36 35 33 32 30 29 28 27 27 26 25 25 25 24 24 23 24 24 25 25 25 26 26 26 26 25 24 23 23 24
48 47 46 46 45 44 43 42 41 40 39 39 38 36 35 34 32 31 30 30 29 28 28 27 26 26 25 25 25 25 26 27 27 27 27 27 27 27 26 25 25 25
50 49 48 47 47 46 44 43 42 41 40 40 38 37 36 35 34 33 32 31 31 31 30 29 28 28 27 27 27 26 26 27 27 28 28 28 28 28 27 27 27 27
50 49 49 48 48 47 45 44 43 42 41 40 39 39 38 37 36 35 34 33 33 33 32 31 31 30 29 29 29 28 28 27 27 28 29 29 28 28 28 27 27 27
51 51 50 49 48 47 46 45 44 43 42 41 41 40 38 38 37 36 35 35 34 34 33 32 32 31 31 30 30 30 30 30 30 30 30 30 30 29 29 28 28 28
52 52 51 49 48 47 46 46 45 44 43 42 41 40 40 39 38 37 36 36 35 35 34 33 33 32 32 32 32 32 32 32 32 32 32 31 32 32 31 31 31 31
53 51 50 49 48 47 47 46 46 45 44 43 42 41 40 40 39 38 37 37 36 36 35 35 34 34 34 34 33 33 33 34 34 34 34 33 33 33 33 33 33 33
52 51 50 49 48 48 47 47 46 45 44 44 43 42 41 40 40 40 39 39 38 37 36 36 36 37 36 35 35 35 35 35 34 34 35 35 34 34 34 35 35 35
50 51 50 50 49 49 48 47 46 46 45 44 44 43 42 41 40 40 41 40 39 38 38 38 39 39 38 37 36 35 35 35 35 35 35 35 36 36 36 36 36 37
48 49 50 50 50 49 48 47 46 46 45 45 44 43 42 41 40 40 40 41 40 40 39 39 40 40 39 39 37 36 36 36 36 36 36 36 36 37 37 37 37 38
46 46 48 49 49 49 48 47 46 46 46 45 44 44 43 41 40 40 39 39 39 39 39 39 38 38 38 39 38 37 36 36 37 37 37 37 37 37 38 37 38 38
45 45 45 47 47 48 48 47 47 47 47 46 45 44 43 42 41 40 39 38 38 39 39 38 37 36 37 37 37 36 35 35 36 37 38 39 38 38 38 38 38 39
44 44 44 44 44 45 46 47 47 47 46 46 45 44 43 43 42 41 40 39 39 39 39 39 37 37 36 36 35 35 34 35 35 36 38 40 40 40 40 40 40 39
44 44 43 43 43 43 44 45 46 46 46 46 45 45 44 44 43 42 41 41 41 41 41 41 39 38 36 36 35 34 33 34 35 36 38 39 41 41 42 42 42 42
44 43 43 43 43 43 43 44 45 45 45 45 45 45 45 44 44 43 43 43 43 42 42 42 42 40 38 37 36 35 34 35 35 36 37 39 40 41 42 43 43 44
44 44 43 43 42 43 43 44 44 44 44 44 45 45 46 45 45 44 44 44 44 43 43 44 43 42 41 40 38 37 36 37 37 37 38 39 40 40 41 42 43 45
41 43 44 43 43 43 43 43 43 43 43 43 44 45 46 46 45 45 45 45 45 44 44 44 44 43 42 42 41 40 39 39 39 39 40 41 40 40 40 42 43 45
38 41 43 43 43 42 42 42 41 41 41 42 43 44 44 45 45 45 46 46 46 46 45 45 45 44 43 43 43 41 40 38 38 38 40 41 40 40 40 41 43 44
37 38 41 42 42 41 41 40 40 39 40 40 41 42 42 43 44 44 45 45 46 46 46 46 46 45 44 43 42 41 40 38 38 39 40 39 38 39 40 41 42 43

ECMWFNIL_850_spd_066.txt.gz
Wind_Speed
41 40 40 40 39 38 36 34 32 31 29 27 27 26 26 24 22 22 22 21 21 21 20 20 19 19 18 18 17 17 16 15 14 13 13 13 12 12 12 11 10 10
42 40 39 40 40 39 37 35 33 31 30 28 26 25 24 24 23 23 22 21 20 20 20 21 20 20 20 19 19 18 17 17 16 15 15 14 13 14 13 12 12 11
44 42 40 40 39 39 37 36 35 33 31 29 28 26 24 24 23 23 23 21 20 19 19 20 21 20 20 20 20 19 19 18 17 17 17 15 14 14 14 13 13 13
46 43 41 40 38 38 37 37 36 34 32 31 29 28 26 24 24 23 23 22 21 20 20 20 20 20 20 20 20 21 20 19 18 18 18 18 16 15 15 15 15 15
46 44 42 41 39 38 38 38 37 35 34 32 30 29 28 26 25 24 24 23 22 21 21 21 21 21 20 21 21 22 22 21 20 19 20 19 19 18 17 17 17 17
48 46 44 42 41 40 39 39 38 36 35 33 32 31 29 28 27 26 25 24 23 23 22 22 23 22 22 22 22 23 23 22 22 21 21 21 20 20 19 19 19 19
49 48 46 45 43 42 41 40 39 38 36 34 34 33 32 30 29 27 27 26 25 25 24 24 24 23 23 23 23 24 24 23 23 23 23 23 22 23 22 22 22 21
48 48 47 46 45 44 43 41 41 40 38 36 35 34 33 32 31 30 28 27 27 26 26 26 25 25 24 24 24 25 25 25 24 24 25 25 25 25 25 25 24 24
49 48 48 47 46 45 44 43 42 41 40 39 37 35 35 33 32 31 30 29 28 27 27 27 26 26 26 26 26 26 26 26 26 26 26 26 26 26 26 26 26 26
49 48 48 47 47 46 45 44 43 42 42 41 39 37 36 35 34 33 32 31 30 29 29 28 28 27 27 27 28 27 28 28 28 28 27 27 27 26 26 26 27 27
48 48 48 48 47 46 46 45 44 44 43 42 41 40 38 37 36 35 34 33 32 31 31 30 29 29 29 29 28 28 29 29 29 29 29 29 29 28 28 27 28 28
47 47 48 47 47 46 46 45 45 45 44 44 43 42 41 39 38 37 36 35 34 33 32 32 31 30 30 30 30 29 30 30 30 30 30 30 30 30 29 29 29 29
46 46 46 46 46 46 45 45 45 45 45 44 43 43 43 42 41 39 38 37 35 35 34 33 33 32 32 31 31 31 31 31 31 31 31 31 31 31 31 31 31 30
46 45 45 45 45 46 46 46 46 45 45 44 44 44 44 43 42 41 40 39 38 37 36 35 35 34 34 33 33 33 33 33 33 33 33 33 33 33 33 33 33 32
45 45 45 45 45 46 47 47 47 46 46 45 44 44 44 43 43 42 41 41 40 39 38 37 37 37 36 35 34 34 34 34 34 34 35 35 35 35 34 35 35 35
45 45 45 46 47 47 48 48 48 47 47 47 46 45 44 44 44 43 43 43 42 40 39 39 39 39 37 36 35 35 35 35 35 35 36 36 36 36 36 36 36 36
44 45 46 46 47 48 48 48 48 48 48 48 47 47 46 45 45 45 45 44 43 42 41 41 41 39 38 37 36 36 36 36 36 36 36 37 37 37 37 37 36 36
44 44 45 46 47 47 48 48 48 48 48 48 49 48 47 46 46 46 46 45 44 44 43 42 41 40 38 38 37 37 37 37 38 38 38 38 38 38 38 38 38 37
42 42 43 44 45 46 47 47 48 48 48 48 48 48 47 47 47 47 46 46 45 45 45 43 42 40 39 38 38 37 37 37 38 39 39 39 39 39 39 38 38 38
41 41 41 41 42 43 45 46 48 48 48 48 47 47 48 48 48 48 47 47 46 46 46 45 43 41 39 39 38 37 36 36 37 38 39 39 39 38 38 38 38 38
41 40 40 39 39 41 42 44 45 46 47 47 47 47 48 48 49 48 48 47 46 45 46 46 44 41 39 38 37 35 34 35 35 37 38 38 38 37 37 37 37 37
41 40 40 39 38 39 41 42 43 44 44 45 46 46 47 48 48 49 48 48 47 45 45 46 44 40 38 37 35 33 33 34 35 35 36 37 37 37 37 37 37 37
41 41 40 40 39 40 40 40 40 41 41 42 44 45 47 48 48 49 48 48 47 46 45 45 43 39 37 35 33 32 33 34 35 35 36 37 37 37 37 37 37 37
42 41 41 40 40 40 40 39 38 39 39 39 41 43 45 46 47 47 48 48 48 47 46 45 43 40 38 36 34 33 34 35 35 36 37 37 37 37 38 38 38 38
42 41 41 41 41 40 39 38 38 37 37 37 39 40 42 43 45 46 47 47 47 47 47 46 45 43 41 40 38 37 36 36 36 37 38 39 39 39 39 39 39 39
41 41 41 41 40 39 38 38 38 37 37 37 38 39 40 41 43 44 46 46 46 47 47 47 46 45 44 43 41 40 39 38 38 39 40 40 40 40 40 40 40 40

ECMWFNIL_850_spd_069.txt.gz
Wind_Speed
40 40 41 41 41 39 36 35 34 34 32 30 28 26 25 24 23 22 23 24 23 22 21 20 20 19 18 17 17 17 16 16 16 15 14 14 13 13 13 12 12 12
41 40 40 40 40 39 38 36 35 35 33 31 28 25 24 24 24 24 24 24 24 22 21 21 21 21 20 19 18 18 18 17 17 16 16 16 14 14 13 13 12 13
42 41 41 40 39 38 38 36 35 35 35 33 30 26 23 23 24 25 25 25 24 23 22 22 22 21 21 21 20 19 19 19 18 17 17 17 16 15 14 14 14 14
42 42 41 40 38 37 36 36 36 36 36 35 32 28 25 23 23 25 26 26 25 24 23 23 23 23 23 22 22 21 21 20 19 18 18 18 17 16 15 15 15 15
42 41 40 39 39 38 36 36 36 36 37 36 33 31 27 24 24 25 26 27 25 24 24 24 24 24 24 23 23 23 22 21 21 20 20 19 19 18 17 16 17 17
42 41 40 39 39 38 37 36 35 35 36 36 35 33 30 27 26 25 26 26 25 25 24 24 24 24 23 23 23 23 23 22 22 21 21 20 19 19 19 19 19 19
42 41 41 40 40 40 39 37 35 35 35 35 35 34 32 30 28 27 27 26 26 25 25 25 24 24 23 23 23 23 23 23 22 22 22 22 21 21 20 21 21 21
42 41 41 42 42 41 40 38 37 36 35 36 36 35 33 32 30 29 29 28 27 26 26 26 26 25 25 25 25 24 24 23 23 23 23 23 23 23 22 22 22 23
42 42 42 42 43 43 42 40 39 37 36 37 36 35 34 33 32 31 30 30 29 28 28 27 27 27 27 27 27 26 26 25 24 24 24 24 24 23 23 23 24 24
43 43 43 43 44 43 42 41 39 38 38 37 37 36 36 34 33 33 32 31 31 31 30 29 29 29 28 28 28 28 27 26 26 26 26 25 25 24 24 24 24 25
44 44 44 44 44 44 43 41 40 39 39 38 38 38 37 36 35 34 34 34 33 32 32 31 31 30 30 30 29 29 29 28 27 28 27 27 27 26 26 26 26 25
44 44 43 43 43 43 42 41 40 40 39 38 38 38 38 38 37 36 36 35 34 34 34 33 32 32 31 31 31 30 30 29 29 29 29 30 30 29 29 28 28 27
43 41 41 41 41 41 42 41 40 40 39 38 38 38 38 39 39 38 37 36 36 35 35 35 34 33 33 32 32 31 31 31 31 30 31 31 31 31 31 31 30 30
43 41 40 39 40 40 41 41 40 40 39 38 38 38 39 39 39 39 38 38 38 37 37 36 35 35 34 34 33 33 32 32 32 32 32 32 32 32 32 32 32 32
44 42 41 40 40 41 41 41 41 40 39 38 38 39 39 39 39 39 39 39 39 39 39 38 38 37 36 35 35 34 34 34 33 33 33 32 32 32 33 33 33 33
44 43 42 41 41 41 41 41 41 41 40 39 39 39 39 39 39 40 41 41 40 40 40 40 40 39 38 37 36 35 35 35 35 34 34 34 33 33 33 33 33 33
44 43 43 42 42 41 41 41 41 41 41 40 40 40 39 39 40 41 42 42 41 42 42 42 41 40 38 37 37 36 36 36 36 36 35 35 35 35 35 34 34 34
43 43 43 42 42 41 41 40 41 41 41 41 41 41 40 40 41 41 42 42 42 43 43 43 42 40 39 38 37 37 37 37 37 37 38 38 37 37 36 35 35 35
42 42 42 42 41 41 40 40 40 41 41 41 40 40 40 40 41 41 42 42 43 44 44 44 44 42 40 39 39 38 38 38 39 39 39 39 39 38 37 36 36 35
41 42 41 41 40 40 40 40 40 40 40 40 40 40 40 41 41 41 41 42 42 43 44 44 44 43 41 40 39 39 38 39 39 40 40 40 40 39 38 37 36 36
40 40 40 39 39 39 39 39 39 39 39 39 39 39 40 40 40 41 41 42 42 42 43 44 44 42 42 41 40 39 38 39 40 40 40 40 40 39 39 38 37 37
39 38 38 37 37 38 39 38 38 37 36 36 37 38 38 39 39 40 41 41 41 42 43 44 43 41 41 41 40 39 38 39 40 40 40 40 39 39 39 38 38 38
37 37 36 36 36 37 37 36 35 34 33 33 35 36 36 37 38 38 39 40 41 41 42 43 41 40 39 39 39 38 38 39 39 39 39 39 38 37 38 38 37 37
36 36 35 34 35 36 35 34 33 31 31 31 33 33 33 34 34 35 36 37 39 40 40 41 40 38 38 38 37 38 38 38 38 38 38 38 38 37 37 37 36 36
35 35 35 34 34 34 33 32 31 30 29 29 31 31 31 31 32 34 35 36 36 37 37 37 38 37 36 36 36 37 37 37 37 38 39 38 37 36 36 36 36 35
35 35 35 34 34 33 32 31 30 30 30 30 31 31 31 31 33 34 35 35 35 35 34 34 35 35 34 34 34 35 36 35 36 38 38 37 36 36 36 35 35 35

ECMWFNIL_850_spd_072.txt.gz
Wind_Speed
36 38 38 38 37 36 35 34 33 31 30 29 28 26 23 21 20 19 19 20 20 20 19 19 18 17 16 16 16 16 16 15 14 14 14 14 13 13 13 13 13 13
34 35 37 38 38 36 35 35 33 32 31 29 28 27 25 23 22 21 20 20 20 20 20 20 19 18 17 17 17 17 17 16 15 15 15 14 14 13 13 12 12 13
34 34 35 36 37 36 36 35 34 33 32 30 29 28 27 25 23 22 22 22 21 20 21 21 20 20 19 18 18 18 18 18 17 16 15 15 15 15 14 13 13 13
36 34 34 34 35 35 34 35 35 34 33 32 30 29 28 26 24 23 23 23 22 21 21 22 21 21 20 20 20 20 20 19 18 17 17 16 16 16 15 15 15 15
37 35 33 33 33 34 34 34 34 34 33 32 31 30 29 27 25 24 23 23 22 22 23 23 22 22 22 21 21 21 21 21 20 19 19 18 17 17 16 16 17 16
38 36 34 33 33 33 33 33 33 33 32 32 32 31 30 28 26 24 23 23 22 23 24 25 24 23 22 22 22 22 22 22 22 21 21 20 19 18 17 18 18 18
39 37 35 34 33 32 33 33 33 33 32 31 31 31 30 29 27 25 24 23 22 23 25 26 26 25 24 23 23 23 23 23 23 23 23 22 20 20 19 19 19 19
38 37 36 35 34 33 32 32 32 32 32 31 31 31 30 30 29 27 26 24 23 23 25 27 27 26 26 25 24 24 23 23 23 23 23 22 21 21 20 20 20 20
39 38 37 36 35 34 33 32 32 31 31 32 31 30 30 30 29 28 27 26 25 24 25 26 27 27 27 26 26 25 24 24 23 23 23 22 22 21 20 20 21 21
41 40 39 38 37 35 33 32 31 31 31 32 31 31 30 29 29 29 28 28 27 26 26 27 27 27 27 28 28 27 26 25 25 24 24 23 23 22 22 22 22 21
43 42 41 40 38 36 34 33 32 31 31 32 32 32 31 30 29 30 30 29 29 29 28 28 28 28 28 28 29 28 28 27 26 26 25 25 24 23 23 23 23 21
44 43 42 40 39 36 34 33 32 32 31 32 33 33 32 31 31 31 30 30 30 30 30 30 29 29 29 29 29 29 29 29 28 28 27 26 26 25 24 24 24 23
44 43 41 40 38 36 34 33 32 32 32 32 33 33 33 33 33 32 32 31 31 31 31 31 31 30 30 30 30 30 30 30 30 29 29 29 28 27 27 27 26 25
44 41 40 38 37 36 34 33 32 32 32 32 33 33 34 34 34 33 32 32 32 32 32 32 32 32 32 32 32 31 31 31 31 31 31 31 30 30 29 29 29 28
43 41 40 39 38 37 36 34 32 31 31 32 33 34 34 34 34 34 33 33 33 33 33 34 34 34 34 33 33 32 32 32 32 32 32 31 31 31 31 31 30 30
43 42 41 40 39 38 36 34 33 32 32 32 33 34 34 35 35 35 35 35 34 34 35 35 35 35 34 34 33 33 33 32 32 32 32 32 32 32 31 31 31 31
44 43 42 41 40 39 37 35 34 33 32 32 32 33 34 35 35 35 36 36 35 36 36 36 36 36 35 35 34 33 33 33 33 33 32 32 32 32 32 32 31 31
43 43 42 41 40 39 38 36 35 34 33 32 32 33 33 34 35 36 36 36 36 36 37 37 37 36 35 35 35 34 34 34 34 34 33 33 33 33 33 32 32 32
43 42 42 41 40 39 38 37 36 35 34 33 32 32 32 34 35 36 36 36 36 37 37 37 37 36 36 35 35 34 34 34 34 34 34 34 34 33 33 32 32 31
42 42 41 40 39 38 37 37 37 36 34 33 32 32 33 34 34 35 36 36 36 37 37 37 37 36 36 35 35 34 34 34 34 34 35 35 34 34 33 32 31 31
41 41 40 40 39 38 38 38 37 36 35 34 33 33 33 33 33 34 34 35 35 36 37 37 37 36 35 35 34 34 33 33 34 34 35 35 34 33 32 31 31 31
40 40 39 39 38 39 39 39 38 36 35 34 34 34 33 33 33 33 33 34 34 35 36 37 36 35 34 34 33 33 33 33 34 34 34 34 34 32 31 30 30 30
38 37 37 37 38 39 39 37 36 35 34 34 34 34 34 33 33 33 32 32 33 34 34 35 35 33 33 32 32 32 32 32 33 33 33 33 32 30 30 29 29 29
35 34 34 35 36 37 35 33 32 32 31 31 33 33 32 31 31 30 31 31 31 32 32 33 33 32 31 30 30 30 31 30 30 31 32 32 30 28 28 28 28 27
32 32 32 33 34 34 32 30 29 28 28 29 31 31 29 29 28 29 29 29 29 29 29 29 30 28 28 28 28 28 28 28 28 30 31 30 28 27 27 26 26 26
31 31 31 32 32 31 29 28 27 27 28 29 30 30 28 28 29 29 29 28 27 27 26 26 26 25 24 24 24 25 25 25 27 29 29 27 26 25 25 25 24 24

ECMWFNIL_850_spd_075.txt.gz
Wind_Speed
32 33 33 33 33 32 31 30 28 27 26 25 25 24 23 21 19 18 18 17 17 17 17 16 15 14 14 13 13 13 13 12 12 11 11 11 10 10 9 9 9 9
31 32 32 32 33 33 32 31 29 28 26 25 24 24 23 21 20 19 18 18 17 17 17 17 16 16 15 15 14 14 14 13 13 12 12 12 11 11 10 9 9 9
31 30 30 30 31 32 32 32 31 29 27 26 25 24 23 22 21 20 19 19 18 18 18 18 17 17 16 16 15 15 15 15 14 13 13 13 13 12 11 11 11 11
32 31 29 28 29 30 31 32 31 29 28 26 25 25 24 23 22 21 20 20 19 19 19 19 18 18 18 17 17 17 17 16 15 15 14 14 14 13 13 12 12 12
33 31 30 28 28 28 29 31 31 30 28 27 25 25 25 24 23 22 22 21 21 20 20 20 20 19 19 19 19 19 18 18 17 16 16 16 15 14 14 13 13 13
33 32 31 29 28 27 26 27 29 29 28 27 26 26 26 25 24 24 23 22 21 21 21 21 21 21 20 20 20 20 20 19 18 18 18 17 16 16 15 15 15 14
33 32 31 30 30 28 27 26 27 27 27 27 26 26 26 26 25 24 24 23 23 22 21 22 22 23 22 22 22 22 21 21 20 19 19 18 18 18 17 17 16 16
33 32 31 31 31 30 28 27 26 26 27 26 26 25 25 25 25 25 25 24 24 23 22 22 23 23 24 23 23 23 22 22 22 21 20 20 19 19 18 18 17 17
33 32 32 31 31 30 29 28 27 26 26 26 25 25 25 25 25 26 26 26 25 25 23 22 22 23 24 25 25 24 24 24 23 22 21 20 20 19 18 18 18 18
34 33 33 32 32 31 29 28 28 27 26 25 25 26 26 26 26 26 27 27 27 27 25 24 23 23 24 25 26 25 25 25 24 23 22 21 20 19 19 19 19 19
36 35 34 33 32 31 30 29 28 28 26 25 25 26 26 26 26 27 28 28 28 28 27 26 25 24 24 25 26 26 26 26 26 25 23 22 21 20 20 20 20 19
38 37 35 34 33 32 31 30 29 28 27 25 25 25 25 26 26 27 28 28 28 28 28 28 27 26 25 25 26 26 26 26 26 26 25 24 23 22 22 22 21 21
39 37 35 34 33 32 31 30 30 29 27 26 25 25 25 26 26 28 28 28 27 28 29 29 28 28 27 27 26 26 27 26 27 27 27 26 25 24 24 23 23 22
39 37 35 34 33 32 31 31 30 29 28 27 26 26 26 26 27 28 28 28 27 28 28 29 29 29 29 29 29 28 28 27 27 27 28 27 26 26 26 25 25 24
38 37 35 34 33 32 32 32 31 30 29 29 28 27 26 26 27 28 29 29 29 29 29 29 30 30 31 31 30 29 29 29 28 28 28 28 28 28 27 27 27 27
38 37 36 35 35 34 34 33 32 31 31 30 29 28 27 28 28 29 29 29 30 30 30 30 31 32 32 32 31 30 30 30 30 30 29 29 29 29 29 29 28 28
39 38 38 37 36 35 34 33 32 32 32 31 31 30 29 29 29 29 30 30 31 32 32 32 32 32 32 32 31 31 30 30 31 31 30 30 30 30 30 30 29 29
39 39 39 38 37 36 35 33 33 33 33 33 32 31 31 31 31 30 31 31 32 33 33 33 33 33 32 32 31 31 30 30 31 31 31 31 31 31 31 30 30 30
40 39 38 37 36 35 34 34 34 35 35 34 33 32 32 32 31 31 32 32 33 34 34 35 34 34 33 32 32 32 31 30 31 31 31 32 31 31 31 31 31 30
39 38 37 36 35 35 35 35 35 35 35 34 33 33 33 33 32 31 32 32 33 34 35 35 35 34 34 33 33 32 31 31 31 31 32 32 32 32 32 31 31 30
39 38 37 36 35 35 35 35 35 35 35 34 34 34 33 32 32 32 32 32 32 33 34 35 36 35 34 34 33 33 32 31 31 31 32 32 32 32 32 31 30 30
39 38 37 36 35 35 35 35 35 35 34 34 34 34 34 33 33 32 32 32 31 32 33 35 36 35 35 34 33 32 32 31 31 32 32 32 32 31 31 30 30 29
38 37 36 35 35 35 36 35 35 34 33 33 34 35 35 34 33 33 33 32 31 32 33 34 35 35 34 34 33 32 32 32 32 31 31 32 32 31 30 30 29 28
37 36 35 34 35 35 34 34 34 33 33 33 34 34 34 34 33 32 33 32 32 32 32 33 33 33 33 33 32 31 31 31 31 31 31 32 31 30 30 29 28 28
34 34 33 33 33 33 32 31 31 30 30 31 32 32 32 32 32 32 32 31 30 30 31 31 31 32 32 31 31 30 30 30 29 30 31 31 31 30 29 28 27 27
32 32 31 31 31 29 28 27 27 28 29 30 31 30 30 30 31 31 31 30 29 29 29 30 29 29 30 29 29 29 29 28 28 29 30 30 30 28 27 26 26 26

ECMWFNIL_850_spd_078.txt.gz
Wind_Speed
33 32 32 32 32 32 31 30 29 27 26 25 24 23 22 21 21 20 19 17 16 15 14 14 13 13 12 12 11 11 10 10 9 8 7 6 5 5 5 5 5 6
32 32 30 29 30 31 30 30 29 28 26 25 24 23 22 20 20 20 20 18 16 16 16 15 14 14 13 13 12 12 11 11 11 10 9 7 6 6 6 6 6 7
32 31 28 26 28 30 29 29 29 28 27 25 24 23 22 21 20 20 20 19 18 17 17 16 15 15 14 14 13 13 12 12 11 11 10 9 8 8 7 7 8 8
32 31 27 27 29 30 28 29 29 28 28 27 25 23 22 22 21 20 20 20 19 18 18 17 16 16 15 15 14 14 13 13 12 12 11 11 10 10 9 9 10 9
32 31 28 28 30 29 29 30 29 29 28 27 26 25 24 23 22 21 21 20 20 19 18 18 18 17 17 16 15 15 15 14 14 13 13 12 11 11 11 11 11 11
33 32 30 29 29 29 30 30 29 29 28 28 27 26 25 24 22 22 22 21 21 20 20 20 19 19 18 17 17 17 16 16 15 15 15 15 14 13 12 12 12 12
35 34 32 30 29 29 29 29 28 28 28 28 27 27 26 24 23 23 23 23 22 21 21 21 21 21 20 19 18 18 19 19 18 18 18 17 16 15 15 13 13 13
37 35 33 32 30 29 29 28 27 27 27 27 28 28 27 25 24 24 24 24 24 23 23 23 23 23 21 21 20 20 20 20 20 20 20 19 17 16 16 15 15 15
38 36 35 33 32 31 30 28 27 26 26 27 27 28 27 26 26 25 25 26 25 25 25 24 24 23 22 22 22 22 22 21 21 21 21 20 19 18 17 17 17 17
38 37 36 34 33 33 31 29 28 27 26 26 26 26 27 27 26 26 26 27 27 27 26 25 25 24 23 24 24 24 24 23 22 22 22 21 20 19 18 18 18 18
39 38 37 36 35 34 32 31 29 28 27 27 26 26 27 27 27 27 27 28 28 27 27 26 26 25 25 25 25 25 25 24 24 24 23 22 22 21 20 19 19 18
40 39 38 37 36 34 33 31 30 29 29 28 27 26 27 27 28 28 28 28 28 27 27 27 27 27 26 26 26 26 26 26 25 25 24 24 23 22 22 21 20 20
41 40 40 38 37 35 33 32 31 30 30 29 27 27 27 28 28 28 29 29 28 28 28 28 28 28 28 28 27 26 27 26 26 26 25 25 24 24 23 23 22 21
42 41 41 39 38 35 34 34 32 31 31 30 28 28 28 29 29 29 29 29 29 28 28 28 29 29 30 30 29 28 28 27 27 26 26 26 26 25 25 25 24 23
42 42 41 40 38 36 36 35 34 33 32 31 30 29 29 29 28 28 29 29 28 28 28 29 30 30 31 31 31 30 29 28 28 28 27 27 27 27 26 26 25 24
42 42 41 40 39 38 36 36 35 33 32 32 31 30 29 29 29 29 28 28 28 28 29 29 30 31 31 32 32 31 30 30 29 29 29 28 28 28 27 27 26 25
42 42 42 41 40 39 37 36 35 34 34 33 32 31 30 30 30 30 29 28 29 29 29 30 31 31 31 31 31 31 31 31 31 31 30 30 30 29 28 28 28 27
41 41 42 42 41 40 38 37 36 36 35 35 33 32 32 31 31 31 31 30 30 30 30 31 32 32 31 30 31 31 31 31 31 32 32 32 31 31 30 30 30 30
41 41 42 42 42 41 39 38 37 37 37 35 34 33 33 33 33 33 32 32 32 32 32 32 32 33 32 31 31 31 31 31 32 32 33 33 33 33 32 32 32 32
40 41 42 42 42 41 40 39 38 38 37 36 35 35 35 35 35 34 34 33 33 33 33 33 33 34 33 32 32 32 31 31 32 33 34 34 35 34 34 34 34 33
41 42 42 42 42 42 41 40 39 39 38 37 37 37 36 36 35 34 34 34 34 34 34 35 35 35 34 33 32 32 32 32 32 33 34 35 35 35 35 35 34 34
42 42 42 42 42 42 41 41 40 39 39 38 38 38 37 36 35 34 34 34 34 34 35 35 36 36 36 35 33 33 33 33 33 34 35 36 36 36 36 36 35 35
41 41 42 41 41 41 41 41 40 40 39 38 38 38 37 36 35 34 34 34 34 34 34 35 36 36 37 36 35 35 34 34 34 35 35 36 37 37 37 37 37 36
40 40 40 40 40 40 41 40 40 39 38 37 36 36 36 36 34 34 34 34 34 34 34 35 35 35 36 36 36 35 35 34 35 35 36 37 37 37 37 38 38 37
39 39 38 38 39 40 40 40 39 38 37 36 36 35 36 35 34 34 35 34 34 34 34 34 34 34 35 35 35 35 35 34 34 35 36 37 37 38 38 38 38 38
38 37 37 37 38 38 38 38 38 37 37 36 36 36 36 35 34 34 35 35 34 34 33 33 33 33 34 35 34 34 34 34 35 36 37 38 38 38 38 39 39 39

ECMWFNIL_850_spd_081.txt.gz
Wind_Speed
38 38 37 36 35 33 32 31 30 28 26 24 21 20 21 20 19 18 17 16 15 14 14 13 13 12 11 10 9 9 9 8 7 7 7 7 6 5 5 4 4 4
39 38 38 37 36 35 33 32 31 29 28 26 22 19 19 19 20 19 19 18 16 15 15 15 14 13 13 12 11 10 9 9 8 9 8 7 7 7 6 5 5 5
39 37 37 37 36 35 34 32 32 30 28 27 25 21 18 19 20 20 19 19 18 17 16 16 15 15 14 14 13 12 11 10 9 9 9 9 9 8 7 6 6 6
39 37 36 35 34 33 32 31 32 31 28 25 25 24 21 19 20 20 19 19 19 19 18 17 16 16 15 15 14 14 13 12 11 10 11 10 10 10 9 9 8 7
40 37 35 34 32 31 31 30 31 31 28 26 25 25 24 22 20 20 21 20 20 20 19 19 19 17 17 16 15 15 15 13 12 12 12 11 10 10 10 10 11 10
40 38 35 35 33 31 31 30 30 30 28 26 25 25 25 25 23 22 21 22 22 21 20 20 20 19 18 18 17 16 16 15 13 13 13 12 12 11 10 11 12 12
41 39 37 35 33 32 32 31 30 29 28 26 26 25 25 25 26 24 23 23 22 22 21 20 21 21 19 19 19 18 18 17 15 15 15 14 13 13 12 12 12 12
42 40 38 37 35 34 33 32 30 30 29 27 26 27 26 26 26 26 24 24 23 22 22 21 22 22 21 20 20 19 19 18 18 18 17 15 15 15 14 14 14 14
42 40 39 38 35 34 34 32 31 31 31 30 28 27 27 27 27 26 26 26 24 23 24 24 24 24 23 22 22 21 20 19 19 20 20 18 18 18 17 16 16 15
43 41 39 38 35 34 33 31 29 30 31 32 30 27 27 28 28 27 27 27 27 26 26 26 26 26 25 24 24 24 22 21 20 20 21 20 20 20 19 17 16 16
43 41 38 38 36 34 32 30 28 28 30 31 31 28 26 28 29 29 29 29 29 28 28 28 28 27 26 25 25 25 25 24 23 22 22 21 21 20 19 17 17 17
44 42 40 39 38 34 31 30 29 28 28 29 30 29 27 27 29 31 31 31 30 30 30 30 29 29 28 27 25 25 26 26 25 24 24 23 22 21 20 19 19 18
46 45 43 40 39 36 31 30 30 29 28 28 29 29 28 27 28 30 32 32 31 31 31 31 30 29 29 28 27 25 25 25 25 24 24 24 23 22 21 20 19 19
47 46 44 41 39 37 33 31 30 30 29 28 28 29 28 27 27 28 31 32 32 32 31 31 30 30 30 30 29 27 26 26 26 24 24 24 24 23 22 20 19 19
46 44 44 41 38 37 36 33 31 31 31 29 29 29 29 28 27 26 28 31 32 32 31 31 31 31 31 31 30 29 28 28 28 27 25 25 24 24 23 22 21 20
45 43 43 42 39 38 38 36 32 31 31 30 30 30 30 29 28 27 26 28 31 32 32 32 32 32 32 31 30 29 29 29 29 29 27 26 26 25 24 23 22 21
45 45 43 43 41 41 41 38 35 32 32 32 32 31 31 31 30 29 27 26 28 31 32 32 33 33 33 31 29 29 29 29 30 30 30 28 28 27 26 24 23 22
45 46 46 45 44 43 43 42 38 35 33 33 33 33 34 33 32 32 30 28 26 27 30 32 33 34 33 30 29 28 28 28 29 30 31 30 29 29 27 26 25 24
45 46 47 46 46 45 44 43 41 39 37 35 35 35 36 35 34 34 33 31 28 27 27 29 30 33 33 31 29 28 27 27 28 28 30 30 30 30 29 28 28 27
45 46 47 47 46 46 45 44 43 43 41 37 35 36 37 37 36 35 35 35 33 30 28 28 28 30 33 32 29 28 27 27 27 28 28 29 29 30 30 29 29 28
45 46 46 46 46 46 45 44 43 44 43 38 34 35 38 39 37 36 36 37 36 33 31 30 29 29 31 33 30 29 29 28 28 29 29 30 30 31 31 31 31 31
45 45 45 46 46 46 45 45 44 44 44 41 36 33 35 38 38 37 37 37 38 37 34 32 31 30 32 34 32 30 29 30 30 31 31 32 33 33 34 33 33 33
44 45 45 45 45 46 46 45 45 44 44 44 41 35 32 34 38 38 38 38 38 38 37 36 33 33 34 35 34 33 31 31 32 33 34 35 35 35 36 36 36 35
44 44 44 44 44 46 46 46 46 45 44 44 44 39 32 30 32 35 37 39 39 38 38 37 35 35 36 37 36 35 34 33 34 34 35 36 36 36 37 37 37 37
43 43 43 43 44 45 45 45 45 45 45 44 44 42 35 30 28 30 33 36 38 37 37 37 36 35 36 37 37 37 35 34 34 35 36 37 37 37 38 38 39 38
41 42 42 42 43 43 44 44 44 43 43 43 43 42 38 32 29 28 28 30 33 33 33 34 35 35 35 36 37 36 35 34 34 35 36 36 36 37 38 38 39 39

ECMWFNIL_850_spd_084.txt.gz
Wind_Speed
37 37 36 34 32 30 28 27 25 24 22 21 20 18 17 16 15 15 14 13 12 12 13 12 11 10 10 9 9 10 9 7 6 6 6 6 6 7 5 3 6 9
37 36 36 35 33 32 30 28 27 26 25 23 21 20 18 17 17 16 16 16 14 13 13 14 13 12 12 11 10 10 9 8 8 8 8 8 7 8 7 5 4 6
38 37 36 36 35 34 32 30 29 27 26 24 23 21 19 18 18 18 19 20 18 15 14 15 15 14 13 13 12 11 10 9 9 9 9 9 9 9 9 7 5 4
40 39 37 37 36 35 33 31 30 29 27 26 25 23 21 20 19 19 21 21 20 18 16 16 16 15 15 14 14 13 11 11 10 10 10 10 10 10 10 10 9 7
41 40 38 38 37 35 34 33 31 30 29 27 26 25 23 22 20 20 21 22 21 20 18 18 17 16 16 16 16 15 14 12 12 11 11 11 10 11 11 11 12 12
41 40 40 39 38 36 35 34 33 32 31 29 27 26 24 24 23 22 22 22 21 21 21 20 19 18 18 17 17 16 15 15 13 13 13 12 11 12 12 11 12 13
42 42 41 39 38 37 35 34 33 32 31 30 28 27 26 26 26 26 24 22 22 22 22 22 21 21 20 18 18 17 17 16 15 15 15 13 13 13 12 12 12 13
43 42 41 40 39 37 36 35 34 33 32 30 28 27 27 27 28 28 27 24 23 23 22 22 22 22 21 20 19 18 18 17 17 17 16 15 14 14 14 13 13 14
43 42 41 41 40 38 37 36 35 33 32 31 29 28 28 28 28 29 28 27 25 24 23 23 23 23 22 22 21 20 19 18 19 19 18 17 15 15 15 15 15 15
43 42 42 41 40 40 38 36 35 33 32 32 30 29 29 29 29 29 29 28 27 26 25 25 25 24 23 23 22 21 20 19 19 19 20 19 17 17 16 16 16 16
44 43 43 42 41 41 39 36 34 33 32 32 31 30 30 30 31 30 29 29 28 28 27 26 27 27 25 24 23 22 21 20 20 20 20 20 19 18 18 18 18 17
45 45 44 43 42 41 39 37 34 32 32 32 32 32 30 30 31 31 30 30 30 29 29 28 28 28 28 26 25 24 23 21 21 21 21 21 20 19 19 19 19 18
47 46 44 44 43 40 39 37 35 33 32 32 33 33 32 30 30 31 32 31 31 30 30 30 30 30 30 28 27 26 25 23 23 23 23 23 22 21 20 20 20 19
46 45 44 43 42 41 38 36 35 34 33 32 33 33 33 31 30 31 31 31 32 31 31 31 31 31 31 30 28 28 27 25 24 24 23 23 23 23 22 22 21 20
44 44 44 42 41 41 39 37 36 35 34 33 33 33 33 32 31 30 30 31 32 32 31 32 32 33 32 31 30 29 28 27 26 25 24 24 23 22 22 22 22 21
43 43 43 42 42 41 40 39 37 35 35 34 34 34 33 33 32 31 30 31 31 32 32 32 33 34 33 32 30 29 29 29 28 27 26 25 24 23 23 22 22 22
43 43 42 42 43 42 41 41 38 36 36 35 35 35 33 33 34 33 31 30 31 31 32 33 34 34 33 32 31 29 28 29 29 29 27 27 26 26 25 24 23 22
42 43 43 43 43 43 43 42 40 38 37 36 36 36 35 34 34 35 33 31 30 31 31 31 33 33 33 32 30 29 28 28 29 29 29 29 28 27 27 25 24 23
42 43 43 43 44 44 43 43 42 41 39 38 37 37 36 35 34 35 35 33 31 30 31 30 30 32 32 32 30 28 27 27 28 29 30 30 29 29 28 27 26 24
42 43 44 44 44 44 43 43 43 43 41 39 38 37 37 36 35 35 36 36 33 31 31 31 29 30 31 31 30 28 27 27 27 28 29 30 30 29 28 28 27 26
42 44 44 44 44 44 44 44 44 44 42 40 38 37 37 37 36 35 35 36 36 33 32 31 30 29 29 30 30 29 28 28 28 28 29 29 28 27 27 27 26 26
44 44 45 45 45 45 45 45 44 44 44 41 38 36 36 37 37 36 35 36 37 36 34 31 30 29 29 29 29 28 27 27 27 28 29 29 28 26 26 27 26 26
44 45 45 45 45 45 46 45 45 45 44 43 40 36 34 36 37 37 36 35 36 37 36 34 31 30 29 29 29 28 26 26 26 27 29 30 30 29 28 27 28 28
45 45 46 46 46 46 47 46 45 45 45 44 43 38 34 33 35 36 35 35 35 35 36 36 34 32 31 31 30 29 28 27 27 27 28 30 31 32 32 31 31 31
44 44 45 46 46 46 47 47 46 45 44 44 44 41 35 31 31 33 33 33 34 33 34 35 35 35 34 34 33 32 31 30 29 29 29 30 30 32 34 34 35 35
44 44 45 45 45 45 47 47 46 45 45 44 44 43 39 34 31 30 31 31 31 32 33 34 35 35 35 35 35 34 33 32 32 32 31 31 31 31 32 33 35 36

ECMWFNIL_850_spd_087.txt.gz
Wind_Speed
38 37 36 34 32 30 28 26 25 24 22 21 19 16 14 12 11 11 11 11 12 12 11 11 11 12 13 14 14 12 9 9 10 11 11 11 11 13 13 12 11 10
41 39 38 36 34 32 30 28 26 25 24 22 21 18 16 14 13 12 12 11 12 13 13 13 12 12 12 12 13 13 10 9 10 11 12 11 11 11 12 13 13 12
41 41 40 39 37 35 33 31 29 27 26 24 22 21 19 17 15 14 14 13 12 13 15 14 13 13 13 12 13 13 12 11 10 11 12 12 11 11 11 14 13 13
41 42 42 41 39 37 35 34 32 30 28 26 25 23 21 19 17 16 16 16 14 14 15 15 14 14 14 13 14 14 13 12 12 12 12 12 13 12 11 12 13 12
40 40 41 42 41 39 38 37 35 33 31 29 27 25 24 22 20 18 18 18 17 16 16 17 16 15 15 15 15 15 15 14 14 14 13 13 13 13 13 13 12 13
41 41 41 41 41 40 40 39 37 35 33 31 29 28 26 24 22 21 20 19 19 19 18 18 18 17 17 16 16 16 16 16 15 15 14 14 14 14 14 15 14 14
43 42 41 41 40 40 40 39 38 37 35 33 31 30 28 26 25 23 22 21 21 20 20 20 20 20 18 18 18 17 16 17 17 17 16 15 14 15 16 16 16 16
45 43 43 42 41 41 40 39 39 37 36 34 33 32 30 28 27 25 24 23 23 22 21 21 21 21 20 20 19 18 17 18 18 18 18 17 16 16 16 17 17 17
46 45 45 44 43 43 41 40 39 38 37 36 35 33 32 30 29 27 26 26 25 24 22 22 22 21 22 22 20 19 19 19 19 19 19 18 18 17 17 17 17 17
48 47 46 46 45 44 43 42 41 40 39 38 36 35 33 31 30 29 29 28 27 26 24 24 23 23 22 23 22 21 20 20 20 20 20 19 19 18 18 18 18 18
50 49 48 48 47 46 45 43 42 41 40 39 38 36 35 33 31 31 31 31 30 28 27 25 25 24 24 23 22 22 22 21 21 21 20 19 19 18 19 19 19 18
50 51 50 49 48 47 46 44 43 42 41 40 39 37 35 34 33 32 32 32 31 29 28 27 26 25 25 24 23 23 23 22 22 22 21 20 19 19 19 19 20 19
51 51 51 50 49 48 46 45 44 43 42 41 39 38 36 35 34 34 33 33 32 31 29 28 27 27 26 26 25 24 23 23 22 22 22 22 20 19 19 19 19 19
52 52 51 50 49 48 47 46 45 44 42 41 39 38 37 37 35 34 34 33 33 32 30 29 29 28 28 28 27 26 25 24 23 22 23 23 22 21 20 19 19 19
50 51 51 50 49 48 47 47 45 44 42 41 39 38 38 38 37 35 34 34 34 33 32 31 30 30 29 29 29 28 27 25 24 23 23 23 23 22 22 21 20 20
48 50 50 50 50 49 47 47 46 44 43 41 40 38 38 38 38 37 36 35 34 34 34 33 32 32 30 30 29 29 28 27 25 24 24 23 23 23 23 22 21 21
47 48 49 50 50 49 48 47 46 44 43 42 41 39 37 37 39 39 38 37 36 35 35 34 34 32 31 30 29 29 29 28 27 25 24 24 24 23 23 22 21 21
46 47 48 50 49 49 49 47 46 45 44 43 42 40 38 37 39 40 40 38 37 37 36 35 34 32 31 30 30 29 29 29 28 27 26 26 25 24 24 23 22 22
46 46 47 49 49 49 49 47 47 46 45 44 43 41 39 38 38 40 40 39 38 38 37 36 34 32 31 30 30 30 29 29 29 29 28 27 27 26 25 25 24 23
46 46 47 48 48 48 48 48 48 47 46 45 44 42 41 40 39 39 40 40 39 38 37 36 34 32 30 30 30 29 29 29 29 29 30 29 28 28 27 27 26 25
47 47 46 47 47 48 48 48 48 48 47 46 45 44 43 42 40 39 40 40 40 39 37 36 34 32 30 28 28 27 28 30 30 30 30 31 31 30 29 28 27 26
48 48 47 47 47 47 48 49 49 48 48 47 45 45 44 43 42 40 39 40 40 40 38 37 36 33 30 28 26 24 25 28 30 30 30 31 32 31 31 30 29 28
48 49 48 47 47 48 48 49 49 48 48 47 46 45 44 44 43 42 41 40 40 41 40 38 37 35 32 30 28 25 24 25 27 28 29 31 31 31 32 32 31 29
49 49 49 48 48 49 49 49 49 48 48 48 47 46 45 44 43 43 42 41 40 41 41 40 38 36 34 32 30 28 26 24 24 25 27 28 29 30 32 32 32 31
49 48 49 49 49 50 50 49 49 48 48 48 48 47 44 43 43 43 43 42 41 40 41 42 40 37 35 33 32 30 28 26 25 25 25 26 27 27 29 31 33 33
49 49 49 50 49 50 50 49 49 48 47 47 48 48 45 43 41 42 42 42 42 40 40 42 42 40 38 35 33 32 30 29 28 28 27 27 27 26 27 28 30 32

ECMWFNIL_850_spd_090.txt.gz
Wind_Speed
39 38 37 35 32 30 30 28 26 24 23 22 21 20 18 16 15 16 16 16 15 15 15 16 16 15 15 15 15 13 12 12 13 13 14 14 15 17 18 17 16 15
42 41 39 37 34 32 31 29 26 25 24 22 21 19 17 16 16 16 16 17 17 16 16 16 16 16 15 15 14 14 14 13 13 14 14 14 17 20 20 18 17 14
44 43 42 39 37 35 33 31 28 27 25 23 21 20 19 18 17 16 16 17 18 18 18 18 17 17 18 16 15 15 15 14 14 14 15 15 17 19 20 19 17 15
46 46 45 42 40 37 35 34 32 30 28 26 24 22 21 20 19 17 17 17 18 19 19 19 19 19 19 18 17 16 15 15 14 14 15 15 16 17 19 20 19 17
47 47 46 45 42 40 38 37 35 33 32 30 27 25 24 23 21 20 19 18 18 18 19 20 20 20 20 19 18 18 16 16 16 16 16 16 16 16 17 19 20 19
47 48 47 46 45 43 41 40 38 36 35 33 31 28 27 25 24 23 22 21 20 19 20 21 21 21 21 20 20 20 19 17 17 18 18 17 17 17 17 17 19 19
47 47 48 47 46 45 44 42 40 39 37 35 33 32 30 28 27 26 25 24 22 21 20 21 22 22 22 22 22 22 21 20 19 19 19 18 18 18 18 18 18 19
47 47 47 47 47 47 46 44 43 41 39 37 36 34 32 31 30 28 27 26 25 23 22 22 23 24 24 24 24 23 22 22 21 21 21 20 19 19 19 19 19 19
48 47 47 47 47 47 46 46 45 43 41 40 38 36 35 33 32 31 30 29 28 26 24 24 24 25 25 26 25 24 23 23 23 23 22 22 21 20 20 20 20 20
47 48 48 48 48 47 46 45 44 44 43 42 40 39 37 36 34 33 32 31 30 28 27 26 25 25 26 27 27 26 25 24 24 24 24 23 22 21 21 21 21 21
46 47 49 49 49 48 47 45 44 43 43 42 41 40 39 38 36 35 34 33 32 30 29 28 27 26 26 27 28 28 26 25 24 24 24 24 23 22 22 21 21 21
45 46 48 49 49 49 48 47 45 43 43 42 41 41 39 38 38 37 36 35 33 32 31 29 28 28 27 26 28 28 28 27 25 25 24 24 24 23 23 22 22 22
45 45 45 46 48 48 48 48 47 46 44 43 41 41 40 39 38 38 37 36 34 33 32 31 30 29 29 27 27 28 28 28 27 26 25 24 24 23 23 23 23 23
45 44 44 44 45 46 47 48 48 47 46 45 43 42 41 40 39 38 37 37 35 35 33 32 31 31 31 29 28 28 29 28 27 27 27 26 25 24 23 23 23 23
45 44 43 43 43 45 46 48 48 48 47 46 46 45 43 42 41 40 39 38 37 36 35 34 34 33 32 31 30 29 29 29 28 27 27 27 26 26 25 24 23 23
44 44 43 43 44 45 45 47 48 48 48 48 47 46 45 44 42 41 41 39 38 37 36 35 35 35 33 32 31 30 30 29 29 28 27 26 26 27 26 25 24 23
43 43 43 43 44 45 45 46 47 48 48 48 48 47 46 45 44 43 42 40 39 38 37 37 36 35 33 32 31 30 30 30 29 28 27 27 26 27 27 26 25 24
43 41 41 42 43 44 44 45 46 47 48 48 48 48 47 46 44 44 42 41 39 39 38 38 37 35 33 32 31 31 30 30 30 29 28 28 27 27 27 26 25 24
42 41 40 41 41 41 42 43 45 47 48 48 48 48 47 46 46 44 42 41 40 40 39 39 38 36 34 33 32 31 31 31 30 30 29 28 28 27 27 26 26 25
43 42 41 41 40 39 39 41 44 46 47 48 48 48 47 47 46 45 43 42 40 40 39 39 38 37 35 33 33 32 32 32 32 32 31 30 29 29 28 27 26 25
45 43 42 41 40 39 38 40 42 44 46 47 47 47 48 48 47 46 45 43 41 39 40 40 39 37 36 34 33 32 32 33 33 34 34 33 31 30 30 29 28 27
45 44 43 42 40 39 38 39 41 43 45 46 47 47 47 47 47 47 46 44 42 40 40 40 39 37 36 34 32 31 32 33 34 34 35 35 33 32 31 30 30 29
45 45 44 42 40 39 39 39 40 42 44 45 46 47 47 47 47 47 46 45 43 41 41 40 39 37 36 34 32 31 31 31 32 34 35 35 34 33 32 31 31 31
44 45 45 43 42 41 40 40 40 41 43 44 46 47 47 47 47 47 47 46 45 43 42 41 39 38 36 34 33 32 31 30 30 31 32 33 33 33 33 32 31 31
41 44 45 44 43 42 42 41 40 40 41 43 45 47 47 47 47 47 47 47 46 45 43 42 40 39 37 36 34 33 32 31 30 30 31 30 30 31 33 33 32 32
41 43 46 46 44 43 42 42 41 41 41 42 44 46 46 47 47 47 47 47 46 46 45 43 42 40 39 37 36 35 35 33 32 32 31 30 29 29 30 31 31 30

ECMWFNIL_850_spd_093.txt.gz
Wind_Speed
36 36 36 34 32 30 28 27 26 25 24 23 23 22 20 18 17 17 16 15 14 14 14 13 13 13 13 13 12 11 9 9 10 11 13 14 14 13 12 11 11 12
37 36 36 36 34 32 30 28 27 26 25 24 24 22 20 18 18 18 17 16 15 14 14 14 14 14 14 15 14 13 11 11 11 11 12 13 13 14 13 12 13 13
39 37 37 38 37 35 32 30 29 27 26 26 26 23 20 19 19 18 17 16 16 15 15 15 15 15 15 16 16 15 13 12 12 11 12 12 13 14 15 15 15 14
40 39 39 39 38 36 34 32 31 29 27 27 26 24 21 20 19 18 17 16 16 16 16 16 16 16 16 17 17 15 14 13 12 12 12 12 13 15 18 18 17 16
42 41 40 40 39 38 36 34 32 30 29 27 25 24 23 22 20 19 17 17 16 17 17 17 17 17 17 17 16 15 14 13 13 13 13 13 13 14 18 19 19 17
44 43 42 41 40 39 37 36 33 31 30 28 26 24 24 23 21 20 19 18 17 17 17 18 18 18 19 18 17 16 15 14 14 15 14 14 13 14 16 18 19 19
44 45 44 43 42 41 39 37 35 34 32 31 29 27 25 25 23 22 21 20 19 18 18 18 18 19 20 20 19 18 17 16 16 17 17 15 15 15 16 17 19 20
43 45 46 45 44 43 42 41 39 37 36 34 32 31 29 27 26 24 23 22 22 21 20 19 19 19 20 21 21 21 20 19 18 18 18 17 17 17 17 17 18 19
41 43 45 47 47 46 45 44 42 40 39 37 36 34 32 30 29 27 26 25 24 23 22 22 21 20 21 22 22 22 22 22 21 20 20 19 19 19 18 18 19 19
41 42 44 46 48 49 48 47 46 44 42 41 39 38 36 34 32 31 30 29 27 26 25 24 23 23 22 22 23 23 23 23 23 23 23 21 20 20 19 19 20 21
41 41 42 44 46 49 49 49 49 47 46 44 43 42 40 39 37 35 34 33 31 29 28 27 26 25 24 24 23 24 24 24 24 24 25 24 23 22 21 21 21 22
42 41 41 42 44 46 48 49 50 50 49 47 46 45 43 42 41 39 38 36 34 32 31 30 28 27 26 25 24 24 25 25 26 26 26 26 26 25 24 23 23 23
43 41 40 40 41 43 45 47 49 50 50 49 48 46 45 45 43 42 41 39 37 35 34 32 31 30 29 27 26 25 25 25 26 27 28 27 27 26 26 25 25 24
43 41 40 38 38 39 41 44 46 48 48 48 48 47 46 45 44 43 42 41 39 37 36 34 33 32 31 29 28 27 26 26 26 27 28 29 28 27 27 26 26 26
44 42 40 38 37 37 38 40 42 44 46 46 46 46 45 43 43 42 42 41 40 38 37 35 34 34 32 31 29 28 27 27 26 27 28 29 29 29 28 27 27 26
44 43 41 40 39 38 37 37 38 40 42 44 45 45 44 43 42 42 42 41 40 38 37 36 35 35 33 32 30 29 28 28 27 27 27 28 30 30 30 29 28 27
46 44 43 41 40 39 39 38 38 38 40 41 43 44 44 43 42 43 42 42 41 39 38 37 36 35 34 33 31 30 29 29 28 28 28 28 29 30 30 29 29 28
46 45 44 43 42 40 40 39 39 39 39 40 41 42 42 42 42 43 42 42 42 41 40 39 38 36 35 34 32 31 30 30 30 30 29 29 29 30 30 29 29 29
46 45 45 44 43 41 40 40 40 40 40 40 40 40 40 41 42 42 42 42 42 42 41 40 39 37 36 34 33 31 30 31 31 31 31 31 30 30 30 30 30 29
46 46 45 44 43 42 41 41 40 40 39 39 39 39 40 41 41 41 41 41 41 41 41 41 40 38 36 34 32 31 31 31 32 32 32 32 31 31 31 31 30 30
46 46 45 44 43 43 42 42 40 40 39 38 39 39 40 41 40 40 41 41 41 41 41 41 39 37 35 33 32 31 31 31 32 32 33 33 32 32 32 31 30 30
45 45 45 45 44 44 44 43 41 39 38 37 38 39 40 40 40 40 40 40 40 40 40 41 39 37 36 34 32 32 32 33 34 33 33 33 33 33 32 31 31 30
42 44 44 44 44 44 44 43 42 40 37 37 37 38 39 40 40 40 40 39 39 40 40 40 38 37 36 35 33 33 34 35 35 34 34 34 33 32 32 32 32 31
33 38 41 42 43 44 44 44 43 41 38 37 37 38 37 37 38 39 39 39 39 39 39 39 38 37 36 35 35 34 35 36 35 35 35 34 32 31 32 32 33 33
31 33 37 40 43 45 45 44 43 41 39 37 37 37 36 36 36 37 38 39 39 39 39 39 38 37 36 36 35 35 36 36 36 36 36 34 33 31 31 32 33 33
30 32 35 39 43 45 45 45 44 42 40 39 38 37 37 37 36 37 37 38 38 39 39 39 39 37 37 36 36 35 36 36 37 37 36 35 33 32 31 31 32 32

ECMWFNIL_850_spd_096.txt.gz
Wind_Speed
32 30 28 27 27 25 25 23 23 23 22 21 19 17 16 14 14 14 13 12 11 11 10 10 10 9 9 10 10 9 9 9 9 9 9 9 10 10 10 9 9 10
33 32 30 29 28 26 26 24 23 23 23 23 21 18 17 15 15 15 14 13 12 12 11 11 11 10 10 11 10 10 10 9 8 8 8 8 9 9 10 10 10 9
34 33 32 31 29 28 26 26 24 23 23 24 22 20 18 16 16 15 15 14 14 13 12 12 12 11 10 10 11 11 11 10 9 8 8 8 8 8 9 10 10 10
34 34 33 32 30 29 27 27 26 24 24 24 23 21 19 18 17 16 16 16 15 14 13 13 12 11 11 10 11 11 12 12 10 10 10 9 8 8 9 10 11 12
34 34 34 32 32 30 29 29 28 26 24 24 23 22 20 19 18 17 18 17 16 15 14 13 13 12 12 12 12 12 12 12 11 12 11 10 9 9 9 11 13 14
34 35 34 34 33 32 31 30 29 27 26 24 24 23 22 21 20 19 19 18 17 15 15 14 14 13 13 13 13 13 12 12 12 13 12 11 10 10 10 11 14 16
33 34 35 35 34 34 33 31 30 29 27 25 25 24 23 22 21 20 20 19 17 16 15 15 14 14 14 14 14 14 13 13 13 13 13 12 11 11 11 11 14 16
32 33 35 36 36 35 34 33 32 31 29 28 26 26 25 23 22 21 21 20 18 17 16 15 15 14 15 15 15 16 15 15 14 14 14 14 13 13 13 13 14 15
33 33 34 35 36 37 36 35 34 33 31 30 29 27 27 25 24 23 22 21 20 19 18 17 17 16 16 16 16 16 16 16 16 16 15 15 15 15 14 15 15 16
35 34 34 35 36 37 37 37 36 35 34 33 31 30 29 28 27 26 25 24 23 22 21 20 19 18 18 17 17 17 17 18 18 18 17 17 17 16 16 16 17 17
38 37 36 36 35 36 37 37 38 37 36 35 34 33 32 30 30 29 28 27 26 25 24 22 21 21 20 20 19 19 19 19 19 19 19 19 18 18 18 18 18 18
40 39 38 37 36 36 36 37 38 39 39 38 37 36 35 34 33 33 32 31 30 28 27 26 25 24 24 23 22 21 21 21 21 21 21 21 21 20 20 19 19 19
42 41 39 38 36 35 35 36 37 39 40 40 40 39 38 37 36 36 35 35 34 32 31 30 29 28 28 27 26 25 24 23 23 23 23 23 23 23 22 21 21 21
43 41 40 38 37 36 36 36 37 38 39 40 41 41 41 40 39 38 38 38 37 36 35 34 33 32 31 30 29 28 27 26 25 24 24 24 24 24 24 24 23 23
43 42 41 39 38 37 37 37 36 36 37 38 40 41 42 42 42 41 41 41 40 39 39 38 37 36 35 33 32 31 30 29 27 26 25 24 24 24 25 25 25 24
43 42 41 40 39 38 37 37 36 36 36 36 37 39 40 42 42 43 43 43 43 42 42 42 41 40 37 35 34 33 32 31 30 28 27 26 25 25 25 25 26 26
44 43 42 41 40 38 37 37 36 36 36 35 35 35 37 38 40 42 43 43 42 42 42 42 42 40 38 36 34 33 32 32 31 30 29 28 27 26 26 26 26 26
44 44 43 42 41 39 38 37 37 37 37 36 35 35 34 35 37 39 41 41 41 41 41 41 40 39 37 35 33 32 31 31 31 30 30 29 28 27 27 27 27 27
44 44 43 42 41 39 38 38 38 38 37 37 36 35 34 34 35 36 37 38 39 40 40 40 39 38 36 34 33 31 31 31 31 31 31 30 29 28 28 28 28 28
44 44 44 42 41 40 39 39 39 38 37 36 36 35 36 35 35 35 36 36 37 38 39 40 39 38 36 34 33 31 31 31 31 32 32 31 30 29 29 29 29 29
44 44 43 42 41 41 41 40 39 38 37 36 36 36 36 35 35 35 35 36 36 37 37 38 39 38 37 35 34 32 31 31 32 32 32 31 30 30 29 29 29 29
43 43 42 42 41 41 42 41 40 40 38 36 36 36 36 36 36 36 35 36 36 36 37 38 38 38 37 36 34 33 32 32 32 32 32 31 31 30 30 29 29 29
42 42 42 41 41 41 41 39 38 38 38 38 38 37 36 36 35 35 35 35 35 36 37 38 38 37 37 36 35 33 33 33 32 32 32 32 31 30 30 30 29 30
40 41 41 40 40 40 39 37 34 32 34 36 38 39 39 38 37 36 36 35 35 35 35 37 38 37 36 36 34 33 33 33 32 32 32 32 32 31 31 31 31 30
40 40 40 40 39 38 37 38 36 32 29 29 31 32 33 35 37 38 39 39 37 36 35 35 36 36 36 36 34 34 34 34 33 33 33 33 32 32 31 32 31 31
37 38 39 39 39 37 35 36 37 36 31 27 26 25 25 29 33 34 37 39 40 39 37 35 35 35 35 36 35 34 34 34 34 34 34 33 33 32 32 32 32 32

ECMWFNIL_850_spd_099.txt.gz
Wind_Speed
28 26 25 24 22 21 20 20 20 19 18 17 17 15 14 12 12 11 11 10 9 8 8 8 8 8 8 8 7 7 7 7 7 7 8 8 9 9 8 7 7 7
29 27 26 25 24 22 21 21 21 20 19 18 18 16 14 13 13 12 12 11 10 9 9 9 9 9 9 9 8 8 8 8 8 7 7 7 8 8 9 8 8 8
30 29 28 27 26 24 22 22 21 21 21 19 18 17 15 14 14 13 13 12 11 10 10 10 10 10 10 10 9 9 9 8 8 8 8 7 7 7 8 8 9 8
30 30 29 28 26 25 23 22 22 22 22 21 19 18 17 16 15 14 14 13 12 12 11 11 11 11 11 10 10 10 10 10 9 9 8 8 7 7 7 7 8 8
28 29 29 28 27 26 24 23 23 22 22 21 20 19 19 18 17 16 15 14 13 13 12 12 11 11 11 11 11 10 10 10 10 10 10 9 8 8 7 7 8 8
27 28 29 29 28 27 25 25 24 23 22 22 21 20 19 19 19 18 17 15 14 14 14 13 13 12 12 11 10 10 10 10 11 11 11 10 9 9 8 8 8 8
27 26 27 28 29 28 27 26 26 24 23 23 23 22 21 21 21 20 19 17 15 15 14 15 14 13 13 12 11 10 10 11 11 11 11 11 10 10 10 9 9 9
29 27 27 27 28 29 28 28 27 26 25 24 24 24 23 22 22 21 20 19 18 17 16 16 15 14 14 13 12 12 11 11 11 11 11 11 11 11 11 10 10 10
31 30 28 27 28 29 29 29 29 28 26 25 25 25 24 24 23 23 22 21 20 19 19 18 16 15 14 14 13 12 11 11 11 11 11 12 13 13 12 12 12 12
33 32 30 30 29 29 29 29 30 29 28 26 26 26 25 24 24 23 23 23 22 22 21 20 18 16 15 14 13 13 12 11 11 12 12 13 13 14 14 14 14 14
35 34 33 32 30 29 28 29 30 30 29 28 27 27 26 25 25 24 25 24 24 23 23 21 20 18 17 16 15 14 13 13 13 13 13 14 14 15 15 15 16 15
36 36 35 33 31 29 28 28 29 29 30 29 29 28 28 27 26 26 26 26 25 25 24 23 22 21 19 18 17 16 16 15 15 15 14 15 15 15 16 17 17 17
37 37 36 34 31 30 29 28 28 28 29 29 29 30 30 29 29 28 28 28 28 27 26 25 24 23 23 22 21 20 19 18 18 18 17 17 16 16 17 18 19 19
37 37 36 34 33 31 31 30 30 29 28 28 29 30 31 31 31 31 30 30 30 30 29 28 28 27 26 26 25 24 23 22 21 21 21 20 20 19 19 19 20 21
36 37 37 35 34 33 32 32 31 30 29 29 29 29 30 32 32 33 33 33 33 32 32 31 31 31 30 29 28 27 26 25 25 25 24 24 23 22 21 21 21 21
38 38 37 36 36 35 33 33 33 32 31 30 30 29 30 31 32 33 34 35 35 35 35 35 35 34 33 31 30 30 29 29 28 28 27 27 27 26 25 23 22 22
40 40 39 38 36 35 34 34 33 33 33 32 30 30 30 31 31 32 34 35 36 36 36 37 37 36 34 33 32 32 31 31 31 31 30 30 30 29 27 26 24 23
41 42 41 39 38 36 35 35 34 34 34 32 31 31 31 31 31 32 33 34 35 37 37 37 37 36 35 34 34 33 32 32 32 32 32 32 32 31 29 28 26 25
41 42 43 41 39 38 36 35 36 36 34 33 32 32 31 31 31 32 32 32 34 35 36 37 37 36 34 34 33 33 32 32 32 32 33 33 32 31 30 29 28 27
42 42 42 41 40 39 38 38 37 36 35 34 34 34 33 32 31 31 32 32 32 33 34 35 36 36 35 34 34 33 32 32 32 32 32 33 32 31 30 29 28 27
42 43 42 41 40 40 40 39 38 37 36 36 35 35 34 32 32 32 32 32 31 32 32 33 34 35 35 35 35 34 34 33 33 33 33 33 33 32 31 30 29 28
42 42 42 41 41 41 41 40 39 38 37 36 36 35 34 34 33 33 33 32 31 32 32 33 33 34 34 34 35 35 34 34 34 34 34 34 34 33 32 31 30 29
41 42 42 42 41 42 42 40 39 38 37 36 37 36 35 34 33 33 33 32 31 32 32 32 33 33 33 33 34 33 33 33 34 34 34 35 34 34 33 32 31 30
37 40 41 41 42 43 42 41 39 38 37 37 37 37 36 35 33 33 33 33 33 33 32 32 32 32 32 32 33 33 32 33 34 34 34 35 35 34 34 33 32 31
34 37 39 40 41 42 42 42 41 40 38 38 38 37 37 36 35 35 34 33 33 34 34 33 32 32 31 31 31 31 32 33 34 34 35 35 35 35 34 34 33 32
35 36 38 39 41 42 42 42 41 40 39 39 39 38 38 38 39 39 38 36 35 35 35 35 34 33 32 31 30 29 31 32 33 34 35 36 36 36 35 35 34 33

ECMWFNIL_850_spd_102.txt.gz
Wind_Speed
23 22 21 19 19 18 18 17 16 16 15 13 11 11 11 10 9 9 9 8 8 8 7 7 7 6 6 6 6 5 5 6 5 6 6 6 6 6 6 5 4 4
24 23 22 21 20 20 18 17 17 17 16 15 13 12 12 11 11 10 10 9 9 9 8 8 8 7 7 7 6 6 6 5 5 6 5 6 6 6 7 6 6 6
26 24 23 21 21 20 19 18 18 18 17 16 15 14 13 12 12 12 11 10 10 10 9 9 9 8 8 8 7 6 6 6 6 6 5 5 6 6 6 6 6 7
26 26 24 22 22 21 20 19 19 18 18 18 18 16 15 15 14 13 12 12 11 11 10 10 9 9 9 9 8 7 7 6 6 6 5 5 5 6 6 6 6 6
23 25 26 24 23 23 22 21 20 18 18 19 19 18 17 17 16 14 13 13 13 12 11 11 10 10 10 9 9 8 7 7 7 6 6 5 5 5 5 6 7 7
22 23 25 26 25 25 24 23 21 19 19 19 19 19 19 19 17 16 15 14 14 13 12 12 11 10 10 10 10 9 8 8 8 7 6 6 6 6 6 7 7 7
23 22 22 24 26 26 26 24 23 21 20 20 20 20 20 20 19 19 18 16 15 14 13 13 12 12 11 11 10 10 9 9 9 9 7 7 8 8 8 8 7 7
24 23 22 22 24 26 27 26 25 23 22 21 21 21 21 21 21 20 20 19 17 16 15 14 13 13 13 12 11 11 10 9 9 9 8 9 9 9 9 8 8 8
26 25 24 23 23 24 26 26 26 25 24 23 22 22 22 22 22 21 21 21 20 19 18 16 15 15 14 14 13 11 10 10 10 10 10 9 9 9 9 9 9 9
27 27 26 25 24 24 24 25 25 25 26 25 24 23 23 23 23 23 23 23 22 21 20 19 18 17 16 15 14 13 12 11 11 11 10 10 10 10 10 10 11 10
27 28 28 28 26 25 24 24 24 24 25 26 25 24 24 24 24 24 24 24 23 22 22 21 20 19 19 18 16 15 14 13 12 11 10 10 10 10 11 12 12 12
28 28 29 29 28 27 25 24 23 23 24 26 26 26 25 25 25 25 25 25 24 23 23 23 22 22 21 20 19 17 16 15 13 12 11 10 10 10 11 12 13 13
28 28 29 29 29 28 27 26 24 24 24 25 26 27 27 26 25 25 26 26 26 25 25 25 24 25 24 23 21 20 19 17 16 14 13 13 12 12 11 11 12 13
28 28 29 29 29 29 28 28 27 25 25 25 26 27 27 27 26 26 26 27 27 26 26 26 26 27 27 26 25 23 22 20 19 18 16 16 16 15 14 14 13 14
28 28 30 30 30 30 29 29 30 29 27 27 27 26 26 27 27 27 26 27 28 28 28 28 28 29 29 28 27 26 24 23 22 21 20 20 20 19 18 17 17 16
28 29 30 31 31 31 30 30 31 31 31 30 29 27 26 26 27 27 27 28 29 30 30 30 31 31 31 30 29 28 27 26 25 25 24 23 23 23 22 21 20 19
31 30 31 32 32 31 31 30 31 32 33 33 31 30 29 28 28 28 28 28 28 30 31 32 33 34 34 33 31 30 29 28 28 28 27 27 27 26 26 25 24 23
31 31 32 32 33 32 32 32 32 33 33 34 33 32 31 31 30 30 30 29 29 29 31 32 34 36 36 36 34 33 32 31 31 30 30 30 30 30 30 29 28 27
28 30 32 32 32 32 32 33 34 34 33 33 33 34 34 33 32 31 31 31 31 32 32 32 34 36 37 37 36 35 34 33 33 33 32 31 31 32 32 32 31 30
24 26 30 32 31 32 32 33 33 33 33 33 33 34 35 34 33 32 32 32 32 33 34 33 34 35 37 36 35 35 35 35 35 35 35 34 34 34 34 34 33 32
21 23 27 30 31 32 32 32 32 32 32 33 33 33 33 33 32 32 33 33 32 32 33 33 34 34 35 35 34 34 34 34 35 35 36 36 36 36 36 35 35 34
19 20 24 27 30 32 32 30 30 30 30 31 32 31 30 31 32 32 32 32 32 32 33 33 33 33 34 34 34 33 33 33 34 35 36 37 37 37 37 36 36 35
21 21 23 25 27 30 32 30 29 29 28 28 30 31 30 30 31 32 32 32 32 32 33 34 34 33 33 33 33 32 31 32 33 34 36 37 38 38 38 38 37 37
25 24 23 22 23 28 31 31 30 29 28 28 29 29 29 29 29 28 30 31 32 33 33 34 34 34 34 34 33 32 31 31 32 33 35 37 38 39 39 39 39 39
29 29 25 21 22 25 29 31 32 31 30 29 29 28 28 27 27 27 27 28 30 32 32 33 34 34 35 35 34 33 32 32 32 32 34 36 37 39 40 40 41 41
26 31 30 25 22 23 26 28 30 30 30 29 28 26 26 26 26 25 26 27 28 30 30 32 33 34 35 35 35 34 33 33 33 34 35 36 37 39 40 41 42 42

ECMWFNIL_850_spd_105.txt.gz
Wind_Speed
19 18 17 17 16 14 13 12 12 12 12 11 9 9 9 9 9 10 9 8 7 7 7 6 6 7 7 7 8 7 7 8 7 6 7 6 6 5 5 5 4 4
20 19 19 17 17 16 15 14 13 13 13 12 11 10 10 10 10 10 10 9 8 7 7 7 7 7 6 6 7 7 7 8 7 6 6 7 7 6 6 6 5 6
21 20 20 18 17 17 15 15 14 14 13 13 13 11 10 11 11 11 10 10 9 8 8 8 8 7 7 6 6 7 7 7 7 6 6 7 7 6 6 6 6 6
21 21 20 19 17 16 16 16 15 15 14 14 13 13 12 11 12 12 12 11 10 10 10 9 9 8 8 7 7 7 7 7 8 8 8 6 7 7 6 6 7 7
21 21 21 20 18 17 17 17 17 16 15 14 14 13 14 13 12 12 12 12 12 11 11 10 10 10 9 8 8 8 8 7 7 8 8 7 7 7 6 7 7 7
20 20 21 21 20 20 19 18 18 17 16 15 15 14 14 15 14 13 13 13 12 11 11 11 11 11 10 9 9 9 8 8 8 8 7 7 7 7 6 7 8 8
20 20 20 21 22 22 21 19 18 18 17 16 16 15 15 15 15 16 15 14 13 12 12 12 12 12 12 11 10 10 9 9 9 9 8 7 8 8 8 8 8 8
20 19 19 20 21 22 22 21 20 20 19 18 17 17 17 16 16 16 16 15 15 14 13 13 14 14 13 12 12 11 10 10 10 9 8 8 8 8 9 9 9 8
21 20 19 19 20 21 22 22 21 20 20 20 19 18 18 18 17 16 17 18 17 16 16 15 16 16 15 14 14 13 12 11 11 11 10 9 9 9 9 9 10 9
23 22 20 20 20 20 21 22 22 21 21 21 20 19 19 19 19 18 18 20 20 19 18 18 17 17 16 15 15 15 14 13 13 13 12 11 11 10 10 11 11 11
24 23 21 21 21 20 20 21 21 21 21 22 21 21 20 20 20 20 20 21 22 21 21 20 19 18 17 16 16 15 15 14 13 13 13 12 12 12 12 13 13 12
23 23 22 22 22 21 20 20 21 21 22 22 22 22 21 21 21 21 22 23 24 23 22 22 21 20 20 19 17 16 15 15 14 14 13 13 12 12 13 13 13 13
22 22 23 23 23 22 21 20 20 21 22 22 22 22 23 22 22 22 23 24 25 24 23 23 23 22 22 22 20 18 17 17 16 15 14 14 13 13 13 13 13 14
20 20 21 22 23 24 23 22 21 21 22 22 22 23 23 23 23 23 23 23 24 25 24 24 24 24 24 24 23 22 20 19 18 17 16 16 15 15 14 14 14 14
18 19 20 21 22 24 25 24 23 22 22 23 23 23 23 23 24 24 23 23 23 25 25 25 25 26 26 26 26 26 24 22 21 20 19 18 17 17 16 16 16 16
17 18 19 20 21 23 25 26 26 24 24 24 24 24 23 23 24 24 24 24 24 24 25 26 26 27 29 29 28 28 27 26 24 23 22 21 21 20 20 19 18 18
17 17 17 19 20 22 24 25 25 26 26 26 26 25 25 24 24 25 25 24 24 24 25 26 27 28 30 31 30 29 29 29 28 26 25 25 25 24 24 23 21 20
19 18 18 19 20 21 23 24 24 24 25 27 27 27 27 27 26 26 26 26 25 25 25 26 26 28 30 32 32 31 30 31 30 28 26 27 27 27 27 27 26 24
18 18 19 20 20 21 23 23 24 24 24 26 27 27 28 28 28 28 28 28 27 26 26 26 26 27 30 33 34 33 32 32 32 30 28 26 26 27 27 28 29 29
16 17 18 19 20 21 23 24 24 25 25 24 26 27 28 29 30 30 30 31 30 30 29 28 27 27 29 31 34 34 34 34 35 34 33 31 29 28 27 27 28 31
14 16 18 19 19 21 24 24 24 24 25 25 25 26 28 29 30 30 31 32 33 33 32 31 30 29 30 31 32 34 35 35 36 37 38 37 37 35 34 32 31 31
17 18 19 19 20 22 24 25 24 24 24 25 25 26 27 28 29 29 30 31 32 33 34 34 33 33 34 35 35 36 36 36 36 37 38 39 41 40 39 39 38 36
20 21 21 20 21 22 24 24 25 24 24 24 25 25 25 26 27 27 28 29 30 32 34 34 34 35 36 38 38 37 37 36 36 36 36 38 40 41 41 41 42 42
16 21 24 25 24 24 25 26 27 26 25 25 24 23 24 25 25 25 25 26 27 29 31 33 34 35 37 38 38 37 37 36 36 36 36 37 38 40 41 42 43 44
10 13 19 23 26 26 25 26 27 26 25 24 23 22 22 21 22 24 24 25 26 27 29 31 33 34 36 37 37 37 36 36 36 36 37 37 37 38 39 40 42 43
11 11 12 16 20 25 25 24 25 26 26 24 22 20 20 20 20 23 24 25 27 27 28 29 31 32 34 36 37 37 36 36 36 36 37 37 38 38 38 39 40 42

ECMWFNIL_850_spd_108.txt.gz
Wind_Speed
20 20 19 18 17 15 14 15 15 14 12 11 11 12 12 12 12 11 10 10 10 9 9 9 9 9 10 11 10 9 9 9 8 7 7 7 8 7 5 5 6 7
21 20 20 19 18 17 16 16 15 15 15 13 12 12 13 13 13 12 10 10 10 9 9 9 9 10 10 10 10 9 9 9 9 7 8 8 8 8 6 5 6 6
22 21 21 20 20 19 18 17 16 16 16 15 14 13 13 13 14 14 12 11 11 10 10 9 10 10 10 10 10 10 9 9 9 8 8 8 8 9 8 6 6 5
23 23 22 21 21 20 19 18 17 17 16 17 16 15 14 13 13 15 14 13 12 11 11 10 10 10 10 10 10 10 9 9 9 9 8 9 8 9 8 7 7 6
24 23 23 22 21 20 20 20 19 19 17 17 18 16 16 15 15 15 15 14 13 12 12 12 11 11 10 10 10 10 10 10 10 9 9 9 9 9 8 8 9 9
25 24 23 23 22 21 21 21 21 20 19 19 19 18 19 19 17 16 16 15 14 13 13 12 13 12 11 11 11 10 10 11 11 10 9 9 9 9 9 9 10 11
25 24 24 23 23 23 22 22 22 21 20 20 19 18 19 20 18 17 16 16 15 14 13 13 13 13 13 12 12 12 11 11 11 11 10 10 10 10 10 10 10 10
24 23 24 24 24 24 24 23 23 23 21 20 20 19 19 19 19 18 17 17 16 15 15 14 14 14 14 14 13 13 12 11 12 12 11 11 11 11 11 10 9 10
23 22 23 24 24 25 25 24 23 25 24 22 21 22 21 21 19 19 19 18 17 17 17 16 16 15 15 15 14 14 14 13 11 11 11 11 12 11 11 12 11 11
24 23 22 24 25 25 26 25 24 24 25 25 23 22 22 23 21 19 19 19 19 19 19 18 18 18 17 16 16 15 15 14 13 12 12 12 12 12 11 11 12 12
24 25 24 24 25 26 26 26 25 25 25 26 26 23 23 23 23 22 20 20 20 21 20 19 19 19 18 17 18 17 17 16 16 16 16 15 14 13 13 12 12 12
25 25 26 26 26 26 27 27 27 26 26 27 26 25 24 23 24 25 23 22 22 21 20 20 19 19 19 18 19 19 18 17 17 18 18 17 16 15 15 15 15 15
28 27 26 27 27 27 26 27 28 27 26 26 27 26 26 24 24 24 25 25 25 23 22 21 20 20 20 20 20 19 19 18 18 17 17 16 16 15 15 15 15 15
28 29 27 25 26 28 27 27 27 28 28 27 26 27 26 26 25 24 25 26 26 26 24 23 22 22 22 22 21 21 21 20 19 18 17 16 16 16 15 15 14 15
25 28 29 26 25 27 29 28 27 26 28 28 27 26 26 26 25 24 25 26 26 26 26 25 25 24 24 24 23 23 23 22 22 20 19 19 18 17 17 17 16 16
21 24 28 29 27 25 25 28 29 26 26 27 28 26 25 25 26 25 25 25 26 26 25 25 26 26 26 26 25 25 24 24 24 23 22 22 21 20 20 19 18 18
18 18 24 28 28 26 22 23 26 27 25 26 27 27 26 25 25 26 26 25 25 26 26 26 26 27 28 27 26 26 26 25 25 26 25 25 24 24 23 22 21 20
18 16 18 21 22 24 25 22 23 26 26 25 25 27 28 26 25 26 27 26 25 25 25 26 26 26 28 28 28 27 26 26 26 26 27 28 27 26 26 26 25 24
17 16 16 17 17 19 22 23 25 26 27 26 25 26 27 28 27 26 27 28 28 26 25 26 27 27 27 29 29 28 27 27 28 28 29 29 29 29 29 28 28 27
16 16 16 17 18 17 17 20 24 25 26 27 25 24 24 26 28 27 27 29 30 30 28 27 27 27 27 28 29 29 29 28 28 29 30 30 30 30 30 29 29 28
15 14 14 15 17 18 18 20 23 24 25 25 22 19 19 20 23 26 28 28 30 31 32 31 29 27 27 28 29 29 29 28 29 29 30 31 32 31 31 30 29 29
14 13 13 12 13 16 18 20 22 22 23 23 20 18 18 18 20 24 28 30 31 31 32 34 33 31 30 30 30 29 29 29 29 29 30 31 33 33 34 33 33 32
15 15 15 13 12 13 16 18 20 21 23 23 22 22 23 24 25 27 29 31 32 32 33 34 35 34 33 34 33 32 32 31 31 31 31 32 33 34 36 37 37 38
11 12 13 13 12 11 13 15 16 19 22 23 23 24 24 26 28 30 31 31 30 30 31 33 33 34 34 35 36 36 36 35 35 34 34 35 35 35 35 37 38 40
13 10 10 10 10 11 14 16 18 20 21 22 23 24 25 25 26 28 29 29 28 27 28 30 32 32 32 33 35 36 37 38 38 38 38 39 39 39 38 37 38 38
17 16 13 10 8 9 13 17 20 22 23 23 23 24 25 26 26 26 27 28 28 29 29 29 31 32 32 31 32 33 34 36 38 39 41 41 41 40 40 40 39 38

ECMWFNIL_850_spd_111.txt.gz
Wind_Speed
22 22 20 18 17 17 17 16 16 15 14 13 12 12 12 12 13 14 13 12 12 13 13 13 13 13 13 14 13 12 12 12 12 12 11 11 11 11 12 13 12 12
22 21 21 19 17 16 16 16 16 14 14 13 12 11 11 11 12 12 12 12 12 12 13 12 12 13 14 14 14 12 12 13 13 12 12 12 11 11 11 12 12 14
21 21 21 20 18 17 16 16 15 14 14 14 12 12 13 13 13 12 13 13 12 12 12 12 12 13 13 14 14 12 12 13 13 12 12 12 12 12 12 12 10 12
22 20 20 19 18 17 16 16 16 15 14 14 12 12 13 14 14 14 13 13 13 12 12 12 12 13 13 14 14 13 12 12 12 12 12 12 13 13 13 12 10 9
22 21 20 19 19 18 17 17 17 16 16 15 14 13 13 13 15 15 14 13 13 13 13 12 12 12 13 13 13 13 13 13 13 12 12 12 12 12 12 13 11 9
23 22 21 20 19 19 18 17 16 16 17 16 16 15 14 14 14 14 15 14 14 14 13 13 13 13 13 13 13 13 13 13 13 12 12 12 12 11 11 12 13 12
24 23 22 21 20 19 19 18 17 17 16 16 17 16 15 16 16 15 15 15 15 14 14 14 13 13 13 13 13 13 13 13 13 13 12 12 12 12 12 13 13 14
23 23 23 22 21 20 20 18 18 18 17 16 17 17 17 18 18 17 16 16 16 16 15 15 15 14 14 14 14 14 13 13 13 13 12 12 12 12 12 13 13 13
22 21 21 22 21 21 21 20 19 18 18 17 18 17 17 19 20 19 17 16 16 17 17 17 16 16 15 15 15 15 14 14 13 12 12 13 13 12 12 13 13 12
22 19 18 20 21 22 23 22 20 19 18 18 18 18 17 18 20 20 19 18 17 18 18 18 18 17 17 17 16 16 16 15 14 13 13 13 13 12 12 13 14 14
22 20 18 17 18 21 22 23 22 21 20 19 20 20 19 18 19 20 20 20 20 19 19 19 20 19 19 18 17 17 16 16 16 15 15 14 14 13 13 14 14 14
24 23 22 19 18 18 20 22 22 22 21 20 20 21 21 20 20 20 21 21 21 21 21 21 21 21 21 19 18 18 18 17 17 17 17 16 15 15 15 15 15 15
26 25 24 23 22 21 22 22 23 22 22 22 21 20 21 22 22 22 22 22 22 21 22 23 23 23 23 21 19 19 19 18 17 18 18 17 16 16 15 15 15 16
26 27 26 25 23 22 23 24 24 23 23 22 22 22 21 21 24 25 24 23 23 23 23 23 24 24 24 23 22 20 20 20 19 19 19 19 18 17 17 17 16 16
22 24 26 27 25 22 22 24 24 23 23 22 20 23 25 22 21 25 26 25 25 24 24 25 25 26 25 25 23 22 22 22 22 21 20 20 20 20 19 19 18 18
18 20 22 26 27 25 22 24 24 23 23 20 15 17 25 26 22 22 25 26 27 26 25 26 26 26 26 25 25 24 23 23 24 23 23 22 21 21 21 20 19 19
13 15 18 22 26 26 24 24 24 23 23 24 19 15 20 27 26 24 24 25 28 28 27 27 27 26 25 24 24 25 25 25 25 25 25 24 23 23 23 22 20 20
11 12 13 16 19 23 24 24 24 23 24 28 28 22 21 25 29 29 27 25 26 29 30 29 29 27 26 25 24 24 25 26 27 27 27 27 26 26 25 24 23 22
10 9 9 9 11 15 20 22 22 24 27 29 31 29 26 25 27 30 30 27 26 28 30 30 30 28 27 26 25 23 23 25 26 28 28 29 29 29 28 27 26 25
7 8 8 9 10 11 15 18 20 21 25 29 31 31 28 24 24 27 29 29 28 29 30 32 31 29 28 28 27 25 23 23 24 25 27 28 29 30 30 30 29 28
8 8 9 10 12 13 14 16 17 18 21 26 29 30 28 25 25 26 27 28 29 29 30 32 32 30 28 27 28 27 26 25 24 24 25 25 26 28 30 31 31 31
8 10 11 12 14 15 15 16 17 18 19 22 24 27 28 28 27 27 27 29 29 29 29 31 33 33 32 29 27 27 27 28 27 26 26 26 26 26 27 29 31 32
7 7 9 13 15 15 16 16 16 17 19 20 21 23 24 25 26 26 27 30 32 31 30 29 30 32 34 35 33 31 29 29 30 30 30 29 29 28 27 27 29 30
11 10 7 6 9 12 13 14 16 16 16 17 19 21 23 23 23 24 25 29 32 33 31 29 27 28 32 35 37 36 35 33 32 32 32 33 32 31 30 30 30 30
11 12 12 8 4 6 8 10 13 15 16 17 18 20 22 22 22 24 25 27 29 31 32 32 31 32 36 38 37 38 38 36 34 34 35 36 36 36 35 34 34 34
12 11 12 10 7 6 7 8 9 12 16 18 18 19 19 20 22 23 24 25 26 27 30 34 37 39 40 39 36 35 36 35 36 37 38 38 39 39 39 39 39 39

ECMWFNIL_850_spd_114.txt.gz
Wind_Speed
22 21 20 18 17 16 14 14 14 14 13 12 11 11 11 11 11 12 13 13 13 13 13 13 13 13 12 11 12 11 10 10 10 10 11 11 11 11 12 13 11 9
24 22 21 19 19 18 16 15 14 13 13 12 11 11 11 11 12 12 13 13 13 13 14 13 13 13 12 12 12 11 11 11 11 11 11 11 11 12 12 13 12 10
25 24 22 21 19 19 18 16 15 14 13 12 12 12 12 12 12 13 14 13 12 13 13 13 13 12 12 13 12 11 11 11 11 12 12 12 12 12 12 13 14 13
25 24 24 22 20 19 19 18 17 16 15 14 13 13 13 12 13 14 14 12 11 12 12 12 12 12 13 13 13 12 11 11 10 11 13 13 13 13 12 13 15 14
24 23 24 23 21 19 19 19 19 18 17 16 15 14 14 14 13 14 14 13 12 13 12 12 12 12 13 13 14 13 12 12 11 12 12 13 13 14 13 14 15 14
24 23 23 22 22 20 19 20 19 19 18 17 16 16 16 15 15 14 14 14 14 14 13 13 13 13 13 13 14 13 13 13 13 13 13 13 13 13 13 14 15 14
24 24 23 22 21 21 20 19 19 19 19 18 18 18 17 17 16 15 14 14 15 15 14 14 14 14 13 13 13 13 13 13 14 14 14 13 13 13 13 13 14 15
24 24 24 23 23 22 21 20 20 20 19 18 19 19 19 18 17 16 16 15 15 15 15 14 14 14 14 13 13 13 13 13 14 14 14 13 13 13 13 13 14 14
24 23 23 24 24 23 23 22 21 20 19 19 19 20 21 20 19 18 18 17 16 15 15 15 15 15 15 14 14 14 14 13 14 14 13 13 13 13 13 13 14 14
24 23 23 23 23 24 24 23 22 21 20 20 20 20 22 22 21 21 20 19 17 16 16 16 16 15 16 16 15 15 15 14 14 14 14 13 13 13 13 13 14 15
24 24 23 22 21 22 23 23 23 22 21 21 21 21 21 22 21 22 23 22 20 17 16 17 17 16 16 17 17 16 16 16 16 16 15 14 14 14 14 14 15 15
27 26 24 22 21 22 23 23 23 23 22 22 22 21 21 22 22 22 23 23 23 20 18 18 18 17 17 17 17 16 16 17 17 17 17 16 16 15 16 16 16 16
28 28 26 24 23 22 23 23 24 25 25 24 24 23 22 22 22 22 23 23 23 21 20 19 18 18 18 17 17 16 16 17 17 18 19 18 18 17 17 17 17 16
27 29 28 26 24 23 22 23 25 27 27 27 27 26 24 23 22 22 23 23 23 21 19 18 18 19 19 19 18 18 18 18 17 18 19 19 19 18 18 18 17 16
24 27 29 28 26 24 22 22 24 27 29 30 30 29 27 25 24 22 22 23 23 23 22 20 19 18 19 20 20 20 20 20 19 19 19 20 20 19 19 19 18 18
21 24 27 28 27 25 22 22 24 27 30 32 32 31 30 28 27 26 25 24 23 23 23 23 22 20 19 18 18 19 20 21 21 21 21 21 21 21 20 20 20 20
18 21 24 26 26 26 24 24 25 28 32 33 31 30 29 29 29 29 29 29 28 27 25 25 25 23 21 19 17 17 17 18 20 21 22 23 23 22 22 21 21 21
12 15 17 20 22 22 23 25 27 30 33 33 31 30 28 27 28 29 30 31 32 32 31 29 27 25 23 22 20 19 17 17 18 19 21 23 24 25 24 23 22 22
8 10 11 13 16 18 20 25 30 33 33 32 31 30 29 28 27 27 27 29 32 33 33 33 31 29 26 24 23 21 20 20 19 19 19 19 21 23 25 26 25 25
7 7 9 10 13 15 17 21 26 30 31 30 30 31 31 31 29 28 26 26 29 33 34 34 33 32 30 28 26 23 21 20 21 22 21 20 19 19 21 23 25 26
6 7 8 8 9 11 14 15 17 21 24 26 27 28 30 31 31 31 29 26 26 30 34 35 35 34 32 31 29 26 23 21 21 22 23 23 22 20 19 20 21 23
4 6 8 10 8 8 9 11 12 14 16 19 21 23 26 28 30 32 32 29 26 28 30 32 34 35 34 32 30 27 26 24 23 23 23 24 24 23 23 22 21 21
4 2 4 7 9 9 8 9 10 11 13 15 17 19 21 24 26 29 31 31 29 29 29 31 32 32 31 30 29 27 26 27 27 26 26 26 26 25 25 25 24 24
7 6 5 4 4 6 7 7 8 10 11 12 14 17 19 21 23 25 27 28 29 29 30 31 32 30 28 27 27 27 28 29 29 28 28 29 30 30 30 29 28 27
8 7 6 4 2 0 1 3 5 8 10 10 11 13 16 18 20 22 24 25 26 28 30 31 32 31 30 29 28 27 28 28 28 28 29 30 31 32 33 33 33 32
8 8 7 6 5 4 5 5 5 5 6 8 8 9 12 15 17 19 21 23 24 25 27 28 29 30 31 31 31 30 30 29 28 29 30 31 31 32 33 34 35 36

ECMWFNIL_850_spd_117.txt.gz
Wind_Speed
16 16 16 15 14 13 12 11 12 12 11 11 11 10 9 9 10 10 10 10 12 12 12 12 12 12 12 12 11 11 11 10 10 9 10 10 10 10 10 8 9 9
18 16 16 16 15 14 13 11 11 12 12 11 11 10 9 9 10 10 10 10 11 11 12 12 12 12 12 12 12 11 11 10 10 9 10 10 9 10 10 10 11 11
20 18 17 17 16 15 13 12 12 12 12 11 11 10 10 10 10 10 11 11 11 11 11 12 12 12 12 12 12 11 11 11 10 10 10 10 10 11 10 10 12 13
22 21 19 18 17 16 14 13 13 13 13 12 11 10 11 11 11 11 11 12 11 11 11 11 12 12 11 11 11 11 10 10 10 10 10 10 11 11 11 11 12 14
23 22 21 20 19 17 16 15 15 15 14 13 12 11 11 11 12 12 12 12 12 12 12 11 11 12 12 11 11 11 10 9 9 10 11 11 11 11 12 12 13 14
24 23 22 21 20 18 17 16 16 15 15 13 12 12 12 12 12 12 12 13 13 12 12 12 12 12 12 12 12 11 10 10 10 10 11 11 11 12 12 13 14 14
24 24 23 22 21 20 18 17 16 16 15 14 13 13 13 13 13 12 12 13 14 13 13 12 12 12 12 12 12 11 11 11 11 11 12 11 11 12 12 13 14 15
23 23 23 23 23 22 21 19 17 17 16 16 15 15 14 14 13 13 12 13 14 14 13 13 12 12 12 12 12 12 11 11 11 12 12 11 12 12 12 12 13 14
23 23 23 24 24 23 22 21 20 18 17 17 17 16 16 15 15 14 14 13 14 14 14 14 14 13 14 14 13 12 12 12 11 12 12 11 12 12 12 12 13 14
22 23 23 24 24 24 24 23 21 20 19 18 18 17 17 16 16 16 16 15 15 15 15 14 14 15 15 15 15 14 13 12 12 12 12 12 12 11 12 12 13 14
21 22 23 24 25 25 25 24 23 22 21 21 20 19 18 17 17 17 18 18 17 16 16 15 15 15 16 17 17 16 15 14 14 14 14 13 13 12 12 13 14 15
23 23 23 24 25 26 26 25 24 24 23 22 21 20 19 18 17 17 18 19 18 18 18 18 17 17 16 17 18 18 18 17 17 16 16 15 14 14 14 14 15 15
23 24 24 24 24 25 26 26 26 25 24 24 22 21 20 19 18 18 18 19 19 18 19 19 18 18 18 18 18 19 19 19 18 18 17 17 16 16 15 16 16 16
22 23 24 25 24 24 26 27 26 25 24 24 24 22 21 20 19 19 18 18 18 18 18 19 19 19 18 18 18 18 19 19 19 18 17 17 17 17 17 17 17 17
23 24 25 25 25 25 26 27 26 25 25 25 25 24 24 22 21 20 19 18 18 17 18 18 19 19 18 17 17 17 19 20 20 19 18 17 17 17 18 18 18 18
24 25 26 26 26 27 28 28 28 27 27 26 25 26 25 24 23 22 22 21 20 20 20 20 21 20 19 17 16 16 18 19 20 20 19 19 19 19 19 19 19 19
20 21 23 25 26 28 30 31 31 30 30 28 26 26 26 25 24 23 23 23 23 23 23 23 24 23 21 20 19 18 18 18 19 19 19 20 20 20 20 20 20 20
13 16 19 22 25 27 30 32 32 30 28 28 28 26 25 25 25 24 24 24 24 25 25 25 25 24 23 22 22 21 21 21 20 20 21 21 20 20 20 20 21 21
8 10 13 18 22 25 27 30 30 29 26 27 27 28 28 27 26 25 25 26 26 26 27 27 26 25 25 24 24 23 23 24 24 24 24 23 22 22 21 21 21 21
9 9 9 12 15 18 20 22 25 27 27 27 27 27 28 28 28 27 27 27 28 27 27 27 26 26 26 27 28 27 26 26 27 27 27 27 25 24 23 22 21 21
9 9 9 9 10 13 14 15 17 20 22 24 25 25 26 26 27 29 30 30 29 29 28 27 26 25 26 27 28 29 29 29 29 28 29 29 28 26 24 22 21 21
8 9 9 8 9 9 10 11 13 14 16 18 21 23 24 24 24 26 30 32 32 31 30 29 28 27 26 27 27 28 30 31 31 31 30 29 29 28 27 25 22 22
1 4 6 6 7 8 9 10 12 13 13 14 16 18 20 22 23 24 26 29 30 30 29 29 29 28 27 27 28 29 29 31 32 33 32 31 30 29 28 27 26 25
4 1 2 3 4 6 9 10 11 12 13 13 13 15 16 18 20 22 22 24 25 25 26 27 27 27 27 27 27 28 28 29 30 32 32 33 32 31 30 30 29 28
6 3 1 2 1 2 4 5 6 8 10 11 12 14 14 15 16 18 18 19 19 20 21 23 24 25 25 26 27 28 28 28 28 29 30 31 32 32 32 32 31 31
6 5 3 3 3 1 2 3 2 3 3 5 7 9 11 13 14 15 14 13 13 14 16 18 21 22 22 23 25 26 28 28 28 27 28 28 29 30 31 32 32 32

ECMWFNIL_850_spd_120.txt.gz
Wind_Speed
14 13 12 11 11 10 9 9 8 8 8 8 8 8 7 7 7 7 8 9 10 10 11 11 11 11 11 11 11 10 10 11 11 11 10 10 9 9 10 10 9 8
14 14 13 12 12 11 11 10 9 8 8 8 8 8 8 8 8 8 8 9 9 10 10 11 11 11 11 11 11 10 10 11 11 11 10 10 10 10 10 10 10 10
15 15 14 13 12 11 11 11 9 8 7 8 8 8 8 8 8 8 9 9 9 9 10 10 10 11 11 11 11 10 10 10 10 10 10 11 11 11 10 11 11 11
16 16 15 13 12 11 11 12 10 8 8 8 8 8 8 9 9 9 9 9 9 9 9 10 10 10 10 11 11 11 10 10 9 10 11 11 11 11 11 11 11 11
16 16 16 15 13 12 12 12 11 10 9 9 9 9 9 9 10 10 10 10 9 9 9 9 9 10 10 11 12 11 10 10 9 10 11 11 11 11 11 12 11 11
17 17 16 16 15 14 13 12 12 11 11 10 10 10 10 10 11 11 10 10 10 10 10 10 10 9 10 11 12 12 11 10 10 11 12 11 11 11 12 12 12 11
18 18 17 16 16 15 14 13 12 12 12 11 11 11 11 11 11 11 11 10 11 11 11 11 10 10 10 11 12 12 12 12 12 12 12 11 11 11 11 12 12 12
18 19 18 18 17 16 15 14 13 12 12 12 12 12 12 12 12 12 11 11 12 12 12 12 12 11 11 12 12 11 12 12 12 13 13 12 12 11 11 11 12 12
18 19 20 20 19 18 17 15 14 13 13 12 12 12 12 12 12 12 12 12 12 12 13 13 12 12 12 12 12 11 11 11 12 13 13 13 13 12 11 11 11 11
18 19 20 21 20 20 19 18 16 15 14 14 13 13 13 13 13 13 13 13 13 13 13 13 13 13 12 12 12 12 12 12 12 13 13 13 13 13 11 11 11 11
18 19 20 21 21 21 20 20 19 17 16 15 15 15 14 14 14 14 15 15 14 14 13 13 13 13 13 12 12 12 13 13 13 13 13 13 13 13 13 12 12 12
18 19 20 20 21 21 21 21 20 20 19 18 17 16 16 16 16 16 16 16 15 15 14 14 13 13 13 12 11 11 12 13 14 14 15 15 15 14 14 14 14 14
18 19 20 20 21 21 21 21 21 21 21 20 19 18 18 17 17 17 17 17 16 15 15 14 14 14 13 13 12 12 12 13 14 15 15 16 16 16 15 15 15 15
20 20 20 20 21 21 21 21 21 22 21 21 21 21 20 19 18 18 18 18 17 16 15 15 15 15 14 13 13 13 13 13 13 14 15 15 16 16 16 16 16 15
22 21 21 20 21 21 21 20 20 20 20 20 21 21 20 19 19 19 19 19 18 17 15 14 15 15 15 14 14 13 13 13 12 12 13 13 14 15 15 16 16 16
24 24 23 23 23 23 22 21 20 20 19 19 19 20 20 19 19 20 20 20 20 18 16 15 15 15 15 15 15 15 14 13 13 12 12 13 14 14 14 14 14 15
24 25 25 25 24 24 23 22 22 21 20 19 19 20 20 21 20 20 21 21 21 21 19 18 18 17 16 16 16 16 16 16 15 15 14 14 15 15 15 14 14 14
20 21 22 22 22 22 22 23 23 22 21 21 21 21 22 22 22 22 21 21 22 23 22 21 20 18 17 17 18 18 19 20 20 19 18 17 17 16 16 15 15 15
15 16 16 17 18 19 20 21 21 22 22 22 22 23 23 22 22 23 22 22 22 23 23 22 20 19 18 19 19 20 21 22 23 22 22 21 20 19 18 17 17 16
12 12 12 13 14 14 15 16 18 19 20 21 23 23 24 23 22 22 23 24 24 24 24 23 21 20 20 20 21 21 21 22 23 24 24 24 23 23 22 20 19 18
7 8 8 9 10 10 10 11 13 15 16 17 19 21 23 24 24 23 23 25 27 27 26 25 24 22 22 22 23 23 23 24 24 24 24 25 25 25 24 23 22 22
3 3 4 5 6 7 7 7 9 11 13 14 15 17 19 21 22 23 24 25 26 28 29 28 27 25 24 24 24 25 26 26 26 25 25 25 25 25 25 25 25 24
5 3 2 2 4 5 6 6 6 7 9 11 12 14 15 17 18 20 21 22 25 27 27 26 26 25 25 25 25 26 28 29 29 29 28 27 26 26 26 26 27 26
7 6 5 3 1 1 3 4 5 6 6 7 8 11 12 13 13 13 15 18 22 24 23 22 24 24 24 25 26 26 28 29 30 31 30 29 28 26 26 26 27 27
7 5 5 5 5 5 5 5 5 4 4 4 5 7 9 10 10 10 11 13 16 17 18 18 20 20 20 21 22 24 25 27 29 30 31 31 30 28 27 27 27 27
6 5 4 5 5 6 6 5 4 4 3 2 2 3 4 6 8 9 11 12 13 14 15 14 15 15 15 16 18 20 22 25 27 29 30 31 31 30 30 29 28 28

ECMWFNIL_850_spd_123.txt.gz
Wind_Speed
15 12 10 9 9 9 8 8 8 8 7 6 6 5 5 6 7 7 7 7 7 8 8 8 9 9 9 9 9 8 8 7 8 8 8 8 8 8 9 8 8 7
15 14 12 10 10 9 9 8 8 7 7 6 6 6 6 6 7 7 7 8 7 7 8 8 9 9 9 9 9 8 8 7 8 8 9 9 8 9 9 9 10 9
15 15 13 12 11 9 9 9 8 7 7 6 7 7 7 7 7 7 7 7 7 8 8 9 9 9 9 9 9 8 8 8 8 9 9 9 9 9 9 10 10 10
15 15 14 13 12 10 10 10 9 8 7 7 7 7 8 8 7 7 7 8 8 8 9 9 9 9 9 9 9 9 8 8 8 9 9 9 9 9 9 10 10 10
14 14 14 14 13 12 11 11 10 9 8 7 7 7 7 7 7 8 8 8 8 8 9 9 9 9 9 8 8 8 8 8 8 9 9 9 9 9 9 10 10 10
15 14 14 14 14 13 12 11 11 10 9 8 7 7 7 7 7 8 8 8 8 9 9 9 8 8 8 8 8 8 8 8 9 9 10 10 10 10 10 10 10 10
16 15 15 15 15 15 13 12 12 11 10 9 9 8 8 7 7 8 9 8 8 8 9 9 9 8 8 8 8 8 8 9 9 9 10 10 10 11 11 11 11 11
16 16 16 16 16 15 14 13 12 11 10 10 10 10 9 9 8 8 9 9 9 9 8 9 9 8 8 8 8 8 9 9 9 9 9 10 10 11 11 11 12 11
15 16 16 16 16 16 15 14 12 11 11 10 10 10 10 10 9 9 10 9 9 9 9 9 9 9 8 9 9 9 9 9 9 9 9 9 10 10 10 11 12 12
13 15 16 16 16 15 15 14 13 12 12 11 11 10 10 10 10 10 10 10 10 9 9 9 10 10 10 10 10 10 10 9 9 9 9 9 9 9 9 10 11 11
12 13 15 16 16 16 15 15 14 14 13 13 12 12 11 10 10 10 11 11 11 10 10 10 10 10 10 10 10 10 10 9 9 9 9 10 10 10 9 10 10 10
12 12 13 15 16 16 16 16 16 16 15 14 14 14 13 12 11 11 11 11 11 11 11 11 11 11 10 10 10 10 10 10 10 10 10 10 11 11 11 11 11 11
14 13 13 15 17 17 17 18 17 17 17 16 15 15 15 14 14 14 13 13 12 12 12 12 11 12 12 11 11 11 11 11 10 10 10 11 11 11 11 12 12 12
16 15 14 15 16 18 18 18 18 18 18 18 17 17 16 16 16 16 16 15 15 14 14 13 12 12 12 12 12 11 11 11 11 11 11 10 10 10 10 10 11 11
17 17 16 15 15 17 18 18 18 18 18 19 18 18 18 17 17 17 17 17 16 16 15 14 13 13 12 11 11 10 10 10 11 10 11 11 11 10 10 10 10 10
18 18 17 17 17 17 16 17 17 17 18 18 19 18 18 18 18 18 18 18 18 18 17 16 15 14 13 11 11 10 10 11 11 11 11 12 12 12 12 11 11 11
19 18 18 18 19 19 18 17 16 16 17 18 18 18 18 18 19 19 19 19 19 18 18 17 17 16 14 13 12 12 12 12 13 13 13 14 14 14 14 13 13 13
18 18 18 19 20 20 20 19 18 18 18 19 19 19 19 19 19 19 19 19 18 18 18 17 18 17 16 16 15 14 14 14 14 15 15 15 15 15 15 15 14 14
16 16 16 17 18 20 20 20 20 19 18 20 21 21 20 20 20 20 19 18 18 18 17 17 17 17 17 17 17 16 16 15 15 15 15 16 16 17 17 17 17 16
11 12 13 13 15 15 16 17 18 17 17 19 20 19 18 19 20 20 20 19 17 17 16 16 17 17 18 18 18 17 17 17 16 16 16 16 16 16 17 18 18 19
10 9 9 9 10 10 10 11 12 12 13 14 15 16 14 15 17 18 19 19 19 18 17 16 18 19 18 18 18 18 18 17 17 17 17 17 17 17 17 18 19 20
8 7 6 6 6 6 5 5 5 7 8 9 11 12 12 13 15 16 17 18 18 19 17 17 19 20 19 19 20 20 20 20 19 20 20 20 20 19 19 19 20 21
6 5 4 3 3 3 4 3 2 3 4 5 7 8 8 10 12 13 14 14 15 16 17 17 20 21 21 21 21 22 22 22 22 22 23 23 23 22 22 22 22 22
8 6 5 4 4 2 1 2 2 2 1 2 3 5 6 7 8 9 9 10 11 12 12 14 17 19 20 20 21 21 22 22 23 24 25 25 25 24 23 23 22 23
9 9 9 10 9 8 7 5 4 2 1 0 2 5 5 5 5 5 5 6 7 8 8 8 11 13 15 16 17 17 19 20 21 22 23 24 25 24 23 23 22 23
8 7 8 8 9 8 8 8 7 6 5 3 1 2 2 2 2 1 2 3 4 5 6 6 8 10 11 12 13 14 15 16 17 18 19 21 22 22 21 20 20 21